Wetterdaten: Dienstag, 27.06.2023
Datum Zeit Temp. I. Temp. A. Feuchte I. Feuchte A. Luftdruck Regen Wind Richtung Richtung Sonnenschein Solar Taupunkt Windchill Windböen
27.06.2023 00:02 24,4 °C 18,8 °C 60 % 75 % 1016,4 hPa 0,0 l/m² 3,7 km/h (1 Bft) NW 309 ° 0 min 0 W/m² 14,3 °C 18,8 °C 11,3 km/h (2 Bft)
27.06.2023 00:03 24,4 °C 18,8 °C 60 % 75 % 1016,4 hPa 0,0 l/m² 3,0 km/h (1 Bft) NW 322 ° 0 min 0 W/m² 14,3 °C 18,8 °C 6,4 km/h (2 Bft)
27.06.2023 00:04 24,4 °C 18,8 °C 60 % 75 % 1016,4 hPa 0,0 l/m² 3,4 km/h (1 Bft) W-NW 298 ° 0 min 0 W/m² 14,3 °C 18,8 °C 11,3 km/h (2 Bft)
27.06.2023 00:05 24,4 °C 18,8 °C 60 % 75 % 1016,3 hPa 0,0 l/m² 1,1 km/h (1 Bft) W 262 ° 0 min 0 W/m² 14,3 °C 18,8 °C 3,2 km/h (1 Bft)
27.06.2023 00:06 24,4 °C 18,8 °C 60 % 75 % 1016,3 hPa 0,0 l/m² 2,0 km/h (1 Bft) W 273 ° 0 min 0 W/m² 14,3 °C 18,8 °C 4,8 km/h (1 Bft)
27.06.2023 00:07 24,4 °C 18,7 °C 60 % 76 % 1016,4 hPa 0,0 l/m² 0,5 km/h (0 Bft) W 273 ° 0 min 0 W/m² 14,4 °C 18,7 °C 3,2 km/h (1 Bft)
27.06.2023 00:08 24,4 °C 18,7 °C 60 % 76 % 1016,4 hPa 0,0 l/m² 2,3 km/h (1 Bft) W 263 ° 0 min 0 W/m² 14,4 °C 18,7 °C 4,8 km/h (1 Bft)
27.06.2023 00:09 24,4 °C 18,7 °C 60 % 76 % 1016,4 hPa 0,0 l/m² 1,9 km/h (1 Bft) W-NW 288 ° 0 min 0 W/m² 14,4 °C 18,7 °C 6,4 km/h (2 Bft)
27.06.2023 00:10 24,4 °C 18,7 °C 60 % 76 % 1016,4 hPa 0,0 l/m² 1,0 km/h (0 Bft) W 280 ° 0 min 0 W/m² 14,4 °C 18,7 °C 3,2 km/h (1 Bft)
27.06.2023 00:11 24,4 °C 18,7 °C 60 % 76 % 1016,4 hPa 0,0 l/m² 0,7 km/h (0 Bft) W 279 ° 0 min 0 W/m² 14,4 °C 18,7 °C 3,2 km/h (1 Bft)
27.06.2023 00:13 24,4 °C 18,7 °C 60 % 76 % 1016,5 hPa 0,0 l/m² 0,1 km/h (0 Bft) W 279 ° 0 min 0 W/m² 14,4 °C 18,7 °C 1,6 km/h (1 Bft)
27.06.2023 00:14 24,4 °C 18,6 °C 60 % 76 % 1016,5 hPa 0,0 l/m² 0,6 km/h (0 Bft) W 279 ° 0 min 0 W/m² 14,3 °C 18,6 °C 1,6 km/h (1 Bft)
27.06.2023 00:15 24,4 °C 18,6 °C 60 % 76 % 1016,4 hPa 0,0 l/m² 0,0 km/h (0 Bft) W 279 ° 0 min 0 W/m² 14,3 °C 18,6 °C 0,0 km/h (0 Bft)
27.06.2023 00:17 24,4 °C 18,5 °C 60 % 77 % 1016,4 hPa 0,0 l/m² 1,0 km/h (0 Bft) W 279 ° 0 min 0 W/m² 14,4 °C 18,5 °C 4,8 km/h (1 Bft)
27.06.2023 00:18 24,4 °C 18,4 °C 60 % 77 % 1016,4 hPa 0,0 l/m² 1,6 km/h (1 Bft) W 279 ° 0 min 0 W/m² 14,3 °C 18,4 °C 3,2 km/h (1 Bft)
27.06.2023 00:19 24,4 °C 18,4 °C 60 % 77 % 1016,4 hPa 0,0 l/m² 0,8 km/h (0 Bft) W 279 ° 0 min 0 W/m² 14,3 °C 18,4 °C 3,2 km/h (1 Bft)
27.06.2023 00:22 24,4 °C 18,3 °C 60 % 78 % 1016,5 hPa 0,0 l/m² 1,6 km/h (1 Bft) W 273 ° 0 min 0 W/m² 14,4 °C 18,3 °C 3,2 km/h (1 Bft)
27.06.2023 00:23 24,4 °C 18,3 °C 60 % 78 % 1016,4 hPa 0,0 l/m² 2,2 km/h (1 Bft) W 270 ° 0 min 0 W/m² 14,4 °C 18,3 °C 3,2 km/h (1 Bft)
27.06.2023 00:24 24,4 °C 18,2 °C 60 % 78 % 1016,5 hPa 0,0 l/m² 2,8 km/h (1 Bft) W-NW 286 ° 0 min 0 W/m² 14,3 °C 18,2 °C 4,8 km/h (1 Bft)
27.06.2023 00:25 24,4 °C 18,2 °C 60 % 78 % 1016,5 hPa 0,0 l/m² 2,5 km/h (1 Bft) W-NW 283 ° 0 min 0 W/m² 14,3 °C 18,2 °C 4,8 km/h (1 Bft)
27.06.2023 00:27 24,4 °C 18,2 °C 60 % 78 % 1016,4 hPa 0,0 l/m² 2,1 km/h (1 Bft) W-NW 283 ° 0 min 0 W/m² 14,3 °C 18,2 °C 4,8 km/h (1 Bft)
27.06.2023 00:28 24,4 °C 18,2 °C 60 % 78 % 1016,5 hPa 0,0 l/m² 2,4 km/h (1 Bft) W-NW 288 ° 0 min 0 W/m² 14,3 °C 18,2 °C 6,4 km/h (2 Bft)
27.06.2023 00:29 24,4 °C 18,2 °C 60 % 78 % 1016,4 hPa 0,0 l/m² 2,5 km/h (1 Bft) W-NW 282 ° 0 min 0 W/m² 14,3 °C 18,2 °C 4,8 km/h (1 Bft)
27.06.2023 00:32 24,4 °C 18,1 °C 60 % 79 % 1016,6 hPa 0,0 l/m² 0,8 km/h (0 Bft) W 269 ° 0 min 0 W/m² 14,4 °C 18,1 °C 3,2 km/h (1 Bft)
27.06.2023 00:33 24,4 °C 18,1 °C 60 % 78 % 1016,5 hPa 0,0 l/m² 0,7 km/h (0 Bft) W 269 ° 0 min 0 W/m² 14,2 °C 18,1 °C 3,2 km/h (1 Bft)
27.06.2023 00:34 24,4 °C 18,1 °C 60 % 78 % 1016,5 hPa 0,0 l/m² 2,8 km/h (1 Bft) W 263 ° 0 min 0 W/m² 14,2 °C 18,1 °C 6,4 km/h (2 Bft)
27.06.2023 00:35 24,4 °C 18,1 °C 60 % 78 % 1016,5 hPa 0,0 l/m² 2,4 km/h (1 Bft) W 271 ° 0 min 0 W/m² 14,2 °C 18,1 °C 4,8 km/h (1 Bft)
27.06.2023 00:36 24,4 °C 18,1 °C 60 % 78 % 1016,5 hPa 0,0 l/m² 1,9 km/h (1 Bft) W-NW 284 ° 0 min 0 W/m² 14,2 °C 18,1 °C 4,8 km/h (1 Bft)
27.06.2023 00:37 24,4 °C 18,1 °C 60 % 78 % 1016,5 hPa 0,0 l/m² 3,0 km/h (1 Bft) W 260 ° 0 min 0 W/m² 14,2 °C 18,1 °C 4,8 km/h (1 Bft)
27.06.2023 00:38 24,4 °C 18,0 °C 60 % 78 % 1016,6 hPa 0,0 l/m² 2,1 km/h (1 Bft) W-NW 282 ° 0 min 0 W/m² 14,1 °C 18,0 °C 4,8 km/h (1 Bft)
27.06.2023 00:39 24,4 °C 18,0 °C 60 % 79 % 1016,6 hPa 0,0 l/m² 1,0 km/h (0 Bft) W-NW 282 ° 0 min 0 W/m² 14,3 °C 18,0 °C 3,2 km/h (1 Bft)
27.06.2023 00:42 24,4 °C 17,9 °C 60 % 79 % 1016,6 hPa 0,0 l/m² 1,3 km/h (1 Bft) W-NW 300 ° 0 min 0 W/m² 14,2 °C 17,9 °C 8,0 km/h (2 Bft)
27.06.2023 00:43 24,4 °C 18,0 °C 60 % 79 % 1016,5 hPa 0,0 l/m² 2,4 km/h (1 Bft) W 265 ° 0 min 0 W/m² 14,3 °C 18,0 °C 4,8 km/h (1 Bft)
27.06.2023 00:44 24,4 °C 17,9 °C 60 % 79 % 1016,5 hPa 0,0 l/m² 6,4 km/h (2 Bft) W-NW 300 ° 0 min 0 W/m² 14,2 °C 17,9 °C 6,4 km/h (2 Bft)
27.06.2023 00:45 24,4 °C 18,0 °C 60 % 79 % 1016,6 hPa 0,0 l/m² 2,0 km/h (1 Bft) W-NW 283 ° 0 min 0 W/m² 14,3 °C 18,0 °C 6,4 km/h (2 Bft)
27.06.2023 00:46 24,4 °C 17,9 °C 60 % 79 % 1016,6 hPa 0,0 l/m² 2,9 km/h (1 Bft) NW 316 ° 0 min 0 W/m² 14,2 °C 17,9 °C 4,8 km/h (1 Bft)
27.06.2023 00:48 24,4 °C 18,0 °C 60 % 78 % 1016,6 hPa 0,0 l/m² 1,2 km/h (1 Bft) W-NW 298 ° 0 min 0 W/m² 14,1 °C 18,0 °C 4,8 km/h (1 Bft)
27.06.2023 00:49 24,4 °C 18,0 °C 60 % 79 % 1016,6 hPa 0,0 l/m² 0,6 km/h (0 Bft) W 263 ° 0 min 0 W/m² 14,3 °C 18,0 °C 3,2 km/h (1 Bft)
27.06.2023 00:50 24,4 °C 18,0 °C 60 % 78 % 1016,6 hPa 0,0 l/m² 1,5 km/h (1 Bft) W 265 ° 0 min 0 W/m² 14,1 °C 18,0 °C 3,2 km/h (1 Bft)
27.06.2023 00:53 24,4 °C 17,9 °C 60 % 78 % 1016,6 hPa 0,0 l/m² 1,7 km/h (1 Bft) W-NW 286 ° 0 min 0 W/m² 14,0 °C 17,9 °C 4,8 km/h (1 Bft)
27.06.2023 00:54 24,4 °C 17,9 °C 60 % 78 % 1016,6 hPa 0,0 l/m² 3,1 km/h (1 Bft) W 279 ° 0 min 0 W/m² 14,0 °C 17,9 °C 6,4 km/h (2 Bft)
27.06.2023 00:55 24,4 °C 17,9 °C 60 % 78 % 1016,5 hPa 0,0 l/m² 1,9 km/h (1 Bft) W-NW 295 ° 0 min 0 W/m² 14,0 °C 17,9 °C 4,8 km/h (1 Bft)
27.06.2023 00:56 24,4 °C 17,9 °C 60 % 78 % 1016,5 hPa 0,0 l/m² 2,6 km/h (1 Bft) W 267 ° 0 min 0 W/m² 14,0 °C 17,9 °C 6,4 km/h (2 Bft)
27.06.2023 00:57 24,4 °C 17,9 °C 60 % 78 % 1016,6 hPa 0,0 l/m² 2,1 km/h (1 Bft) NW 305 ° 0 min 0 W/m² 14,0 °C 17,9 °C 3,2 km/h (1 Bft)
27.06.2023 00:58 24,4 °C 17,9 °C 60 % 78 % 1016,6 hPa 0,0 l/m² 0,1 km/h (0 Bft) NW 305 ° 0 min 0 W/m² 14,0 °C 17,9 °C 1,6 km/h (1 Bft)
27.06.2023 00:59 24,4 °C 17,9 °C 60 % 78 % 1016,6 hPa 0,0 l/m² 1,8 km/h (1 Bft) W-NW 286 ° 0 min 0 W/m² 14,0 °C 17,9 °C 4,8 km/h (1 Bft)
27.06.2023 01:00 24,4 °C 17,8 °C 60 % 78 % 1016,5 hPa 0,0 l/m² 1,0 km/h (0 Bft) W 273 ° 0 min 0 W/m² 13,9 °C 17,8 °C 3,2 km/h (1 Bft)
27.06.2023 01:03 24,4 °C 17,8 °C 60 % 78 % 1016,6 hPa 0,0 l/m² 1,4 km/h (1 Bft) W 277 ° 0 min 0 W/m² 13,9 °C 17,8 °C 4,8 km/h (1 Bft)
27.06.2023 01:04 24,4 °C 17,8 °C 60 % 78 % 1016,6 hPa 0,0 l/m² 1,6 km/h (1 Bft) W 271 ° 0 min 0 W/m² 13,9 °C 17,8 °C 3,2 km/h (1 Bft)
27.06.2023 01:05 24,4 °C 17,7 °C 60 % 78 % 1016,7 hPa 0,0 l/m² 0,1 km/h (0 Bft) W 271 ° 0 min 0 W/m² 13,8 °C 17,7 °C 1,6 km/h (1 Bft)
27.06.2023 01:06 24,4 °C 17,7 °C 60 % 78 % 1016,6 hPa 0,0 l/m² 0,4 km/h (0 Bft) W 271 ° 0 min 0 W/m² 13,8 °C 17,7 °C 1,6 km/h (1 Bft)
27.06.2023 01:07 24,4 °C 17,8 °C 60 % 78 % 1016,6 hPa 0,0 l/m² 0,2 km/h (0 Bft) W 271 ° 0 min 0 W/m² 13,9 °C 17,8 °C 1,6 km/h (1 Bft)
27.06.2023 01:08 24,4 °C 17,7 °C 60 % 78 % 1016,7 hPa 0,0 l/m² 0,9 km/h (0 Bft) W 271 ° 0 min 0 W/m² 13,8 °C 17,7 °C 3,2 km/h (1 Bft)
27.06.2023 01:09 24,3 °C 17,7 °C 60 % 78 % 1016,7 hPa 0,0 l/m² 2,8 km/h (1 Bft) W 281 ° 0 min 0 W/m² 13,8 °C 17,7 °C 4,8 km/h (1 Bft)
27.06.2023 01:12 24,4 °C 17,7 °C 60 % 78 % 1016,6 hPa 0,0 l/m² 1,9 km/h (1 Bft) W 278 ° 0 min 0 W/m² 13,8 °C 17,7 °C 4,8 km/h (1 Bft)
27.06.2023 01:13 24,4 °C 17,7 °C 60 % 78 % 1016,6 hPa 0,0 l/m² 1,2 km/h (1 Bft) W 277 ° 0 min 0 W/m² 13,8 °C 17,7 °C 4,8 km/h (1 Bft)
27.06.2023 01:14 24,4 °C 17,7 °C 60 % 79 % 1016,6 hPa 0,0 l/m² 2,5 km/h (1 Bft) W 279 ° 0 min 0 W/m² 14,0 °C 17,7 °C 4,8 km/h (1 Bft)
27.06.2023 01:15 24,4 °C 17,7 °C 60 % 79 % 1016,6 hPa 0,0 l/m² 2,1 km/h (1 Bft) W-NW 284 ° 0 min 0 W/m² 14,0 °C 17,7 °C 4,8 km/h (1 Bft)
27.06.2023 01:16 24,4 °C 17,7 °C 60 % 79 % 1016,6 hPa 0,0 l/m² 1,4 km/h (1 Bft) W 270 ° 0 min 0 W/m² 14,0 °C 17,7 °C 3,2 km/h (1 Bft)
27.06.2023 01:17 24,4 °C 17,7 °C 60 % 79 % 1016,6 hPa 0,0 l/m² 0,8 km/h (0 Bft) W 276 ° 0 min 0 W/m² 14,0 °C 17,7 °C 4,8 km/h (1 Bft)
27.06.2023 01:18 24,4 °C 17,7 °C 60 % 79 % 1016,7 hPa 0,0 l/m² 1,9 km/h (1 Bft) W-NW 288 ° 0 min 0 W/m² 14,0 °C 17,7 °C 3,2 km/h (1 Bft)
27.06.2023 01:19 24,4 °C 17,7 °C 60 % 79 % 1016,7 hPa 0,0 l/m² 2,7 km/h (1 Bft) W-NW 297 ° 0 min 0 W/m² 14,0 °C 17,7 °C 4,8 km/h (1 Bft)
27.06.2023 01:20 24,4 °C 17,6 °C 60 % 79 % 1016,7 hPa 0,0 l/m² 2,4 km/h (1 Bft) W 276 ° 0 min 0 W/m² 13,9 °C 17,6 °C 4,8 km/h (1 Bft)
27.06.2023 01:22 24,4 °C 17,6 °C 60 % 79 % 1016,7 hPa 0,0 l/m² 3,8 km/h (1 Bft) W 267 ° 0 min 0 W/m² 13,9 °C 17,6 °C 9,7 km/h (2 Bft)
27.06.2023 01:23 24,4 °C 17,6 °C 60 % 78 % 1016,6 hPa 0,0 l/m² 7,3 km/h (2 Bft) W-SW 245 ° 0 min 0 W/m² 13,7 °C 17,2 °C 11,3 km/h (2 Bft)
27.06.2023 01:24 24,4 °C 17,5 °C 60 % 78 % 1016,6 hPa 0,0 l/m² 7,2 km/h (2 Bft) NW 306 ° 0 min 0 W/m² 13,6 °C 17,1 °C 11,3 km/h (2 Bft)
27.06.2023 01:25 24,4 °C 17,5 °C 60 % 77 % 1016,7 hPa 0,0 l/m² 5,7 km/h (2 Bft) W-NW 284 ° 0 min 0 W/m² 13,4 °C 17,5 °C 9,7 km/h (2 Bft)
27.06.2023 01:27 24,4 °C 17,4 °C 60 % 77 % 1016,8 hPa 0,0 l/m² 4,4 km/h (1 Bft) W-NW 284 ° 0 min 0 W/m² 13,3 °C 17,4 °C 9,7 km/h (2 Bft)
27.06.2023 01:28 24,4 °C 17,4 °C 60 % 77 % 1016,7 hPa 0,0 l/m² 4,7 km/h (1 Bft) W 281 ° 0 min 0 W/m² 13,3 °C 17,4 °C 6,4 km/h (2 Bft)
27.06.2023 01:29 24,4 °C 17,4 °C 60 % 77 % 1016,7 hPa 0,0 l/m² 3,2 km/h (1 Bft) W 267 ° 0 min 0 W/m² 13,3 °C 17,4 °C 6,4 km/h (2 Bft)
27.06.2023 01:32 24,4 °C 17,3 °C 60 % 76 % 1016,8 hPa 0,0 l/m² 4,7 km/h (1 Bft) W-NW 292 ° 0 min 0 W/m² 13,0 °C 17,3 °C 9,7 km/h (2 Bft)
27.06.2023 01:33 24,4 °C 17,3 °C 60 % 76 % 1016,7 hPa 0,0 l/m² 3,4 km/h (1 Bft) W-NW 296 ° 0 min 0 W/m² 13,0 °C 17,3 °C 6,4 km/h (2 Bft)
27.06.2023 01:34 24,4 °C 17,3 °C 60 % 76 % 1016,8 hPa 0,0 l/m² 5,4 km/h (2 Bft) W-NW 302 ° 0 min 0 W/m² 13,0 °C 17,3 °C 9,7 km/h (2 Bft)
27.06.2023 01:35 24,4 °C 17,3 °C 60 % 76 % 1016,8 hPa 0,0 l/m² 6,0 km/h (2 Bft) W 264 ° 0 min 0 W/m² 13,0 °C 17,3 °C 11,3 km/h (2 Bft)
27.06.2023 01:36 24,4 °C 17,3 °C 60 % 76 % 1016,8 hPa 0,0 l/m² 5,3 km/h (1 Bft) W 271 ° 0 min 0 W/m² 13,0 °C 17,3 °C 9,7 km/h (2 Bft)
27.06.2023 01:37 24,4 °C 17,3 °C 60 % 75 % 1016,9 hPa 0,0 l/m² 7,2 km/h (2 Bft) W-NW 285 ° 0 min 0 W/m² 12,8 °C 16,9 °C 11,3 km/h (2 Bft)
27.06.2023 01:38 24,4 °C 17,3 °C 60 % 75 % 1016,9 hPa 0,0 l/m² 3,9 km/h (1 Bft) W 275 ° 0 min 0 W/m² 12,8 °C 17,3 °C 6,4 km/h (2 Bft)
27.06.2023 01:39 24,4 °C 17,2 °C 60 % 76 % 1016,8 hPa 0,0 l/m² 5,1 km/h (1 Bft) W-SW 253 ° 0 min 0 W/m² 12,9 °C 17,2 °C 9,7 km/h (2 Bft)
27.06.2023 01:42 24,4 °C 17,2 °C 60 % 75 % 1016,8 hPa 0,0 l/m² 4,6 km/h (1 Bft) W 267 ° 0 min 0 W/m² 12,7 °C 17,2 °C 9,7 km/h (2 Bft)
27.06.2023 01:43 24,4 °C 17,2 °C 60 % 76 % 1016,8 hPa 0,0 l/m² 4,9 km/h (1 Bft) W 271 ° 0 min 0 W/m² 12,9 °C 17,2 °C 8,0 km/h (2 Bft)
27.06.2023 01:44 24,4 °C 17,1 °C 60 % 76 % 1016,8 hPa 0,0 l/m² 4,6 km/h (1 Bft) W-NW 284 ° 0 min 0 W/m² 12,8 °C 17,1 °C 9,7 km/h (2 Bft)
27.06.2023 01:45 24,4 °C 17,1 °C 60 % 76 % 1016,8 hPa 0,0 l/m² 3,6 km/h (1 Bft) W-NW 288 ° 0 min 0 W/m² 12,8 °C 17,1 °C 4,8 km/h (1 Bft)
27.06.2023 01:46 24,4 °C 17,1 °C 60 % 76 % 1016,9 hPa 0,0 l/m² 5,0 km/h (1 Bft) W-SW 258 ° 0 min 0 W/m² 12,8 °C 17,1 °C 11,3 km/h (2 Bft)
27.06.2023 01:47 24,4 °C 17,1 °C 60 % 76 % 1016,8 hPa 0,0 l/m² 5,2 km/h (1 Bft) W-SW 242 ° 0 min 0 W/m² 12,8 °C 17,1 °C 9,7 km/h (2 Bft)
27.06.2023 01:48 24,4 °C 17,0 °C 60 % 76 % 1016,9 hPa 0,0 l/m² 4,1 km/h (1 Bft) W 270 ° 0 min 0 W/m² 12,7 °C 17,0 °C 4,8 km/h (1 Bft)
27.06.2023 01:49 24,4 °C 17,0 °C 60 % 76 % 1016,9 hPa 0,0 l/m² 5,6 km/h (2 Bft) W-SW 252 ° 0 min 0 W/m² 12,7 °C 17,0 °C 9,7 km/h (2 Bft)
27.06.2023 01:52 24,4 °C 16,8 °C 60 % 76 % 1016,9 hPa 0,0 l/m² 3,5 km/h (1 Bft) W 261 ° 0 min 0 W/m² 12,5 °C 16,8 °C 8,0 km/h (2 Bft)
27.06.2023 01:53 24,4 °C 16,8 °C 60 % 76 % 1016,9 hPa 0,0 l/m² 4,6 km/h (1 Bft) W-SW 254 ° 0 min 0 W/m² 12,5 °C 16,8 °C 8,0 km/h (2 Bft)
27.06.2023 01:54 24,3 °C 16,8 °C 60 % 76 % 1016,9 hPa 0,0 l/m² 3,0 km/h (1 Bft) W 261 ° 0 min 0 W/m² 12,5 °C 16,8 °C 4,8 km/h (1 Bft)
27.06.2023 01:55 24,4 °C 16,7 °C 60 % 76 % 1016,9 hPa 0,0 l/m² 3,2 km/h (1 Bft) W 267 ° 0 min 0 W/m² 12,4 °C 16,7 °C 6,4 km/h (2 Bft)
27.06.2023 01:56 24,4 °C 16,7 °C 60 % 76 % 1016,9 hPa 0,0 l/m² 3,1 km/h (1 Bft) W-NW 282 ° 0 min 0 W/m² 12,4 °C 16,7 °C 4,8 km/h (1 Bft)
27.06.2023 01:57 24,3 °C 16,7 °C 60 % 76 % 1016,8 hPa 0,0 l/m² 3,0 km/h (1 Bft) W-NW 282 ° 0 min 0 W/m² 12,4 °C 16,7 °C 4,8 km/h (1 Bft)
27.06.2023 01:58 24,3 °C 16,6 °C 60 % 77 % 1016,9 hPa 0,0 l/m² 3,1 km/h (1 Bft) W 280 ° 0 min 0 W/m² 12,5 °C 16,6 °C 4,8 km/h (1 Bft)
27.06.2023 01:59 24,4 °C 16,6 °C 60 % 77 % 1017,0 hPa 0,0 l/m² 3,7 km/h (1 Bft) W 273 ° 0 min 0 W/m² 12,5 °C 16,6 °C 4,8 km/h (1 Bft)
27.06.2023 02:02 24,4 °C 16,4 °C 60 % 77 % 1017,0 hPa 0,0 l/m² 2,9 km/h (1 Bft) W 273 ° 0 min 0 W/m² 12,4 °C 16,4 °C 6,4 km/h (2 Bft)
27.06.2023 02:03 24,4 °C 16,4 °C 60 % 77 % 1017,0 hPa 0,0 l/m² 2,8 km/h (1 Bft) W-NW 292 ° 0 min 0 W/m² 12,4 °C 16,4 °C 4,8 km/h (1 Bft)
27.06.2023 02:04 24,3 °C 16,4 °C 60 % 77 % 1017,1 hPa 0,0 l/m² 3,3 km/h (1 Bft) W-SW 238 ° 0 min 0 W/m² 12,4 °C 16,4 °C 4,8 km/h (1 Bft)
27.06.2023 02:05 24,4 °C 16,4 °C 60 % 77 % 1017,1 hPa 0,0 l/m² 3,6 km/h (1 Bft) W 268 ° 0 min 0 W/m² 12,4 °C 16,4 °C 6,4 km/h (2 Bft)
27.06.2023 02:06 24,4 °C 16,4 °C 60 % 77 % 1017,1 hPa 0,0 l/m² 3,9 km/h (1 Bft) W 269 ° 0 min 0 W/m² 12,4 °C 16,4 °C 6,4 km/h (2 Bft)
27.06.2023 02:07 24,3 °C 16,4 °C 60 % 77 % 1017,0 hPa 0,0 l/m² 3,1 km/h (1 Bft) W-NW 286 ° 0 min 0 W/m² 12,4 °C 16,4 °C 6,4 km/h (2 Bft)
27.06.2023 02:08 24,4 °C 16,4 °C 60 % 77 % 1017,1 hPa 0,0 l/m² 3,1 km/h (1 Bft) W 261 ° 0 min 0 W/m² 12,4 °C 16,4 °C 6,4 km/h (2 Bft)
27.06.2023 02:09 24,3 °C 16,4 °C 60 % 77 % 1017,1 hPa 0,0 l/m² 2,4 km/h (1 Bft) W-NW 286 ° 0 min 0 W/m² 12,4 °C 16,4 °C 4,8 km/h (1 Bft)
27.06.2023 02:12 24,4 °C 16,4 °C 60 % 78 % 1017,2 hPa 0,0 l/m² 4,6 km/h (1 Bft) W-NW 288 ° 0 min 0 W/m² 12,6 °C 16,4 °C 9,7 km/h (2 Bft)
27.06.2023 02:13 24,3 °C 16,3 °C 60 % 78 % 1017,2 hPa 0,0 l/m² 3,3 km/h (1 Bft) W 277 ° 0 min 0 W/m² 12,5 °C 16,3 °C 4,8 km/h (1 Bft)
27.06.2023 02:14 24,4 °C 16,3 °C 60 % 78 % 1017,3 hPa 0,0 l/m² 3,2 km/h (1 Bft) W-NW 289 ° 0 min 0 W/m² 12,5 °C 16,3 °C 4,8 km/h (1 Bft)
27.06.2023 02:15 24,3 °C 16,3 °C 60 % 78 % 1017,3 hPa 0,0 l/m² 3,5 km/h (1 Bft) W 277 ° 0 min 0 W/m² 12,5 °C 16,3 °C 4,8 km/h (1 Bft)
27.06.2023 02:16 24,3 °C 16,3 °C 60 % 78 % 1017,3 hPa 0,0 l/m² 3,7 km/h (1 Bft) W-NW 298 ° 0 min 0 W/m² 12,5 °C 16,3 °C 4,8 km/h (1 Bft)
27.06.2023 02:17 24,3 °C 16,3 °C 60 % 78 % 1017,3 hPa 0,0 l/m² 2,7 km/h (1 Bft) W 262 ° 0 min 0 W/m² 12,5 °C 16,3 °C 4,8 km/h (1 Bft)
27.06.2023 02:18 24,3 °C 16,3 °C 60 % 78 % 1017,3 hPa 0,0 l/m² 4,1 km/h (1 Bft) W-SW 239 ° 0 min 0 W/m² 12,5 °C 16,3 °C 6,4 km/h (2 Bft)
27.06.2023 02:19 24,4 °C 16,3 °C 60 % 78 % 1017,3 hPa 0,0 l/m² 5,2 km/h (1 Bft) W-NW 286 ° 0 min 0 W/m² 12,5 °C 16,3 °C 12,9 km/h (3 Bft)
27.06.2023 02:22 24,3 °C 16,3 °C 60 % 78 % 1017,3 hPa 0,0 l/m² 7,3 km/h (2 Bft) W-NW 300 ° 0 min 0 W/m² 12,5 °C 15,8 °C 16,1 km/h (3 Bft)
27.06.2023 02:23 24,3 °C 16,3 °C 60 % 77 % 1017,3 hPa 0,0 l/m² 8,6 km/h (2 Bft) W-NW 292 ° 0 min 0 W/m² 12,3 °C 15,2 °C 12,9 km/h (3 Bft)
27.06.2023 02:24 24,4 °C 16,3 °C 60 % 77 % 1017,3 hPa 0,0 l/m² 7,2 km/h (2 Bft) W-NW 292 ° 0 min 0 W/m² 12,3 °C 15,9 °C 12,9 km/h (3 Bft)
27.06.2023 02:25 24,3 °C 16,3 °C 60 % 77 % 1017,3 hPa 0,0 l/m² 8,5 km/h (2 Bft) W-SW 244 ° 0 min 0 W/m² 12,3 °C 15,2 °C 11,3 km/h (2 Bft)
27.06.2023 02:26 24,3 °C 16,3 °C 60 % 77 % 1017,3 hPa 0,0 l/m² 8,1 km/h (2 Bft) W 268 ° 0 min 0 W/m² 12,3 °C 15,4 °C 12,9 km/h (3 Bft)
27.06.2023 02:27 24,4 °C 16,3 °C 60 % 77 % 1017,3 hPa 0,0 l/m² 10,9 km/h (2 Bft) W 270 ° 0 min 0 W/m² 12,3 °C 14,2 °C 14,5 km/h (3 Bft)
27.06.2023 02:28 24,3 °C 16,3 °C 60 % 77 % 1017,3 hPa 0,0 l/m² 7,0 km/h (2 Bft) W 262 ° 0 min 0 W/m² 12,3 °C 16,0 °C 11,3 km/h (2 Bft)
27.06.2023 02:29 24,3 °C 16,3 °C 60 % 76 % 1017,4 hPa 0,0 l/m² 7,3 km/h (2 Bft) W 272 ° 0 min 0 W/m² 12,1 °C 15,8 °C 11,3 km/h (2 Bft)
27.06.2023 02:32 24,4 °C 16,3 °C 60 % 76 % 1017,3 hPa 0,0 l/m² 6,3 km/h (2 Bft) W-SW 257 ° 0 min 0 W/m² 12,1 °C 16,3 °C 11,3 km/h (2 Bft)
27.06.2023 02:33 24,3 °C 16,3 °C 60 % 77 % 1017,2 hPa 0,0 l/m² 6,9 km/h (2 Bft) W-NW 284 ° 0 min 0 W/m² 12,3 °C 16,0 °C 11,3 km/h (2 Bft)
27.06.2023 02:34 24,3 °C 16,3 °C 60 % 77 % 1017,4 hPa 0,0 l/m² 6,1 km/h (2 Bft) W 281 ° 0 min 0 W/m² 12,3 °C 16,3 °C 11,3 km/h (2 Bft)
27.06.2023 02:35 24,3 °C 16,3 °C 60 % 77 % 1017,3 hPa 0,0 l/m² 5,1 km/h (1 Bft) W 274 ° 0 min 0 W/m² 12,3 °C 16,3 °C 6,4 km/h (2 Bft)
27.06.2023 02:36 24,3 °C 16,2 °C 60 % 77 % 1017,3 hPa 0,0 l/m² 8,7 km/h (2 Bft) W 261 ° 0 min 0 W/m² 12,2 °C 15,0 °C 12,9 km/h (3 Bft)
27.06.2023 02:37 24,3 °C 16,2 °C 60 % 77 % 1017,3 hPa 0,0 l/m² 5,1 km/h (1 Bft) W-SW 254 ° 0 min 0 W/m² 12,2 °C 16,2 °C 11,3 km/h (2 Bft)
27.06.2023 02:38 24,3 °C 16,2 °C 60 % 77 % 1017,3 hPa 0,0 l/m² 8,0 km/h (2 Bft) W 281 ° 0 min 0 W/m² 12,2 °C 15,4 °C 11,3 km/h (2 Bft)
27.06.2023 02:39 24,3 °C 16,2 °C 60 % 77 % 1017,3 hPa 0,0 l/m² 6,9 km/h (2 Bft) W-SW 253 ° 0 min 0 W/m² 12,2 °C 15,9 °C 14,5 km/h (3 Bft)
27.06.2023 02:42 24,3 °C 16,1 °C 60 % 77 % 1017,3 hPa 0,0 l/m² 6,1 km/h (2 Bft) W-NW 294 ° 0 min 0 W/m² 12,1 °C 16,1 °C 11,3 km/h (2 Bft)
27.06.2023 02:43 24,3 °C 16,0 °C 60 % 77 % 1017,4 hPa 0,0 l/m² 6,6 km/h (2 Bft) W 274 ° 0 min 0 W/m² 12,0 °C 15,9 °C 11,3 km/h (2 Bft)
27.06.2023 02:44 24,3 °C 15,9 °C 60 % 77 % 1017,4 hPa 0,0 l/m² 5,5 km/h (2 Bft) NW 314 ° 0 min 0 W/m² 11,9 °C 15,9 °C 11,3 km/h (2 Bft)
27.06.2023 02:45 24,3 °C 15,9 °C 60 % 77 % 1017,4 hPa 0,0 l/m² 5,7 km/h (2 Bft) N-NW 332 ° 0 min 0 W/m² 11,9 °C 15,9 °C 9,7 km/h (2 Bft)
27.06.2023 02:46 24,3 °C 15,9 °C 60 % 77 % 1017,4 hPa 0,0 l/m² 5,9 km/h (2 Bft) W-SW 257 ° 0 min 0 W/m² 11,9 °C 15,9 °C 11,3 km/h (2 Bft)
27.06.2023 02:47 24,3 °C 15,8 °C 60 % 78 % 1017,4 hPa 0,0 l/m² 5,6 km/h (2 Bft) W 268 ° 0 min 0 W/m² 12,0 °C 15,8 °C 11,3 km/h (2 Bft)
27.06.2023 02:48 24,3 °C 15,8 °C 60 % 78 % 1017,4 hPa 0,0 l/m² 6,0 km/h (2 Bft) W 267 ° 0 min 0 W/m² 12,0 °C 15,8 °C 9,7 km/h (2 Bft)
27.06.2023 02:49 24,4 °C 15,8 °C 60 % 78 % 1017,3 hPa 0,0 l/m² 4,2 km/h (1 Bft) W-SW 250 ° 0 min 0 W/m² 12,0 °C 15,8 °C 9,7 km/h (2 Bft)
27.06.2023 02:50 24,3 °C 15,7 °C 60 % 78 % 1017,4 hPa 0,0 l/m² 4,0 km/h (1 Bft) W-SW 256 ° 0 min 0 W/m² 11,9 °C 15,7 °C 8,0 km/h (2 Bft)
27.06.2023 02:53 24,3 °C 15,6 °C 60 % 78 % 1017,4 hPa 0,0 l/m² 5,1 km/h (1 Bft) W 273 ° 0 min 0 W/m² 11,8 °C 15,6 °C 11,3 km/h (2 Bft)
27.06.2023 02:54 24,3 °C 15,5 °C 60 % 78 % 1017,4 hPa 0,0 l/m² 4,5 km/h (1 Bft) W 264 ° 0 min 0 W/m² 11,7 °C 15,5 °C 9,7 km/h (2 Bft)
27.06.2023 02:55 24,3 °C 15,4 °C 60 % 78 % 1017,5 hPa 0,0 l/m² 4,1 km/h (1 Bft) W-NW 289 ° 0 min 0 W/m² 11,6 °C 15,4 °C 6,4 km/h (2 Bft)
27.06.2023 02:56 24,3 °C 15,4 °C 60 % 79 % 1017,4 hPa 0,0 l/m² 2,6 km/h (1 Bft) W 264 ° 0 min 0 W/m² 11,8 °C 15,4 °C 4,8 km/h (1 Bft)
27.06.2023 02:57 24,3 °C 15,4 °C 60 % 79 % 1017,4 hPa 0,0 l/m² 3,9 km/h (1 Bft) W 273 ° 0 min 0 W/m² 11,8 °C 15,4 °C 6,4 km/h (2 Bft)
27.06.2023 02:58 24,3 °C 15,3 °C 60 % 79 % 1017,4 hPa 0,0 l/m² 4,8 km/h (1 Bft) W 261 ° 0 min 0 W/m² 11,7 °C 15,3 °C 11,3 km/h (2 Bft)
27.06.2023 02:59 24,3 °C 15,3 °C 60 % 79 % 1017,4 hPa 0,0 l/m² 2,1 km/h (1 Bft) W-SW 257 ° 0 min 0 W/m² 11,7 °C 15,3 °C 4,8 km/h (1 Bft)
27.06.2023 03:00 24,3 °C 15,2 °C 60 % 79 % 1017,4 hPa 0,0 l/m² 2,6 km/h (1 Bft) W 277 ° 0 min 0 W/m² 11,6 °C 15,2 °C 4,8 km/h (1 Bft)
27.06.2023 03:01 24,3 °C 15,1 °C 60 % 80 % 1017,4 hPa 0,0 l/m² 3,2 km/h (1 Bft) W 270 ° 0 min 0 W/m² 11,7 °C 15,1 °C 6,4 km/h (2 Bft)
27.06.2023 03:08 24,3 °C 14,9 °C 60 % 81 % 1017,5 hPa 0,0 l/m² 1,5 km/h (1 Bft) W 274 ° 0 min 0 W/m² 11,7 °C 14,9 °C 6,4 km/h (2 Bft)
27.06.2023 03:09 24,3 °C 14,9 °C 60 % 81 % 1017,6 hPa 0,0 l/m² 2,5 km/h (1 Bft) W-NW 283 ° 0 min 0 W/m² 11,7 °C 14,9 °C 4,8 km/h (1 Bft)
27.06.2023 03:10 24,3 °C 14,8 °C 60 % 81 % 1017,6 hPa 0,0 l/m² 2,5 km/h (1 Bft) W-NW 292 ° 0 min 0 W/m² 11,6 °C 14,8 °C 4,8 km/h (1 Bft)
27.06.2023 03:11 24,3 °C 14,8 °C 60 % 81 % 1017,6 hPa 0,0 l/m² 3,6 km/h (1 Bft) W 275 ° 0 min 0 W/m² 11,6 °C 14,8 °C 4,8 km/h (1 Bft)
27.06.2023 03:13 24,3 °C 14,7 °C 60 % 81 % 1017,6 hPa 0,0 l/m² 1,9 km/h (1 Bft) W 277 ° 0 min 0 W/m² 11,5 °C 14,7 °C 4,8 km/h (1 Bft)
27.06.2023 03:14 24,3 °C 14,7 °C 60 % 81 % 1017,5 hPa 0,0 l/m² 3,4 km/h (1 Bft) W-NW 288 ° 0 min 0 W/m² 11,5 °C 14,7 °C 4,8 km/h (1 Bft)
27.06.2023 03:16 24,3 °C 14,6 °C 60 % 82 % 1017,5 hPa 0,0 l/m² 2,6 km/h (1 Bft) W 281 ° 0 min 0 W/m² 11,6 °C 14,6 °C 4,8 km/h (1 Bft)
27.06.2023 03:18 24,3 °C 14,4 °C 60 % 82 % 1017,6 hPa 0,0 l/m² 2,5 km/h (1 Bft) W 260 ° 0 min 0 W/m² 11,4 °C 14,4 °C 4,8 km/h (1 Bft)
27.06.2023 03:20 24,3 °C 14,4 °C 60 % 83 % 1017,5 hPa 0,0 l/m² 1,6 km/h (1 Bft) W 269 ° 0 min 0 W/m² 11,5 °C 14,4 °C 4,8 km/h (1 Bft)
27.06.2023 03:21 24,3 °C 14,4 °C 60 % 82 % 1017,6 hPa 0,0 l/m² 1,9 km/h (1 Bft) W 265 ° 0 min 0 W/m² 11,4 °C 14,4 °C 4,8 km/h (1 Bft)
27.06.2023 03:22 24,3 °C 14,3 °C 60 % 83 % 1017,7 hPa 0,0 l/m² 1,0 km/h (0 Bft) W 265 ° 0 min 0 W/m² 11,5 °C 14,3 °C 1,6 km/h (1 Bft)
27.06.2023 03:24 24,3 °C 14,2 °C 60 % 83 % 1017,6 hPa 0,0 l/m² 1,4 km/h (1 Bft) W 275 ° 0 min 0 W/m² 11,4 °C 14,2 °C 4,8 km/h (1 Bft)
27.06.2023 03:26 24,3 °C 14,1 °C 60 % 83 % 1017,6 hPa 0,0 l/m² 0,0 km/h (0 Bft) W 275 ° 0 min 0 W/m² 11,3 °C 14,1 °C 0,0 km/h (0 Bft)
27.06.2023 03:28 24,3 °C 13,9 °C 60 % 84 % 1017,6 hPa 0,0 l/m² 0,6 km/h (0 Bft) W 269 ° 0 min 0 W/m² 11,2 °C 13,9 °C 3,2 km/h (1 Bft)
27.06.2023 03:30 24,3 °C 13,9 °C 60 % 84 % 1017,6 hPa 0,0 l/m² 2,0 km/h (1 Bft) W-NW 299 ° 0 min 0 W/m² 11,2 °C 13,9 °C 4,8 km/h (1 Bft)
27.06.2023 03:31 24,3 °C 13,9 °C 60 % 84 % 1017,6 hPa 0,0 l/m² 0,0 km/h (0 Bft) W-NW 303 ° 0 min 0 W/m² 11,2 °C 13,9 °C 0,0 km/h (0 Bft)
27.06.2023 03:32 24,3 °C 13,9 °C 60 % 84 % 1017,6 hPa 0,0 l/m² 1,7 km/h (1 Bft) N 9 ° 0 min 0 W/m² 11,2 °C 13,9 °C 4,8 km/h (1 Bft)
27.06.2023 03:34 24,3 °C 13,8 °C 60 % 84 % 1017,6 hPa 0,0 l/m² 1,1 km/h (1 Bft) W-NW 298 ° 0 min 0 W/m² 11,1 °C 13,8 °C 3,2 km/h (1 Bft)
27.06.2023 03:36 24,3 °C 13,8 °C 60 % 84 % 1017,5 hPa 0,0 l/m² 0,9 km/h (0 Bft) W-NW 298 ° 0 min 0 W/m² 11,1 °C 13,8 °C 3,2 km/h (1 Bft)
27.06.2023 03:38 24,3 °C 13,8 °C 60 % 84 % 1017,6 hPa 0,0 l/m² 1,2 km/h (1 Bft) W 277 ° 0 min 0 W/m² 11,1 °C 13,8 °C 3,2 km/h (1 Bft)
27.06.2023 03:40 24,3 °C 13,7 °C 60 % 84 % 1017,5 hPa 0,0 l/m² 2,0 km/h (1 Bft) NW 313 ° 0 min 0 W/m² 11,0 °C 13,7 °C 4,8 km/h (1 Bft)
27.06.2023 03:41 24,3 °C 13,8 °C 60 % 84 % 1017,5 hPa 0,0 l/m² 0,3 km/h (0 Bft) NW 308 ° 0 min 0 W/m² 11,1 °C 13,8 °C 1,6 km/h (1 Bft)
27.06.2023 03:43 24,3 °C 13,7 °C 60 % 84 % 1017,5 hPa 0,0 l/m² 0,2 km/h (0 Bft) NW 308 ° 0 min 0 W/m² 11,0 °C 13,7 °C 1,6 km/h (1 Bft)
27.06.2023 03:44 24,3 °C 13,7 °C 60 % 84 % 1017,6 hPa 0,0 l/m² 1,0 km/h (0 Bft) W-NW 293 ° 0 min 0 W/m² 11,0 °C 13,7 °C 3,2 km/h (1 Bft)
27.06.2023 03:47 24,3 °C 13,6 °C 60 % 84 % 1017,6 hPa 0,0 l/m² 0,8 km/h (0 Bft) W-NW 292 ° 0 min 0 W/m² 10,9 °C 13,6 °C 3,2 km/h (1 Bft)
27.06.2023 03:49 24,3 °C 13,6 °C 60 % 84 % 1017,6 hPa 0,0 l/m² 0,1 km/h (0 Bft) W-NW 293 ° 0 min 0 W/m² 10,9 °C 13,6 °C 1,6 km/h (1 Bft)
27.06.2023 03:50 24,3 °C 13,6 °C 60 % 85 % 1017,6 hPa 0,0 l/m² 0,1 km/h (0 Bft) W-NW 294 ° 0 min 0 W/m² 11,1 °C 13,6 °C 1,6 km/h (1 Bft)
27.06.2023 03:52 24,3 °C 13,5 °C 60 % 84 % 1017,6 hPa 0,0 l/m² 0,0 km/h (0 Bft) W-NW 294 ° 0 min 0 W/m² 10,8 °C 13,5 °C 0,0 km/h (0 Bft)
27.06.2023 03:53 24,3 °C 13,4 °C 60 % 85 % 1017,6 hPa 0,0 l/m² 0,3 km/h (0 Bft) W-NW 293 ° 0 min 0 W/m² 10,9 °C 13,4 °C 1,6 km/h (1 Bft)
27.06.2023 03:55 24,3 °C 13,4 °C 60 % 84 % 1017,6 hPa 0,0 l/m² 0,2 km/h (0 Bft) W-NW 293 ° 0 min 0 W/m² 10,8 °C 13,4 °C 1,6 km/h (1 Bft)
27.06.2023 03:57 24,3 °C 13,2 °C 60 % 84 % 1017,6 hPa 0,0 l/m² 0,0 km/h (0 Bft) W-NW 293 ° 0 min 0 W/m² 10,6 °C 13,2 °C 0,0 km/h (0 Bft)
27.06.2023 03:59 24,3 °C 13,1 °C 60 % 84 % 1017,5 hPa 0,0 l/m² 0,0 km/h (0 Bft) W-NW 293 ° 0 min 0 W/m² 10,5 °C 13,1 °C 0,0 km/h (0 Bft)
27.06.2023 04:01 24,3 °C 12,9 °C 60 % 85 % 1017,6 hPa 0,0 l/m² 0,0 km/h (0 Bft) W-NW 284 ° 0 min 0 W/m² 10,4 °C 12,9 °C 1,6 km/h (1 Bft)
27.06.2023 04:02 24,3 °C 12,8 °C 60 % 86 % 1017,5 hPa 0,0 l/m² 0,5 km/h (0 Bft) W-SW 258 ° 0 min 0 W/m² 10,5 °C 12,8 °C 3,2 km/h (1 Bft)
27.06.2023 04:03 24,3 °C 12,8 °C 60 % 86 % 1017,5 hPa 0,0 l/m² 0,3 km/h (0 Bft) W-SW 258 ° 0 min 0 W/m² 10,5 °C 12,8 °C 1,6 km/h (1 Bft)
27.06.2023 04:05 24,3 °C 12,7 °C 60 % 85 % 1017,6 hPa 0,0 l/m² 0,0 km/h (0 Bft) W-SW 258 ° 0 min 0 W/m² 10,2 °C 12,7 °C 0,0 km/h (0 Bft)
27.06.2023 04:07 24,3 °C 12,7 °C 60 % 86 % 1017,6 hPa 0,0 l/m² 0,0 km/h (0 Bft) W-SW 258 ° 0 min 0 W/m² 10,4 °C 12,7 °C 0,0 km/h (0 Bft)
27.06.2023 04:09 24,3 °C 12,7 °C 60 % 86 % 1017,6 hPa 0,0 l/m² 0,0 km/h (0 Bft) W-SW 258 ° 0 min 0 W/m² 10,4 °C 12,7 °C 0,0 km/h (0 Bft)
27.06.2023 04:11 24,3 °C 12,6 °C 60 % 86 % 1017,6 hPa 0,0 l/m² 0,0 km/h (0 Bft) W-SW 258 ° 0 min 0 W/m² 10,3 °C 12,6 °C 0,0 km/h (0 Bft)
27.06.2023 04:12 24,3 °C 12,6 °C 60 % 86 % 1017,6 hPa 0,0 l/m² 0,0 km/h (0 Bft) W-SW 258 ° 0 min 0 W/m² 10,3 °C 12,6 °C 0,0 km/h (0 Bft)
27.06.2023 04:13 24,3 °C 12,6 °C 60 % 87 % 1017,6 hPa 0,0 l/m² 0,0 km/h (0 Bft) W-SW 258 ° 0 min 0 W/m² 10,5 °C 12,6 °C 0,0 km/h (0 Bft)
27.06.2023 04:15 24,3 °C 12,6 °C 60 % 87 % 1017,7 hPa 0,0 l/m² 0,1 km/h (0 Bft) W-SW 258 ° 0 min 0 W/m² 10,5 °C 12,6 °C 1,6 km/h (1 Bft)
27.06.2023 04:17 24,3 °C 12,6 °C 60 % 87 % 1017,6 hPa 0,0 l/m² 0,0 km/h (0 Bft) W-SW 258 ° 0 min 0 W/m² 10,5 °C 12,6 °C 0,0 km/h (0 Bft)
27.06.2023 04:19 24,3 °C 12,6 °C 60 % 87 % 1017,7 hPa 0,0 l/m² 0,7 km/h (0 Bft) W-SW 258 ° 0 min 0 W/m² 10,5 °C 12,6 °C 3,2 km/h (1 Bft)
27.06.2023 04:21 24,3 °C 12,6 °C 60 % 87 % 1017,7 hPa 0,0 l/m² 0,0 km/h (0 Bft) W-SW 258 ° 0 min 0 W/m² 10,5 °C 12,6 °C 0,0 km/h (0 Bft)
27.06.2023 04:22 24,3 °C 12,6 °C 60 % 87 % 1017,7 hPa 0,0 l/m² 0,0 km/h (0 Bft) W-SW 258 ° 0 min 0 W/m² 10,5 °C 12,6 °C 0,0 km/h (0 Bft)
27.06.2023 04:23 24,3 °C 12,7 °C 60 % 87 % 1017,8 hPa 0,0 l/m² 0,0 km/h (0 Bft) W-SW 258 ° 0 min 0 W/m² 10,6 °C 12,7 °C 0,0 km/h (0 Bft)
27.06.2023 04:25 24,3 °C 12,6 °C 60 % 87 % 1017,8 hPa 0,0 l/m² 0,1 km/h (0 Bft) W-SW 258 ° 0 min 0 W/m² 10,5 °C 12,6 °C 1,6 km/h (1 Bft)
27.06.2023 04:27 24,3 °C 12,6 °C 60 % 87 % 1017,7 hPa 0,0 l/m² 0,5 km/h (0 Bft) W-SW 258 ° 0 min 0 W/m² 10,5 °C 12,6 °C 3,2 km/h (1 Bft)
27.06.2023 04:29 24,3 °C 12,6 °C 60 % 87 % 1017,8 hPa 0,0 l/m² 0,0 km/h (0 Bft) W-SW 258 ° 0 min 0 W/m² 10,5 °C 12,6 °C 0,0 km/h (0 Bft)
27.06.2023 04:31 24,3 °C 12,6 °C 60 % 87 % 1017,8 hPa 0,0 l/m² 2,2 km/h (1 Bft) W 265 ° 0 min 0 W/m² 10,5 °C 12,6 °C 4,8 km/h (1 Bft)
27.06.2023 04:32 24,3 °C 12,6 °C 60 % 87 % 1017,8 hPa 0,0 l/m² 2,0 km/h (1 Bft) W 270 ° 0 min 0 W/m² 10,5 °C 12,6 °C 4,8 km/h (1 Bft)
27.06.2023 04:33 24,3 °C 12,6 °C 60 % 87 % 1017,8 hPa 0,0 l/m² 2,1 km/h (1 Bft) W-SW 257 ° 0 min 0 W/m² 10,5 °C 12,6 °C 6,4 km/h (2 Bft)
27.06.2023 04:35 24,3 °C 12,6 °C 60 % 87 % 1017,9 hPa 0,0 l/m² 2,3 km/h (1 Bft) W 265 ° 0 min 0 W/m² 10,5 °C 12,6 °C 6,4 km/h (2 Bft)
27.06.2023 04:37 24,3 °C 12,7 °C 60 % 87 % 1017,8 hPa 0,0 l/m² 4,8 km/h (1 Bft) W 277 ° 0 min 0 W/m² 10,6 °C 12,7 °C 11,3 km/h (2 Bft)
27.06.2023 04:39 24,3 °C 13,0 °C 60 % 87 % 1017,8 hPa 0,0 l/m² 7,1 km/h (2 Bft) W-SW 254 ° 0 min 0 W/m² 10,9 °C 12,6 °C 14,5 km/h (3 Bft)
27.06.2023 04:41 24,3 °C 13,2 °C 60 % 87 % 1017,8 hPa 0,0 l/m² 4,9 km/h (1 Bft) W-NW 300 ° 0 min 0 W/m² 11,1 °C 13,2 °C 12,9 km/h (3 Bft)
27.06.2023 04:42 24,3 °C 13,4 °C 60 % 86 % 1017,9 hPa 0,0 l/m² 3,7 km/h (1 Bft) W-NW 297 ° 0 min 0 W/m² 11,1 °C 13,4 °C 9,7 km/h (2 Bft)
27.06.2023 04:43 24,3 °C 13,4 °C 60 % 86 % 1017,8 hPa 0,0 l/m² 3,2 km/h (1 Bft) NW 308 ° 0 min 0 W/m² 11,1 °C 13,4 °C 6,4 km/h (2 Bft)
27.06.2023 04:46 24,3 °C 13,7 °C 60 % 85 % 1017,8 hPa 0,0 l/m² 3,9 km/h (1 Bft) W 265 ° 0 min 0 W/m² 11,2 °C 13,7 °C 8,0 km/h (2 Bft)
27.06.2023 04:48 24,3 °C 13,8 °C 60 % 85 % 1017,8 hPa 0,0 l/m² 7,0 km/h (2 Bft) NW 319 ° 0 min 0 W/m² 11,3 °C 13,4 °C 16,1 km/h (3 Bft)
27.06.2023 04:50 24,3 °C 14,0 °C 60 % 84 % 1017,9 hPa 0,0 l/m² 8,0 km/h (2 Bft) W-NW 284 ° 0 min 0 W/m² 11,3 °C 13,1 °C 17,7 km/h (3 Bft)
27.06.2023 04:51 24,3 °C 14,1 °C 60 % 83 % 1017,8 hPa 0,0 l/m² 11,4 km/h (2 Bft) W 278 ° 0 min 0 W/m² 11,3 °C 11,5 °C 20,9 km/h (4 Bft)
27.06.2023 04:53 24,3 °C 14,2 °C 60 % 83 % 1018,0 hPa 0,0 l/m² 6,5 km/h (2 Bft) W-NW 294 ° 0 min 0 W/m² 11,4 °C 14,2 °C 14,5 km/h (3 Bft)
27.06.2023 04:54 24,3 °C 14,3 °C 60 % 83 % 1018,0 hPa 0,0 l/m² 8,0 km/h (2 Bft) W-NW 284 ° 0 min 0 W/m² 11,5 °C 13,4 °C 17,7 km/h (3 Bft)
27.06.2023 04:56 24,3 °C 14,3 °C 60 % 82 % 1017,9 hPa 0,0 l/m² 5,2 km/h (1 Bft) NW 304 ° 0 min 0 W/m² 11,3 °C 14,3 °C 14,5 km/h (3 Bft)
27.06.2023 04:58 24,3 °C 14,4 °C 60 % 82 % 1018,0 hPa 0,0 l/m² 6,4 km/h (2 Bft) W-NW 300 ° 0 min 5 W/m² 11,4 °C 14,4 °C 17,7 km/h (3 Bft)
27.06.2023 05:00 24,3 °C 14,4 °C 60 % 82 % 1018,0 hPa 0,0 l/m² 6,1 km/h (2 Bft) NW 312 ° 0 min 5 W/m² 11,4 °C 14,4 °C 14,5 km/h (3 Bft)
27.06.2023 05:01 24,3 °C 14,4 °C 60 % 82 % 1017,9 hPa 0,0 l/m² 3,2 km/h (1 Bft) W-SW 254 ° 0 min 5 W/m² 11,4 °C 14,4 °C 6,4 km/h (2 Bft)
27.06.2023 05:03 24,3 °C 14,4 °C 60 % 82 % 1017,9 hPa 0,0 l/m² 5,6 km/h (2 Bft) W-NW 284 ° 0 min 7 W/m² 11,4 °C 14,4 °C 11,3 km/h (2 Bft)
27.06.2023 05:04 24,3 °C 14,4 °C 60 % 82 % 1017,9 hPa 0,0 l/m² 6,6 km/h (2 Bft) NW 309 ° 0 min 7 W/m² 11,4 °C 14,3 °C 11,3 km/h (2 Bft)
27.06.2023 05:06 24,3 °C 14,3 °C 60 % 82 % 1017,9 hPa 0,0 l/m² 3,4 km/h (1 Bft) W-SW 249 ° 0 min 9 W/m² 11,3 °C 14,3 °C 9,7 km/h (2 Bft)
27.06.2023 05:08 24,3 °C 14,3 °C 60 % 82 % 1018,0 hPa 0,0 l/m² 2,0 km/h (1 Bft) W-NW 282 ° 0 min 9 W/m² 11,3 °C 14,3 °C 6,4 km/h (2 Bft)
27.06.2023 05:10 24,3 °C 14,2 °C 60 % 82 % 1018,0 hPa 0,0 l/m² 2,6 km/h (1 Bft) W-NW 302 ° 0 min 11 W/m² 11,2 °C 14,2 °C 6,4 km/h (2 Bft)
27.06.2023 05:11 24,3 °C 14,2 °C 60 % 82 % 1018,0 hPa 0,0 l/m² 2,0 km/h (1 Bft) W-NW 288 ° 0 min 11 W/m² 11,2 °C 14,2 °C 4,8 km/h (1 Bft)
27.06.2023 05:13 24,3 °C 14,2 °C 60 % 83 % 1017,9 hPa 0,0 l/m² 2,8 km/h (1 Bft) SW 235 ° 0 min 11 W/m² 11,4 °C 14,2 °C 6,4 km/h (2 Bft)
27.06.2023 05:14 24,3 °C 14,1 °C 60 % 83 % 1018,0 hPa 0,0 l/m² 2,7 km/h (1 Bft) W-NW 297 ° 0 min 11 W/m² 11,3 °C 14,1 °C 6,4 km/h (2 Bft)
27.06.2023 05:16 24,3 °C 14,1 °C 60 % 83 % 1018,0 hPa 0,0 l/m² 2,9 km/h (1 Bft) W-NW 296 ° 0 min 12 W/m² 11,3 °C 14,1 °C 9,7 km/h (2 Bft)
27.06.2023 05:18 24,3 °C 14,1 °C 60 % 83 % 1017,9 hPa 0,0 l/m² 4,1 km/h (1 Bft) W-NW 300 ° 0 min 12 W/m² 11,3 °C 14,1 °C 9,7 km/h (2 Bft)
27.06.2023 05:20 24,3 °C 14,1 °C 60 % 83 % 1018,0 hPa 0,0 l/m² 4,5 km/h (1 Bft) W 264 ° 0 min 14 W/m² 11,3 °C 14,1 °C 6,4 km/h (2 Bft)
27.06.2023 05:21 24,3 °C 14,1 °C 60 % 83 % 1018,0 hPa 0,0 l/m² 6,1 km/h (2 Bft) W-SW 250 ° 0 min 14 W/m² 11,3 °C 14,1 °C 14,5 km/h (3 Bft)
27.06.2023 05:23 24,3 °C 14,0 °C 60 % 83 % 1018,0 hPa 0,0 l/m² 5,8 km/h (2 Bft) W 280 ° 0 min 16 W/m² 11,2 °C 14,0 °C 11,3 km/h (2 Bft)
27.06.2023 05:25 24,3 °C 13,9 °C 60 % 83 % 1018,0 hPa 0,0 l/m² 3,7 km/h (1 Bft) W-NW 283 ° 0 min 18 W/m² 11,1 °C 13,9 °C 6,4 km/h (2 Bft)
27.06.2023 05:27 24,3 °C 13,8 °C 60 % 83 % 1018,0 hPa 0,0 l/m² 3,9 km/h (1 Bft) W 267 ° 0 min 19 W/m² 11,0 °C 13,8 °C 8,0 km/h (2 Bft)
27.06.2023 05:29 24,3 °C 13,7 °C 60 % 84 % 1018,0 hPa 0,0 l/m² 3,7 km/h (1 Bft) W 273 ° 0 min 19 W/m² 11,0 °C 13,7 °C 6,4 km/h (2 Bft)
27.06.2023 05:31 24,3 °C 13,6 °C 60 % 84 % 1018,0 hPa 0,0 l/m² 3,1 km/h (1 Bft) W-NW 298 ° 0 min 21 W/m² 10,9 °C 13,6 °C 6,4 km/h (2 Bft)
27.06.2023 05:33 24,3 °C 13,6 °C 60 % 84 % 1018,1 hPa 0,0 l/m² 2,3 km/h (1 Bft) W 274 ° 0 min 21 W/m² 10,9 °C 13,6 °C 4,8 km/h (1 Bft)
27.06.2023 05:35 24,3 °C 13,6 °C 60 % 84 % 1018,1 hPa 0,0 l/m² 3,8 km/h (1 Bft) W-NW 286 ° 0 min 23 W/m² 10,9 °C 13,6 °C 6,4 km/h (2 Bft)
27.06.2023 05:37 24,3 °C 13,6 °C 60 % 84 % 1018,1 hPa 0,0 l/m² 3,8 km/h (1 Bft) W 280 ° 0 min 23 W/m² 10,9 °C 13,6 °C 6,4 km/h (2 Bft)
27.06.2023 05:39 24,3 °C 13,6 °C 60 % 85 % 1018,1 hPa 0,0 l/m² 3,5 km/h (1 Bft) W-NW 296 ° 0 min 25 W/m² 11,1 °C 13,6 °C 6,4 km/h (2 Bft)
27.06.2023 05:41 24,3 °C 13,7 °C 60 % 84 % 1018,1 hPa 0,0 l/m² 3,8 km/h (1 Bft) W 281 ° 0 min 26 W/m² 11,0 °C 13,7 °C 6,4 km/h (2 Bft)
27.06.2023 05:43 24,2 °C 13,7 °C 60 % 85 % 1018,1 hPa 0,0 l/m² 2,9 km/h (1 Bft) W 274 ° 0 min 28 W/m² 11,2 °C 13,7 °C 6,4 km/h (2 Bft)
27.06.2023 05:45 24,2 °C 13,7 °C 60 % 84 % 1018,1 hPa 0,0 l/m² 1,5 km/h (1 Bft) W-NW 296 ° 0 min 32 W/m² 11,0 °C 13,7 °C 4,8 km/h (1 Bft)
27.06.2023 05:47 24,2 °C 13,7 °C 60 % 84 % 1018,1 hPa 0,0 l/m² 1,3 km/h (1 Bft) W 263 ° 0 min 37 W/m² 11,0 °C 13,7 °C 3,2 km/h (1 Bft)
27.06.2023 05:49 24,2 °C 13,7 °C 60 % 85 % 1018,1 hPa 0,0 l/m² 2,6 km/h (1 Bft) W-NW 287 ° 0 min 40 W/m² 11,2 °C 13,7 °C 6,4 km/h (2 Bft)
27.06.2023 05:51 24,2 °C 13,7 °C 60 % 85 % 1018,1 hPa 0,0 l/m² 1,2 km/h (1 Bft) W 267 ° 0 min 44 W/m² 11,2 °C 13,7 °C 3,2 km/h (1 Bft)
27.06.2023 05:53 24,2 °C 13,8 °C 60 % 84 % 1018,2 hPa 0,0 l/m² 1,6 km/h (1 Bft) W 267 ° 0 min 47 W/m² 11,1 °C 13,8 °C 4,8 km/h (1 Bft)
27.06.2023 05:55 24,2 °C 13,8 °C 60 % 84 % 1018,2 hPa 0,0 l/m² 0,8 km/h (0 Bft) W 262 ° 0 min 49 W/m² 11,1 °C 13,8 °C 3,2 km/h (1 Bft)
27.06.2023 05:57 24,2 °C 13,8 °C 60 % 84 % 1018,2 hPa 0,0 l/m² 2,1 km/h (1 Bft) W 275 ° 2 min 54 W/m² 11,1 °C 13,8 °C 3,2 km/h (1 Bft)
27.06.2023 05:59 24,2 °C 13,9 °C 60 % 84 % 1018,2 hPa 0,0 l/m² 2,2 km/h (1 Bft) W 269 ° 2 min 56 W/m² 11,2 °C 13,9 °C 4,8 km/h (1 Bft)
27.06.2023 06:01 24,2 °C 13,9 °C 60 % 84 % 1018,2 hPa 0,0 l/m² 1,2 km/h (1 Bft) W 261 ° 2 min 58 W/m² 11,2 °C 13,9 °C 3,2 km/h (1 Bft)
27.06.2023 06:03 24,2 °C 13,8 °C 60 % 84 % 1018,2 hPa 0,0 l/m² 2,6 km/h (1 Bft) W 263 ° 2 min 60 W/m² 11,1 °C 13,8 °C 6,4 km/h (2 Bft)
27.06.2023 06:05 24,2 °C 13,8 °C 60 % 85 % 1018,2 hPa 0,0 l/m² 1,8 km/h (1 Bft) W 263 ° 2 min 60 W/m² 11,3 °C 13,8 °C 4,8 km/h (1 Bft)
27.06.2023 06:07 24,2 °C 13,8 °C 60 % 85 % 1018,2 hPa 0,0 l/m² 2,7 km/h (1 Bft) W 273 ° 2 min 62 W/m² 11,3 °C 13,8 °C 4,8 km/h (1 Bft)
27.06.2023 06:09 24,2 °C 13,8 °C 60 % 85 % 1018,2 hPa 0,0 l/m² 2,7 km/h (1 Bft) W 267 ° 2 min 65 W/m² 11,3 °C 13,8 °C 4,8 km/h (1 Bft)
27.06.2023 06:11 24,2 °C 13,8 °C 60 % 85 % 1018,3 hPa 0,0 l/m² 2,2 km/h (1 Bft) W 269 ° 2 min 72 W/m² 11,3 °C 13,8 °C 6,4 km/h (2 Bft)
27.06.2023 06:13 24,2 °C 13,9 °C 60 % 85 % 1018,3 hPa 0,0 l/m² 2,7 km/h (1 Bft) W 260 ° 2 min 79 W/m² 11,4 °C 13,9 °C 4,8 km/h (1 Bft)
27.06.2023 06:15 24,2 °C 13,9 °C 60 % 85 % 1018,2 hPa 0,0 l/m² 3,8 km/h (1 Bft) W-SW 254 ° 2 min 81 W/m² 11,4 °C 13,9 °C 6,4 km/h (2 Bft)
27.06.2023 06:17 24,2 °C 14,1 °C 60 % 85 % 1018,2 hPa 0,0 l/m² 3,9 km/h (1 Bft) W 271 ° 2 min 84 W/m² 11,6 °C 14,1 °C 6,4 km/h (2 Bft)
27.06.2023 06:19 24,2 °C 14,1 °C 60 % 84 % 1018,3 hPa 0,0 l/m² 3,4 km/h (1 Bft) W 279 ° 2 min 90 W/m² 11,4 °C 14,1 °C 6,4 km/h (2 Bft)
27.06.2023 06:21 24,2 °C 14,2 °C 60 % 85 % 1018,3 hPa 0,0 l/m² 3,0 km/h (1 Bft) W 280 ° 2 min 97 W/m² 11,7 °C 14,2 °C 6,4 km/h (2 Bft)
27.06.2023 06:23 24,2 °C 14,2 °C 60 % 84 % 1018,3 hPa 0,0 l/m² 1,6 km/h (1 Bft) W-NW 284 ° 2 min 100 W/m² 11,5 °C 14,2 °C 4,8 km/h (1 Bft)
27.06.2023 06:25 24,2 °C 14,3 °C 60 % 84 % 1018,3 hPa 0,0 l/m² 3,5 km/h (1 Bft) W 267 ° 2 min 105 W/m² 11,6 °C 14,3 °C 6,4 km/h (2 Bft)
27.06.2023 06:27 24,2 °C 14,3 °C 60 % 84 % 1018,3 hPa 0,0 l/m² 3,4 km/h (1 Bft) W-NW 284 ° 2 min 111 W/m² 11,6 °C 14,3 °C 6,4 km/h (2 Bft)
27.06.2023 06:29 24,2 °C 14,5 °C 59 % 84 % 1018,3 hPa 0,0 l/m² 3,0 km/h (1 Bft) W-NW 301 ° 2 min 114 W/m² 11,8 °C 14,5 °C 6,4 km/h (2 Bft)
27.06.2023 06:31 24,2 °C 14,6 °C 58 % 84 % 1018,2 hPa 0,0 l/m² 2,2 km/h (1 Bft) W-SW 254 ° 2 min 120 W/m² 11,9 °C 14,6 °C 6,4 km/h (2 Bft)
27.06.2023 06:33 24,2 °C 14,6 °C 58 % 84 % 1018,2 hPa 0,0 l/m² 2,5 km/h (1 Bft) W-SW 254 ° 2 min 125 W/m² 11,9 °C 14,6 °C 4,8 km/h (1 Bft)
27.06.2023 06:35 24,2 °C 14,8 °C 57 % 83 % 1018,2 hPa 0,0 l/m² 3,6 km/h (1 Bft) W-SW 238 ° 2 min 130 W/m² 11,9 °C 14,8 °C 11,3 km/h (2 Bft)
27.06.2023 06:37 24,2 °C 14,8 °C 56 % 82 % 1018,2 hPa 0,0 l/m² 4,6 km/h (1 Bft) W-SW 252 ° 2 min 137 W/m² 11,8 °C 14,8 °C 9,7 km/h (2 Bft)
27.06.2023 06:39 24,1 °C 14,9 °C 55 % 82 % 1018,2 hPa 0,0 l/m² 2,7 km/h (1 Bft) W-SW 252 ° 2 min 142 W/m² 11,9 °C 14,9 °C 4,8 km/h (1 Bft)
27.06.2023 06:41 24,1 °C 15,1 °C 54 % 82 % 1018,2 hPa 0,0 l/m² 4,8 km/h (1 Bft) W-SW 252 ° 2 min 148 W/m² 12,0 °C 15,1 °C 11,3 km/h (2 Bft)
27.06.2023 06:43 24,1 °C 15,1 °C 54 % 81 % 1018,2 hPa 0,0 l/m² 4,2 km/h (1 Bft) W-SW 257 ° 2 min 156 W/m² 11,9 °C 15,1 °C 9,7 km/h (2 Bft)
27.06.2023 06:45 24,1 °C 15,2 °C 54 % 82 % 1018,2 hPa 0,0 l/m² 2,3 km/h (1 Bft) W-SW 257 ° 2 min 162 W/m² 12,1 °C 15,2 °C 6,4 km/h (2 Bft)
27.06.2023 06:47 24,1 °C 15,3 °C 54 % 81 % 1018,2 hPa 0,0 l/m² 4,0 km/h (1 Bft) W-SW 251 ° 2 min 167 W/m² 12,1 °C 15,3 °C 8,0 km/h (2 Bft)
27.06.2023 06:48 24,0 °C 15,3 °C 54 % 81 % 1018,2 hPa 0,0 l/m² 6,2 km/h (2 Bft) W 260 ° 1 min 171 W/m² 12,1 °C 15,3 °C 9,7 km/h (2 Bft)
27.06.2023 06:50 24,0 °C 15,4 °C 54 % 81 % 1018,2 hPa 0,0 l/m² 3,7 km/h (1 Bft) W-NW 292 ° 2 min 179 W/m² 12,2 °C 15,4 °C 9,7 km/h (2 Bft)
27.06.2023 06:52 24,0 °C 15,4 °C 54 % 81 % 1018,3 hPa 0,0 l/m² 2,2 km/h (1 Bft) W-NW 288 ° 2 min 186 W/m² 12,2 °C 15,4 °C 9,7 km/h (2 Bft)
27.06.2023 06:54 24,0 °C 15,6 °C 54 % 80 % 1018,2 hPa 0,0 l/m² 4,7 km/h (1 Bft) W-NW 294 ° 2 min 190 W/m² 12,2 °C 15,6 °C 6,4 km/h (2 Bft)
27.06.2023 06:56 24,0 °C 15,7 °C 53 % 80 % 1018,2 hPa 0,0 l/m² 4,6 km/h (1 Bft) W 279 ° 2 min 197 W/m² 12,3 °C 15,7 °C 9,7 km/h (2 Bft)
27.06.2023 06:58 23,9 °C 15,8 °C 53 % 79 % 1018,3 hPa 0,0 l/m² 5,0 km/h (1 Bft) W-SW 244 ° 2 min 197 W/m² 12,2 °C 15,8 °C 11,3 km/h (2 Bft)
27.06.2023 07:00 24,0 °C 15,9 °C 53 % 79 % 1018,4 hPa 0,0 l/m² 8,7 km/h (2 Bft) W 269 ° 2 min 197 W/m² 12,3 °C 14,7 °C 14,5 km/h (3 Bft)
27.06.2023 07:01 23,9 °C 15,9 °C 53 % 78 % 1018,3 hPa 0,0 l/m² 9,3 km/h (2 Bft) W 280 ° 1 min 195 W/m² 12,1 °C 14,4 °C 14,5 km/h (3 Bft)
27.06.2023 07:03 23,9 °C 16,0 °C 53 % 78 % 1018,3 hPa 0,0 l/m² 10,7 km/h (2 Bft) W 265 ° 2 min 192 W/m² 12,2 °C 13,9 °C 17,7 km/h (3 Bft)
27.06.2023 07:05 23,9 °C 16,2 °C 54 % 78 % 1018,3 hPa 0,0 l/m² 4,4 km/h (1 Bft) W 259 ° 2 min 192 W/m² 12,4 °C 16,2 °C 6,4 km/h (2 Bft)
27.06.2023 07:07 23,9 °C 16,2 °C 54 % 78 % 1018,3 hPa 0,0 l/m² 10,7 km/h (2 Bft) W-SW 257 ° 2 min 193 W/m² 12,4 °C 14,2 °C 16,1 km/h (3 Bft)
27.06.2023 07:09 23,9 °C 16,2 °C 54 % 77 % 1018,3 hPa 0,0 l/m² 10,7 km/h (2 Bft) W 265 ° 2 min 199 W/m² 12,2 °C 14,2 °C 17,7 km/h (3 Bft)
27.06.2023 07:11 23,9 °C 16,3 °C 54 % 77 % 1018,3 hPa 0,0 l/m² 7,9 km/h (2 Bft) W-SW 248 ° 2 min 183 W/m² 12,3 °C 15,5 °C 14,5 km/h (3 Bft)
27.06.2023 07:13 23,9 °C 16,4 °C 54 % 77 % 1018,3 hPa 0,0 l/m² 8,0 km/h (2 Bft) W-SW 253 ° 2 min 65 W/m² 12,4 °C 15,6 °C 12,9 km/h (3 Bft)
27.06.2023 07:14 23,9 °C 16,4 °C 54 % 77 % 1018,2 hPa 0,0 l/m² 13,5 km/h (3 Bft) SW 230 ° 1 min 63 W/m² 12,4 °C 13,4 °C 17,7 km/h (3 Bft)
27.06.2023 07:15 23,9 °C 16,4 °C 54 % 77 % 1018,2 hPa 0,0 l/m² 7,7 km/h (2 Bft) W-SW 251 ° 1 min 63 W/m² 12,4 °C 15,7 °C 12,9 km/h (3 Bft)
27.06.2023 07:17 23,9 °C 16,5 °C 54 % 77 % 1018,3 hPa 0,0 l/m² 9,3 km/h (2 Bft) NW 304 ° 2 min 95 W/m² 12,5 °C 15,1 °C 16,1 km/h (3 Bft)
27.06.2023 07:19 23,9 °C 16,5 °C 54 % 76 % 1018,3 hPa 0,0 l/m² 10,0 km/h (2 Bft) W-SW 240 ° 2 min 221 W/m² 12,3 °C 14,8 °C 16,1 km/h (3 Bft)
27.06.2023 07:21 23,9 °C 16,6 °C 54 % 77 % 1018,3 hPa 0,0 l/m² 4,9 km/h (1 Bft) W 263 ° 2 min 265 W/m² 12,5 °C 16,6 °C 11,3 km/h (2 Bft)
27.06.2023 07:23 23,9 °C 16,7 °C 54 % 76 % 1018,3 hPa 0,0 l/m² 5,6 km/h (2 Bft) W-NW 294 ° 2 min 274 W/m² 12,4 °C 16,7 °C 12,9 km/h (3 Bft)
27.06.2023 07:25 23,9 °C 16,7 °C 54 % 75 % 1018,4 hPa 0,0 l/m² 7,7 km/h (2 Bft) W-SW 241 ° 2 min 279 W/m² 12,2 °C 16,0 °C 14,5 km/h (3 Bft)
27.06.2023 07:26 23,9 °C 16,8 °C 54 % 76 % 1018,3 hPa 0,0 l/m² 7,2 km/h (2 Bft) W-SW 251 ° 1 min 281 W/m² 12,5 °C 16,4 °C 11,3 km/h (2 Bft)
27.06.2023 07:27 23,9 °C 16,8 °C 54 % 76 % 1018,3 hPa 0,0 l/m² 8,0 km/h (2 Bft) W-NW 290 ° 1 min 287 W/m² 12,5 °C 16,0 °C 14,5 km/h (3 Bft)
27.06.2023 07:29 23,9 °C 16,8 °C 54 % 75 % 1018,4 hPa 0,0 l/m² 11,4 km/h (2 Bft) W-SW 246 ° 2 min 285 W/m² 12,3 °C 14,6 °C 19,3 km/h (3 Bft)
27.06.2023 07:31 23,9 °C 16,8 °C 54 % 74 % 1018,3 hPa 0,0 l/m² 12,2 km/h (2 Bft) W 261 ° 2 min 239 W/m² 12,1 °C 14,3 °C 17,7 km/h (3 Bft)
27.06.2023 07:33 23,9 °C 16,9 °C 54 % 74 % 1018,3 hPa 0,0 l/m² 12,3 km/h (2 Bft) W-SW 258 ° 2 min 301 W/m² 12,2 °C 14,4 °C 19,3 km/h (3 Bft)
27.06.2023 07:35 23,9 °C 16,8 °C 54 % 73 % 1018,4 hPa 0,0 l/m² 12,8 km/h (3 Bft) W 259 ° 2 min 302 W/m² 11,9 °C 14,1 °C 20,9 km/h (4 Bft)
27.06.2023 07:37 23,9 °C 16,9 °C 55 % 73 % 1018,3 hPa 0,0 l/m² 10,5 km/h (2 Bft) W-SW 257 ° 2 min 316 W/m² 12,0 °C 15,0 °C 16,1 km/h (3 Bft)
27.06.2023 07:39 23,9 °C 17,0 °C 55 % 73 % 1018,3 hPa 0,0 l/m² 9,8 km/h (2 Bft) SW 219 ° 2 min 318 W/m² 12,1 °C 15,4 °C 16,1 km/h (3 Bft)
27.06.2023 07:41 23,9 °C 17,1 °C 55 % 72 % 1018,3 hPa 0,0 l/m² 11,3 km/h (2 Bft) W 263 ° 2 min 325 W/m² 12,0 °C 14,9 °C 22,5 km/h (4 Bft)
27.06.2023 07:43 23,9 °C 17,2 °C 55 % 72 % 1018,3 hPa 0,0 l/m² 8,8 km/h (2 Bft) W-NW 284 ° 2 min 329 W/m² 12,1 °C 16,0 °C 14,5 km/h (3 Bft)
27.06.2023 07:45 23,9 °C 17,3 °C 55 % 72 % 1018,3 hPa 0,0 l/m² 8,4 km/h (2 Bft) W-NW 285 ° 2 min 323 W/m² 12,2 °C 16,3 °C 14,5 km/h (3 Bft)
27.06.2023 07:47 23,9 °C 17,3 °C 55 % 71 % 1018,3 hPa 0,0 l/m² 9,4 km/h (2 Bft) W-SW 249 ° 2 min 320 W/m² 12,0 °C 15,9 °C 16,1 km/h (3 Bft)
27.06.2023 07:49 23,9 °C 17,3 °C 55 % 71 % 1018,3 hPa 0,0 l/m² 9,8 km/h (2 Bft) W-SW 251 ° 2 min 311 W/m² 12,0 °C 15,7 °C 16,1 km/h (3 Bft)
27.06.2023 07:51 23,9 °C 17,4 °C 55 % 69 % 1018,4 hPa 0,0 l/m² 11,5 km/h (2 Bft) W 261 ° 2 min 306 W/m² 11,7 °C 15,2 °C 19,3 km/h (3 Bft)
27.06.2023 07:53 23,9 °C 17,4 °C 55 % 68 % 1018,5 hPa 0,0 l/m² 12,1 km/h (2 Bft) W-NW 282 ° 2 min 309 W/m² 11,4 °C 15,0 °C 22,5 km/h (4 Bft)
27.06.2023 07:55 23,9 °C 17,4 °C 55 % 68 % 1018,5 hPa 0,0 l/m² 9,9 km/h (2 Bft) W 269 ° 2 min 327 W/m² 11,4 °C 15,8 °C 19,3 km/h (3 Bft)
27.06.2023 07:57 23,9 °C 17,4 °C 55 % 67 % 1018,5 hPa 0,0 l/m² 13,5 km/h (3 Bft) W-NW 284 ° 2 min 345 W/m² 11,2 °C 14,5 °C 20,9 km/h (4 Bft)
27.06.2023 07:59 23,9 °C 17,3 °C 55 % 68 % 1018,5 hPa 0,0 l/m² 14,4 km/h (3 Bft) SW 236 ° 2 min 366 W/m² 11,3 °C 14,2 °C 25,7 km/h (4 Bft)
27.06.2023 08:01 23,9 °C 17,4 °C 55 % 67 % 1018,5 hPa 0,0 l/m² 13,9 km/h (3 Bft) W-SW 251 ° 2 min 380 W/m² 11,2 °C 14,4 °C 22,5 km/h (4 Bft)
27.06.2023 08:03 24,0 °C 17,4 °C 55 % 67 % 1018,5 hPa 0,0 l/m² 14,6 km/h (3 Bft) W-SW 237 ° 2 min 387 W/m² 11,2 °C 14,2 °C 22,5 km/h (4 Bft)
27.06.2023 08:05 23,9 °C 17,4 °C 56 % 67 % 1018,5 hPa 0,0 l/m² 11,4 km/h (2 Bft) W 273 ° 2 min 408 W/m² 11,2 °C 15,2 °C 19,3 km/h (3 Bft)
27.06.2023 08:07 23,9 °C 17,6 °C 56 % 68 % 1018,6 hPa 0,0 l/m² 9,7 km/h (2 Bft) SW 236 ° 2 min 418 W/m² 11,6 °C 16,1 °C 16,1 km/h (3 Bft)
27.06.2023 08:09 23,9 °C 17,7 °C 56 % 66 % 1018,6 hPa 0,0 l/m² 12,8 km/h (3 Bft) W 267 ° 2 min 83 W/m² 11,3 °C 15,1 °C 20,9 km/h (4 Bft)
27.06.2023 08:11 23,9 °C 17,6 °C 56 % 66 % 1018,5 hPa 0,0 l/m² 9,5 km/h (2 Bft) SW 234 ° 2 min 418 W/m² 11,2 °C 16,2 °C 17,7 km/h (3 Bft)
27.06.2023 08:13 23,9 °C 17,6 °C 56 % 66 % 1018,6 hPa 0,0 l/m² 14,9 km/h (3 Bft) SW 224 ° 2 min 422 W/m² 11,2 °C 14,4 °C 22,5 km/h (4 Bft)
27.06.2023 08:15 24,0 °C 17,6 °C 56 % 66 % 1018,5 hPa 0,0 l/m² 11,0 km/h (2 Bft) W-SW 257 ° 2 min 422 W/m² 11,2 °C 15,6 °C 20,9 km/h (4 Bft)
27.06.2023 08:17 23,9 °C 17,7 °C 56 % 65 % 1018,5 hPa 0,0 l/m² 14,4 km/h (3 Bft) W 274 ° 2 min 422 W/m² 11,0 °C 14,6 °C 20,9 km/h (4 Bft)
27.06.2023 08:19 23,9 °C 17,7 °C 56 % 63 % 1018,5 hPa 0,0 l/m² 16,1 km/h (3 Bft) W 260 ° 2 min 424 W/m² 10,6 °C 14,2 °C 25,7 km/h (4 Bft)
27.06.2023 08:21 23,9 °C 17,7 °C 56 % 63 % 1018,6 hPa 0,0 l/m² 15,0 km/h (3 Bft) W-SW 242 ° 2 min 413 W/m² 10,6 °C 14,5 °C 24,1 km/h (4 Bft)
27.06.2023 08:23 23,9 °C 17,8 °C 56 % 64 % 1018,6 hPa 0,0 l/m² 12,2 km/h (2 Bft) W-SW 246 ° 2 min 415 W/m² 10,9 °C 15,4 °C 20,9 km/h (4 Bft)
27.06.2023 08:25 23,9 °C 17,9 °C 56 % 64 % 1018,6 hPa 0,0 l/m² 11,3 km/h (2 Bft) SW 230 ° 2 min 420 W/m² 11,0 °C 15,8 °C 20,9 km/h (4 Bft)
27.06.2023 08:27 24,0 °C 18,0 °C 56 % 62 % 1018,6 hPa 0,0 l/m² 13,9 km/h (3 Bft) W 279 ° 2 min 408 W/m² 10,6 °C 15,1 °C 19,3 km/h (3 Bft)
27.06.2023 08:29 23,9 °C 17,9 °C 56 % 62 % 1018,5 hPa 0,0 l/m² 15,5 km/h (3 Bft) NW 316 ° 2 min 392 W/m² 10,5 °C 14,6 °C 27,4 km/h (5 Bft)
27.06.2023 08:31 24,0 °C 18,0 °C 56 % 61 % 1018,6 hPa 0,0 l/m² 15,5 km/h (3 Bft) W 269 ° 2 min 385 W/m² 10,4 °C 14,7 °C 22,5 km/h (4 Bft)
27.06.2023 08:33 23,9 °C 18,0 °C 56 % 62 % 1018,6 hPa 0,0 l/m² 12,4 km/h (2 Bft) W-NW 302 ° 2 min 383 W/m² 10,6 °C 15,6 °C 25,7 km/h (4 Bft)
27.06.2023 08:35 24,0 °C 18,3 °C 56 % 62 % 1018,5 hPa 0,0 l/m² 9,1 km/h (2 Bft) W-NW 286 ° 2 min 380 W/m² 10,9 °C 17,1 °C 19,3 km/h (3 Bft)
27.06.2023 08:37 24,0 °C 18,3 °C 56 % 61 % 1018,5 hPa 0,0 l/m² 9,7 km/h (2 Bft) NW 306 ° 2 min 381 W/m² 10,6 °C 16,9 °C 19,3 km/h (3 Bft)
27.06.2023 08:39 24,0 °C 18,4 °C 56 % 60 % 1018,4 hPa 0,0 l/m² 10,1 km/h (2 Bft) W 280 ° 2 min 383 W/m² 10,5 °C 16,8 °C 17,7 km/h (3 Bft)
27.06.2023 08:41 23,9 °C 18,6 °C 56 % 60 % 1018,5 hPa 0,0 l/m² 10,0 km/h (2 Bft) N 351 ° 2 min 397 W/m² 10,7 °C 17,1 °C 19,3 km/h (3 Bft)
27.06.2023 08:43 24,0 °C 18,6 °C 56 % 60 % 1018,6 hPa 0,0 l/m² 11,4 km/h (2 Bft) W 276 ° 2 min 396 W/m² 10,7 °C 16,6 °C 20,9 km/h (4 Bft)
27.06.2023 08:45 24,0 °C 18,5 °C 56 % 58 % 1018,5 hPa 0,0 l/m² 14,8 km/h (3 Bft) W-SW 242 ° 2 min 388 W/m² 10,1 °C 15,5 °C 22,5 km/h (4 Bft)
27.06.2023 08:47 24,0 °C 18,4 °C 56 % 58 % 1018,5 hPa 0,0 l/m² 14,5 km/h (3 Bft) W 280 ° 2 min 399 W/m² 10,0 °C 15,4 °C 24,1 km/h (4 Bft)
27.06.2023 08:49 24,0 °C 18,4 °C 56 % 59 % 1018,5 hPa 0,0 l/m² 13,2 km/h (3 Bft) W 265 ° 2 min 411 W/m² 10,2 °C 15,8 °C 20,9 km/h (4 Bft)
27.06.2023 08:51 24,0 °C 18,5 °C 56 % 59 % 1018,4 hPa 0,0 l/m² 12,9 km/h (3 Bft) NW 313 ° 2 min 429 W/m² 10,3 °C 16,0 °C 22,5 km/h (4 Bft)
27.06.2023 08:53 24,0 °C 18,7 °C 56 % 59 % 1018,4 hPa 0,0 l/m² 8,5 km/h (2 Bft) NW 326 ° 2 min 446 W/m² 10,5 °C 17,8 °C 17,7 km/h (3 Bft)
27.06.2023 08:55 24,0 °C 18,8 °C 56 % 59 % 1018,4 hPa 0,0 l/m² 12,5 km/h (2 Bft) W-NW 282 ° 2 min 468 W/m² 10,6 °C 16,5 °C 19,3 km/h (3 Bft)
27.06.2023 08:57 24,0 °C 19,0 °C 56 % 57 % 1018,4 hPa 0,0 l/m² 10,8 km/h (2 Bft) W 265 ° 2 min 489 W/m² 10,3 °C 17,3 °C 22,5 km/h (4 Bft)
27.06.2023 08:59 24,0 °C 18,9 °C 56 % 56 % 1018,4 hPa 0,0 l/m² 19,6 km/h (3 Bft) W-NW 291 ° 2 min 526 W/m² 9,9 °C 14,9 °C 27,4 km/h (5 Bft)
27.06.2023 09:01 24,0 °C 18,9 °C 56 % 58 % 1018,3 hPa 0,0 l/m² 19,8 km/h (3 Bft) W-NW 299 ° 2 min 524 W/m² 10,5 °C 14,8 °C 29,0 km/h (5 Bft)
27.06.2023 09:03 24,0 °C 18,9 °C 56 % 57 % 1018,3 hPa 0,0 l/m² 16,2 km/h (3 Bft) NW 318 ° 2 min 533 W/m² 10,2 °C 15,6 °C 27,4 km/h (5 Bft)
27.06.2023 09:05 24,0 °C 18,9 °C 56 % 57 % 1018,4 hPa 0,0 l/m² 14,1 km/h (3 Bft) NW 310 ° 2 min 557 W/m² 10,2 °C 16,2 °C 27,4 km/h (5 Bft)
27.06.2023 09:07 24,0 °C 19,0 °C 56 % 58 % 1018,3 hPa 0,0 l/m² 12,0 km/h (2 Bft) N-NW 342 ° 2 min 589 W/m² 10,5 °C 16,9 °C 24,1 km/h (4 Bft)
27.06.2023 09:09 24,0 °C 19,2 °C 56 % 58 % 1018,2 hPa 0,0 l/m² 14,4 km/h (3 Bft) NW 316 ° 2 min 612 W/m² 10,7 °C 16,4 °C 27,4 km/h (5 Bft)
27.06.2023 09:11 24,0 °C 19,1 °C 56 % 57 % 1018,3 hPa 0,0 l/m² 14,0 km/h (3 Bft) W-NW 286 ° 2 min 626 W/m² 10,4 °C 16,4 °C 20,9 km/h (4 Bft)
27.06.2023 09:13 24,0 °C 19,1 °C 56 % 58 % 1018,4 hPa 0,0 l/m² 16,3 km/h (3 Bft) W 259 ° 2 min 640 W/m² 10,6 °C 15,8 °C 22,5 km/h (4 Bft)
27.06.2023 09:15 24,0 °C 19,2 °C 56 % 58 % 1018,4 hPa 0,0 l/m² 18,3 km/h (3 Bft) W-NW 298 ° 2 min 657 W/m² 10,7 °C 15,5 °C 29,0 km/h (5 Bft)
27.06.2023 09:17 24,0 °C 19,1 °C 56 % 57 % 1018,4 hPa 0,0 l/m² 17,1 km/h (3 Bft) W-NW 284 ° 2 min 178 W/m² 10,4 °C 15,7 °C 24,1 km/h (4 Bft)
27.06.2023 09:19 24,0 °C 18,9 °C 56 % 59 % 1018,3 hPa 0,0 l/m² 15,5 km/h (3 Bft) W-NW 294 ° 2 min 710 W/m² 10,7 °C 15,8 °C 25,7 km/h (4 Bft)
27.06.2023 09:21 24,0 °C 19,0 °C 57 % 59 % 1018,3 hPa 0,0 l/m² 12,1 km/h (2 Bft) W-NW 292 ° 2 min 735 W/m² 10,8 °C 16,8 °C 22,5 km/h (4 Bft)
27.06.2023 09:23 24,0 °C 19,3 °C 57 % 59 % 1018,2 hPa 0,0 l/m² 14,5 km/h (3 Bft) W 259 ° 2 min 759 W/m² 11,1 °C 16,5 °C 25,7 km/h (4 Bft)
27.06.2023 09:25 24,0 °C 19,3 °C 57 % 59 % 1018,3 hPa 0,0 l/m² 10,5 km/h (2 Bft) SW 232 ° 2 min 216 W/m² 11,1 °C 17,7 °C 27,4 km/h (5 Bft)
27.06.2023 09:27 24,0 °C 19,2 °C 57 % 58 % 1018,2 hPa 0,0 l/m² 16,1 km/h (3 Bft) W 268 ° 2 min 172 W/m² 10,7 °C 16,0 °C 27,4 km/h (5 Bft)
27.06.2023 09:29 24,0 °C 18,8 °C 57 % 59 % 1018,3 hPa 0,0 l/m² 15,5 km/h (3 Bft) W-SW 255 ° 2 min 202 W/m² 10,6 °C 15,7 °C 29,0 km/h (5 Bft)
27.06.2023 09:31 24,0 °C 18,9 °C 57 % 58 % 1018,4 hPa 0,0 l/m² 17,2 km/h (3 Bft) W 266 ° 2 min 765 W/m² 10,5 °C 15,4 °C 30,6 km/h (5 Bft)
27.06.2023 09:33 24,0 °C 18,8 °C 57 % 59 % 1018,3 hPa 0,0 l/m² 16,5 km/h (3 Bft) W 279 ° 2 min 132 W/m² 10,6 °C 15,4 °C 29,0 km/h (5 Bft)
27.06.2023 09:35 24,0 °C 18,8 °C 57 % 59 % 1018,3 hPa 0,0 l/m² 17,3 km/h (3 Bft) W 275 ° 2 min 127 W/m² 10,6 °C 15,2 °C 27,4 km/h (5 Bft)
27.06.2023 09:37 24,0 °C 18,5 °C 57 % 59 % 1018,3 hPa 0,0 l/m² 17,5 km/h (3 Bft) W 265 ° 2 min 144 W/m² 10,3 °C 14,8 °C 27,4 km/h (5 Bft)
27.06.2023 09:39 24,0 °C 18,8 °C 57 % 59 % 1018,3 hPa 0,0 l/m² 15,8 km/h (3 Bft) W-SW 256 ° 2 min 782 W/m² 10,6 °C 15,6 °C 25,7 km/h (4 Bft)
27.06.2023 09:41 24,0 °C 19,3 °C 57 % 59 % 1018,2 hPa 0,0 l/m² 12,9 km/h (3 Bft) NW 307 ° 2 min 807 W/m² 11,1 °C 17,0 °C 22,5 km/h (4 Bft)
27.06.2023 09:43 24,0 °C 19,6 °C 57 % 59 % 1018,2 hPa 0,0 l/m² 10,2 km/h (2 Bft) W 260 ° 2 min 795 W/m² 11,4 °C 18,1 °C 17,7 km/h (3 Bft)
27.06.2023 09:45 24,0 °C 19,7 °C 57 % 59 % 1018,1 hPa 0,0 l/m² 11,4 km/h (2 Bft) SW 230 ° 2 min 190 W/m² 11,5 °C 17,9 °C 19,3 km/h (3 Bft)
27.06.2023 09:47 24,0 °C 19,7 °C 57 % 58 % 1018,0 hPa 0,0 l/m² 11,9 km/h (2 Bft) NW 307 ° 2 min 174 W/m² 11,2 °C 17,7 °C 20,9 km/h (4 Bft)
27.06.2023 09:48 24,0 °C 19,6 °C 57 % 57 % 1018,0 hPa 0,0 l/m² 16,1 km/h (3 Bft) W-SW 254 ° 1 min 782 W/m² 10,8 °C 16,5 °C 20,9 km/h (4 Bft)
27.06.2023 09:50 24,0 °C 19,3 °C 57 % 58 % 1018,0 hPa 0,0 l/m² 15,6 km/h (3 Bft) W 265 ° 2 min 765 W/m² 10,8 °C 16,3 °C 24,1 km/h (4 Bft)
27.06.2023 09:52 24,0 °C 19,2 °C 57 % 60 % 1018,0 hPa 0,0 l/m² 12,3 km/h (2 Bft) W-NW 288 ° 2 min 202 W/m² 11,2 °C 17,0 °C 19,3 km/h (3 Bft)
27.06.2023 09:54 24,0 °C 19,2 °C 57 % 60 % 1018,0 hPa 0,0 l/m² 11,1 km/h (2 Bft) W-NW 286 ° 2 min 202 W/m² 11,2 °C 17,4 °C 20,9 km/h (4 Bft)
27.06.2023 09:56 24,0 °C 19,2 °C 57 % 58 % 1018,0 hPa 0,0 l/m² 14,1 km/h (3 Bft) W-NW 294 ° 2 min 163 W/m² 10,7 °C 16,5 °C 24,1 km/h (4 Bft)
27.06.2023 09:58 24,0 °C 19,3 °C 57 % 60 % 1018,0 hPa 0,0 l/m² 12,5 km/h (2 Bft) W-SW 254 ° 2 min 826 W/m² 11,3 °C 17,1 °C 24,1 km/h (4 Bft)
27.06.2023 10:00 24,0 °C 19,6 °C 57 % 58 % 1017,9 hPa 0,0 l/m² 13,6 km/h (3 Bft) W-NW 293 ° 2 min 758 W/m² 11,1 °C 17,1 °C 29,0 km/h (5 Bft)
27.06.2023 10:02 24,0 °C 19,8 °C 57 % 57 % 1017,8 hPa 0,0 l/m² 10,8 km/h (2 Bft) W-NW 289 ° 2 min 758 W/m² 11,0 °C 18,2 °C 20,9 km/h (4 Bft)
27.06.2023 10:04 24,0 °C 19,9 °C 57 % 57 % 1017,8 hPa 0,0 l/m² 14,8 km/h (3 Bft) W 271 ° 2 min 204 W/m² 11,1 °C 17,2 °C 25,7 km/h (4 Bft)
27.06.2023 10:06 24,0 °C 19,6 °C 57 % 56 % 1017,9 hPa 0,0 l/m² 15,1 km/h (3 Bft) W-SW 258 ° 2 min 812 W/m² 10,6 °C 16,7 °C 25,7 km/h (4 Bft)
27.06.2023 10:08 24,0 °C 19,8 °C 57 % 56 % 1017,8 hPa 0,0 l/m² 17,5 km/h (3 Bft) W 265 ° 2 min 863 W/m² 10,8 °C 16,4 °C 27,4 km/h (5 Bft)
27.06.2023 10:10 24,0 °C 20,1 °C 57 % 58 % 1017,9 hPa 0,0 l/m² 15,1 km/h (3 Bft) NW 317 ° 2 min 863 W/m² 11,6 °C 17,3 °C 25,7 km/h (4 Bft)
27.06.2023 10:11 24,0 °C 20,3 °C 57 % 57 % 1017,9 hPa 0,0 l/m² 11,9 km/h (2 Bft) N-NW 338 ° 1 min 863 W/m² 11,5 °C 18,4 °C 22,5 km/h (4 Bft)
27.06.2023 10:13 24,0 °C 20,3 °C 57 % 56 % 1017,8 hPa 0,0 l/m² 9,6 km/h (2 Bft) W 263 ° 2 min 155 W/m² 11,2 °C 19,1 °C 17,7 km/h (3 Bft)
27.06.2023 10:15 24,0 °C 19,9 °C 57 % 57 % 1017,8 hPa 0,0 l/m² 10,8 km/h (2 Bft) W-SW 254 ° 2 min 121 W/m² 11,1 °C 18,3 °C 22,5 km/h (4 Bft)
27.06.2023 10:17 24,0 °C 19,6 °C 57 % 57 % 1017,8 hPa 0,0 l/m² 12,3 km/h (2 Bft) W-SW 254 ° 2 min 156 W/m² 10,8 °C 17,5 °C 20,9 km/h (4 Bft)
27.06.2023 10:19 24,0 °C 19,3 °C 57 % 57 % 1017,9 hPa 0,0 l/m² 13,6 km/h (3 Bft) W-NW 284 ° 2 min 237 W/m² 10,6 °C 16,8 °C 22,5 km/h (4 Bft)
27.06.2023 10:21 24,0 °C 19,2 °C 57 % 58 % 1017,8 hPa 0,0 l/m² 13,5 km/h (3 Bft) W 268 ° 2 min 237 W/m² 10,7 °C 16,7 °C 24,1 km/h (4 Bft)
27.06.2023 10:23 24,0 °C 19,2 °C 57 % 58 % 1017,8 hPa 0,0 l/m² 14,7 km/h (3 Bft) NW 319 ° 2 min 288 W/m² 10,7 °C 16,4 °C 22,5 km/h (4 Bft)
27.06.2023 10:25 24,0 °C 19,4 °C 57 % 58 % 1017,8 hPa 0,0 l/m² 17,2 km/h (3 Bft) W 271 ° 2 min 288 W/m² 10,9 °C 16,0 °C 29,0 km/h (5 Bft)
27.06.2023 10:27 24,0 °C 19,4 °C 57 % 58 % 1017,8 hPa 0,0 l/m² 8,9 km/h (2 Bft) W 271 ° 2 min 171 W/m² 10,9 °C 18,4 °C 17,7 km/h (3 Bft)
27.06.2023 10:29 24,0 °C 19,3 °C 57 % 58 % 1017,8 hPa 0,0 l/m² 14,5 km/h (3 Bft) W 273 ° 2 min 171 W/m² 10,8 °C 16,5 °C 19,3 km/h (3 Bft)
27.06.2023 10:31 24,0 °C 19,2 °C 57 % 58 % 1017,9 hPa 0,0 l/m² 14,6 km/h (3 Bft) W-SW 253 ° 2 min 183 W/m² 10,7 °C 16,4 °C 19,3 km/h (3 Bft)
27.06.2023 10:33 23,9 °C 19,1 °C 57 % 58 % 1017,8 hPa 0,0 l/m² 13,0 km/h (3 Bft) W-SW 250 ° 2 min 183 W/m² 10,6 °C 16,7 °C 20,9 km/h (4 Bft)
27.06.2023 10:35 24,0 °C 19,1 °C 57 % 59 % 1017,8 hPa 0,0 l/m² 15,7 km/h (3 Bft) W-SW 257 ° 2 min 218 W/m² 10,9 °C 16,0 °C 22,5 km/h (4 Bft)
27.06.2023 10:37 24,0 °C 19,2 °C 57 % 57 % 1017,8 hPa 0,0 l/m² 13,4 km/h (3 Bft) W-NW 294 ° 2 min 285 W/m² 10,5 °C 16,7 °C 24,1 km/h (4 Bft)
27.06.2023 10:39 24,0 °C 19,4 °C 57 % 57 % 1017,8 hPa 0,0 l/m² 13,5 km/h (3 Bft) W-SW 247 ° 2 min 285 W/m² 10,7 °C 16,9 °C 19,3 km/h (3 Bft)
27.06.2023 10:41 24,0 °C 19,8 °C 57 % 56 % 1017,7 hPa 0,0 l/m² 16,5 km/h (3 Bft) W-SW 257 ° 2 min 949 W/m² 10,8 °C 16,7 °C 24,1 km/h (4 Bft)
27.06.2023 10:43 24,0 °C 20,0 °C 57 % 56 % 1017,7 hPa 0,0 l/m² 14,2 km/h (3 Bft) W-SW 250 ° 2 min 165 W/m² 11,0 °C 17,4 °C 19,3 km/h (3 Bft)
27.06.2023 10:45 24,0 °C 19,8 °C 57 % 55 % 1017,7 hPa 0,0 l/m² 20,9 km/h (4 Bft) W-SW 254 ° 2 min 146 W/m² 10,5 °C 15,8 °C 30,6 km/h (5 Bft)
27.06.2023 10:46 24,0 °C 19,6 °C 57 % 56 % 1017,7 hPa 0,0 l/m² 15,9 km/h (3 Bft) W 272 ° 1 min 142 W/m² 10,6 °C 16,6 °C 24,1 km/h (4 Bft)
27.06.2023 10:47 24,0 °C 19,4 °C 57 % 57 % 1017,7 hPa 0,0 l/m² 13,3 km/h (3 Bft) W 259 ° 1 min 139 W/m² 10,7 °C 17,0 °C 17,7 km/h (3 Bft)
27.06.2023 10:49 24,0 °C 19,2 °C 57 % 57 % 1017,8 hPa 0,0 l/m² 11,2 km/h (2 Bft) W 262 ° 2 min 125 W/m² 10,5 °C 17,4 °C 20,9 km/h (4 Bft)
27.06.2023 10:51 24,0 °C 19,0 °C 57 % 58 % 1017,7 hPa 0,0 l/m² 11,2 km/h (2 Bft) W-SW 245 ° 2 min 128 W/m² 10,5 °C 17,1 °C 19,3 km/h (3 Bft)
27.06.2023 10:53 24,0 °C 19,3 °C 57 % 58 % 1017,7 hPa 0,0 l/m² 13,6 km/h (3 Bft) W 281 ° 2 min 831 W/m² 10,8 °C 16,8 °C 25,7 km/h (4 Bft)
27.06.2023 10:55 24,0 °C 19,7 °C 57 % 56 % 1017,7 hPa 0,0 l/m² 15,7 km/h (3 Bft) W-NW 286 ° 2 min 821 W/m² 10,7 °C 16,7 °C 24,1 km/h (4 Bft)
27.06.2023 10:57 24,0 °C 20,1 °C 57 % 56 % 1017,7 hPa 0,0 l/m² 12,3 km/h (2 Bft) W-NW 291 ° 2 min 824 W/m² 11,0 °C 18,1 °C 19,3 km/h (3 Bft)
27.06.2023 10:59 24,0 °C 20,3 °C 57 % 58 % 1017,6 hPa 0,0 l/m² 8,2 km/h (2 Bft) NW 312 ° 2 min 824 W/m² 11,8 °C 19,6 °C 19,3 km/h (3 Bft)
27.06.2023 11:01 24,0 °C 20,8 °C 57 % 57 % 1017,6 hPa 0,0 l/m² 9,1 km/h (2 Bft) N-NW 332 ° 2 min 884 W/m² 12,0 °C 19,8 °C 17,7 km/h (3 Bft)
27.06.2023 11:03 24,0 °C 20,9 °C 57 % 55 % 1017,6 hPa 0,0 l/m² 9,4 km/h (2 Bft) NW 321 ° 2 min 937 W/m² 11,5 °C 19,8 °C 22,5 km/h (4 Bft)
27.06.2023 11:05 24,0 °C 20,8 °C 57 % 54 % 1017,6 hPa 0,0 l/m² 13,8 km/h (3 Bft) W-NW 292 ° 2 min 195 W/m² 11,1 °C 18,5 °C 22,5 km/h (4 Bft)
27.06.2023 11:07 24,0 °C 20,3 °C 57 % 54 % 1017,7 hPa 0,0 l/m² 11,4 km/h (2 Bft) W-SW 257 ° 2 min 211 W/m² 10,7 °C 18,5 °C 24,1 km/h (4 Bft)
27.06.2023 11:09 24,0 °C 20,4 °C 57 % 56 % 1017,6 hPa 0,0 l/m² 11,1 km/h (2 Bft) NW 319 ° 2 min 991 W/m² 11,3 °C 18,7 °C 25,7 km/h (4 Bft)
27.06.2023 11:11 24,0 °C 20,8 °C 57 % 54 % 1017,6 hPa 0,0 l/m² 14,0 km/h (3 Bft) W-NW 284 ° 2 min 991 W/m² 11,1 °C 18,4 °C 25,7 km/h (4 Bft)
27.06.2023 11:13 24,0 °C 20,8 °C 57 % 53 % 1017,6 hPa 0,0 l/m² 13,2 km/h (3 Bft) W-NW 294 ° 2 min 986 W/m² 10,9 °C 18,6 °C 24,1 km/h (4 Bft)
27.06.2023 11:15 24,0 °C 20,7 °C 57 % 52 % 1017,6 hPa 0,0 l/m² 15,4 km/h (3 Bft) W-NW 295 ° 2 min 262 W/m² 10,5 °C 18,0 °C 25,7 km/h (4 Bft)
27.06.2023 11:17 24,0 °C 20,5 °C 57 % 52 % 1017,6 hPa 0,0 l/m² 22,8 km/h (4 Bft) W-SW 257 ° 2 min 265 W/m² 10,3 °C 16,4 °C 32,2 km/h (5 Bft)
27.06.2023 11:19 23,9 °C 20,7 °C 57 % 53 % 1017,5 hPa 0,0 l/m² 17,7 km/h (3 Bft) W 262 ° 2 min 1035 W/m² 10,8 °C 17,5 °C 29,0 km/h (5 Bft)
27.06.2023 11:21 23,9 °C 20,7 °C 57 % 52 % 1017,5 hPa 0,0 l/m² 12,7 km/h (3 Bft) W 265 ° 2 min 236 W/m² 10,5 °C 18,7 °C 20,9 km/h (4 Bft)
27.06.2023 11:23 24,0 °C 20,5 °C 57 % 53 % 1017,4 hPa 0,0 l/m² 11,9 km/h (2 Bft) W 267 ° 2 min 257 W/m² 10,6 °C 18,6 °C 19,3 km/h (3 Bft)
27.06.2023 11:25 24,0 °C 20,6 °C 57 % 54 % 1017,5 hPa 0,0 l/m² 12,8 km/h (3 Bft) W-SW 254 ° 2 min 155 W/m² 11,0 °C 18,5 °C 25,7 km/h (4 Bft)
27.06.2023 11:27 24,0 °C 20,4 °C 57 % 52 % 1017,6 hPa 0,0 l/m² 17,5 km/h (3 Bft) W-SW 258 ° 2 min 134 W/m² 10,2 °C 17,2 °C 25,7 km/h (4 Bft)
27.06.2023 11:29 24,0 °C 20,1 °C 57 % 54 % 1017,4 hPa 0,0 l/m² 9,9 km/h (2 Bft) W-SW 244 ° 2 min 146 W/m² 10,5 °C 18,8 °C 17,7 km/h (3 Bft)
27.06.2023 11:31 24,0 °C 19,9 °C 57 % 55 % 1017,5 hPa 0,0 l/m² 9,7 km/h (2 Bft) W 278 ° 2 min 990 W/m² 10,6 °C 18,6 °C 20,9 km/h (4 Bft)
27.06.2023 11:33 24,0 °C 20,4 °C 57 % 54 % 1017,6 hPa 0,0 l/m² 15,5 km/h (3 Bft) NW 312 ° 2 min 1007 W/m² 10,8 °C 17,6 °C 22,5 km/h (4 Bft)
27.06.2023 11:35 23,9 °C 20,7 °C 57 % 54 % 1017,5 hPa 0,0 l/m² 17,9 km/h (3 Bft) W 269 ° 2 min 1007 W/m² 11,1 °C 17,5 °C 24,1 km/h (4 Bft)
27.06.2023 11:37 24,0 °C 20,9 °C 57 % 53 % 1017,6 hPa 0,0 l/m² 14,8 km/h (3 Bft) W-NW 287 ° 2 min 909 W/m² 11,0 °C 18,4 °C 22,5 km/h (4 Bft)
27.06.2023 11:39 24,0 °C 21,2 °C 57 % 52 % 1017,5 hPa 0,0 l/m² 15,8 km/h (3 Bft) W 275 ° 2 min 919 W/m² 10,9 °C 18,5 °C 24,1 km/h (4 Bft)
27.06.2023 11:41 24,0 °C 21,4 °C 57 % 51 % 1017,4 hPa 0,0 l/m² 17,0 km/h (3 Bft) W-NW 284 ° 2 min 930 W/m² 10,8 °C 18,5 °C 29,0 km/h (5 Bft)
27.06.2023 11:43 23,9 °C 21,5 °C 57 % 50 % 1017,4 hPa 0,0 l/m² 16,0 km/h (3 Bft) W 280 ° 2 min 926 W/m² 10,6 °C 18,9 °C 29,0 km/h (5 Bft)
27.06.2023 11:45 23,9 °C 21,7 °C 57 % 49 % 1017,3 hPa 0,0 l/m² 17,2 km/h (3 Bft) W 265 ° 2 min 991 W/m² 10,5 °C 18,9 °C 30,6 km/h (5 Bft)
27.06.2023 11:47 23,9 °C 21,8 °C 57 % 48 % 1017,4 hPa 0,0 l/m² 18,9 km/h (3 Bft) W 263 ° 2 min 1025 W/m² 10,3 °C 18,7 °C 30,6 km/h (5 Bft)
27.06.2023 11:49 24,0 °C 21,7 °C 57 % 48 % 1017,3 hPa 0,0 l/m² 11,7 km/h (2 Bft) N-NW 339 ° 2 min 1063 W/m² 10,2 °C 20,1 °C 20,9 km/h (4 Bft)
27.06.2023 11:51 23,9 °C 21,6 °C 57 % 49 % 1017,4 hPa 0,0 l/m² 17,5 km/h (3 Bft) W-NW 298 ° 2 min 269 W/m² 10,4 °C 18,7 °C 29,0 km/h (5 Bft)
27.06.2023 11:53 24,0 °C 21,3 °C 57 % 52 % 1017,4 hPa 0,0 l/m² 13,4 km/h (3 Bft) W 278 ° 2 min 304 W/m² 11,0 °C 19,2 °C 30,6 km/h (5 Bft)
27.06.2023 11:55 23,9 °C 21,3 °C 57 % 49 % 1017,4 hPa 0,0 l/m² 11,7 km/h (2 Bft) W 275 ° 2 min 304 W/m² 10,1 °C 19,6 °C 19,3 km/h (3 Bft)
27.06.2023 11:57 23,9 °C 21,1 °C 57 % 50 % 1017,4 hPa 0,0 l/m² 16,0 km/h (3 Bft) W 270 ° 2 min 183 W/m² 10,3 °C 18,4 °C 25,7 km/h (4 Bft)
27.06.2023 11:59 24,0 °C 20,8 °C 57 % 51 % 1017,3 hPa 0,0 l/m² 18,0 km/h (3 Bft) SW 227 ° 2 min 190 W/m² 10,3 °C 17,6 °C 25,7 km/h (4 Bft)
27.06.2023 12:00 23,9 °C 20,6 °C 57 % 51 % 1017,4 hPa 0,0 l/m² 22,3 km/h (4 Bft) SW 233 ° 1 min 213 W/m² 10,1 °C 16,6 °C 27,4 km/h (5 Bft)
27.06.2023 12:01 23,9 °C 20,4 °C 57 % 51 % 1017,4 hPa 0,0 l/m² 15,9 km/h (3 Bft) SW 219 ° 1 min 260 W/m² 9,9 °C 17,5 °C 22,5 km/h (4 Bft)
27.06.2023 12:03 23,9 °C 20,9 °C 57 % 55 % 1017,4 hPa 0,0 l/m² 16,3 km/h (3 Bft) SW 229 ° 2 min 983 W/m² 11,5 °C 18,1 °C 24,1 km/h (4 Bft)
27.06.2023 12:05 23,9 °C 21,9 °C 57 % 53 % 1017,4 hPa 0,0 l/m² 18,1 km/h (3 Bft) SW 226 ° 2 min 942 W/m² 11,9 °C 19,0 °C 25,7 km/h (4 Bft)
27.06.2023 12:07 23,9 °C 22,3 °C 57 % 52 % 1017,4 hPa 0,0 l/m² 16,0 km/h (3 Bft) S-SW 202 ° 2 min 926 W/m² 12,0 °C 19,8 °C 22,5 km/h (4 Bft)
27.06.2023 12:09 23,9 °C 22,7 °C 57 % 51 % 1017,4 hPa 0,0 l/m² 14,9 km/h (3 Bft) S-SW 212 ° 2 min 935 W/m² 12,0 °C 20,5 °C 19,3 km/h (3 Bft)
27.06.2023 12:11 23,9 °C 22,7 °C 58 % 51 % 1017,3 hPa 0,0 l/m² 14,9 km/h (3 Bft) W 263 ° 2 min 956 W/m² 12,0 °C 20,5 °C 20,9 km/h (4 Bft)
27.06.2023 12:13 23,9 °C 22,6 °C 58 % 47 % 1017,4 hPa 0,0 l/m² 13,2 km/h (3 Bft) NW 304 ° 2 min 988 W/m² 10,7 °C 20,8 °C 22,5 km/h (4 Bft)
27.06.2023 12:14 23,9 °C 22,4 °C 57 % 46 % 1017,3 hPa 0,0 l/m² 15,4 km/h (3 Bft) W-SW 255 ° 1 min 990 W/m² 10,2 °C 20,1 °C 24,1 km/h (4 Bft)
27.06.2023 12:15 23,9 °C 22,5 °C 57 % 47 % 1017,3 hPa 0,0 l/m² 18,8 km/h (3 Bft) W 269 ° 1 min 1000 W/m² 10,6 °C 19,6 °C 29,0 km/h (5 Bft)
27.06.2023 12:17 23,9 °C 22,3 °C 58 % 47 % 1017,3 hPa 0,0 l/m² 13,3 km/h (3 Bft) W-SW 238 ° 2 min 555 W/m² 10,4 °C 20,4 °C 24,1 km/h (4 Bft)
27.06.2023 12:19 23,9 °C 22,4 °C 58 % 47 % 1017,3 hPa 0,0 l/m² 21,3 km/h (4 Bft) W-SW 254 ° 2 min 1021 W/m² 10,5 °C 19,1 °C 30,6 km/h (5 Bft)
27.06.2023 12:21 23,9 °C 22,7 °C 57 % 47 % 1017,3 hPa 0,0 l/m² 17,5 km/h (3 Bft) W-SW 253 ° 2 min 1034 W/m² 10,8 °C 20,1 °C 29,0 km/h (5 Bft)
27.06.2023 12:23 24,0 °C 22,6 °C 58 % 47 % 1017,3 hPa 0,0 l/m² 18,1 km/h (3 Bft) W-SW 239 ° 2 min 1083 W/m² 10,7 °C 19,9 °C 27,4 km/h (5 Bft)
27.06.2023 12:25 23,9 °C 22,6 °C 58 % 47 % 1017,2 hPa 0,0 l/m² 17,2 km/h (3 Bft) W 278 ° 2 min 1051 W/m² 10,7 °C 20,0 °C 27,4 km/h (5 Bft)
27.06.2023 12:27 23,9 °C 23,1 °C 58 % 46 % 1017,2 hPa 0,0 l/m² 21,0 km/h (4 Bft) W-SW 245 ° 2 min 1034 W/m² 10,8 °C 20,1 °C 29,0 km/h (5 Bft)
27.06.2023 12:29 23,9 °C 23,1 °C 58 % 47 % 1017,3 hPa 0,0 l/m² 19,6 km/h (3 Bft) W-SW 250 ° 2 min 1005 W/m² 11,2 °C 20,3 °C 29,0 km/h (5 Bft)
27.06.2023 12:31 23,9 °C 22,7 °C 58 % 46 % 1017,3 hPa 0,0 l/m² 17,7 km/h (3 Bft) W-SW 257 ° 2 min 990 W/m² 10,5 °C 20,0 °C 24,1 km/h (4 Bft)
27.06.2023 12:33 23,9 °C 22,7 °C 58 % 45 % 1017,3 hPa 0,0 l/m² 20,7 km/h (4 Bft) W-SW 244 ° 2 min 960 W/m² 10,1 °C 19,6 °C 29,0 km/h (5 Bft)
27.06.2023 12:35 23,9 °C 22,7 °C 58 % 47 % 1017,3 hPa 0,0 l/m² 15,7 km/h (3 Bft) W 266 ° 2 min 925 W/m² 10,8 °C 20,4 °C 27,4 km/h (5 Bft)
27.06.2023 12:37 23,9 °C 22,7 °C 58 % 46 % 1017,2 hPa 0,0 l/m² 18,9 km/h (3 Bft) W 279 ° 2 min 958 W/m² 10,5 °C 19,9 °C 25,7 km/h (4 Bft)
27.06.2023 12:39 23,9 °C 22,6 °C 58 % 45 % 1017,2 hPa 0,0 l/m² 16,5 km/h (3 Bft) W 275 ° 2 min 944 W/m² 10,1 °C 20,1 °C 22,5 km/h (4 Bft)
27.06.2023 12:41 23,9 °C 22,3 °C 58 % 46 % 1017,2 hPa 0,0 l/m² 14,5 km/h (3 Bft) W 277 ° 2 min 930 W/m² 10,1 °C 20,1 °C 22,5 km/h (4 Bft)
27.06.2023 12:43 23,9 °C 22,3 °C 58 % 46 % 1017,2 hPa 0,0 l/m² 15,0 km/h (3 Bft) SW 221 ° 2 min 928 W/m² 10,1 °C 20,0 °C 24,1 km/h (4 Bft)
27.06.2023 12:45 23,9 °C 22,6 °C 58 % 46 % 1017,2 hPa 0,0 l/m² 18,6 km/h (3 Bft) SW 220 ° 2 min 933 W/m² 10,4 °C 19,8 °C 30,6 km/h (5 Bft)
27.06.2023 12:47 23,9 °C 22,6 °C 58 % 45 % 1017,1 hPa 0,0 l/m² 15,4 km/h (3 Bft) W-SW 245 ° 2 min 930 W/m² 10,1 °C 20,3 °C 24,1 km/h (4 Bft)
27.06.2023 12:48 23,9 °C 22,6 °C 58 % 45 % 1017,1 hPa 0,0 l/m² 18,3 km/h (3 Bft) W-NW 289 ° 1 min 926 W/m² 10,1 °C 19,8 °C 24,1 km/h (4 Bft)
27.06.2023 12:50 23,9 °C 22,5 °C 58 % 45 % 1017,1 hPa 0,0 l/m² 17,6 km/h (3 Bft) SW 234 ° 2 min 933 W/m² 10,0 °C 19,8 °C 29,0 km/h (5 Bft)
27.06.2023 12:52 23,9 °C 22,8 °C 58 % 46 % 1017,1 hPa 0,0 l/m² 20,1 km/h (4 Bft) S-SW 209 ° 2 min 933 W/m² 10,6 °C 19,8 °C 27,4 km/h (5 Bft)
27.06.2023 12:54 23,9 °C 22,9 °C 58 % 43 % 1017,1 hPa 0,0 l/m² 23,7 km/h (4 Bft) W-SW 255 ° 2 min 925 W/m² 9,6 °C 19,5 °C 32,2 km/h (5 Bft)
27.06.2023 12:56 23,9 °C 22,7 °C 58 % 45 % 1017,0 hPa 0,0 l/m² 23,2 km/h (4 Bft) W-SW 248 ° 2 min 932 W/m² 10,1 °C 19,3 °C 29,0 km/h (5 Bft)
27.06.2023 12:58 23,9 °C 22,7 °C 58 % 46 % 1017,0 hPa 0,0 l/m² 18,4 km/h (3 Bft) W 268 ° 2 min 942 W/m² 10,5 °C 19,9 °C 29,0 km/h (5 Bft)
27.06.2023 13:00 23,9 °C 22,6 °C 58 % 46 % 1017,0 hPa 0,0 l/m² 18,7 km/h (3 Bft) W-SW 258 ° 2 min 977 W/m² 10,4 °C 19,8 °C 29,0 km/h (5 Bft)
27.06.2023 13:02 23,9 °C 23,1 °C 58 % 44 % 1016,9 hPa 0,0 l/m² 16,8 km/h (3 Bft) NW 312 ° 2 min 1002 W/m² 10,2 °C 20,7 °C 24,1 km/h (4 Bft)
27.06.2023 13:04 23,9 °C 23,0 °C 58 % 45 % 1017,0 hPa 0,0 l/m² 15,5 km/h (3 Bft) W-SW 244 ° 2 min 988 W/m² 10,4 °C 20,8 °C 27,4 km/h (5 Bft)
27.06.2023 13:06 23,9 °C 23,1 °C 58 % 43 % 1017,0 hPa 0,0 l/m² 14,4 km/h (3 Bft) NW 305 ° 2 min 1023 W/m² 9,8 °C 21,1 °C 22,5 km/h (4 Bft)
27.06.2023 13:08 23,9 °C 22,8 °C 58 % 46 % 1016,9 hPa 0,0 l/m² 13,5 km/h (3 Bft) W 267 ° 2 min 1023 W/m² 10,6 °C 20,9 °C 20,9 km/h (4 Bft)
27.06.2023 13:10 23,9 °C 22,8 °C 58 % 44 % 1016,9 hPa 0,0 l/m² 17,7 km/h (3 Bft) SW 216 ° 2 min 1023 W/m² 9,9 °C 20,2 °C 30,6 km/h (5 Bft)
27.06.2023 13:12 23,9 °C 22,6 °C 58 % 44 % 1016,9 hPa 0,0 l/m² 14,7 km/h (3 Bft) W 263 ° 2 min 1023 W/m² 9,7 °C 20,5 °C 25,7 km/h (4 Bft)
27.06.2023 13:14 24,0 °C 22,5 °C 58 % 45 % 1016,8 hPa 0,0 l/m² 18,4 km/h (3 Bft) W-SW 240 ° 2 min 350 W/m² 10,0 °C 19,7 °C 25,7 km/h (4 Bft)
27.06.2023 13:16 23,9 °C 22,4 °C 58 % 45 % 1016,9 hPa 0,0 l/m² 19,8 km/h (3 Bft) SW 229 ° 2 min 353 W/m² 9,9 °C 19,3 °C 29,0 km/h (5 Bft)
27.06.2023 13:18 23,9 °C 22,4 °C 58 % 44 % 1016,8 hPa 0,0 l/m² 21,7 km/h (4 Bft) W 274 ° 2 min 1195 W/m² 9,5 °C 19,1 °C 40,2 km/h (6 Bft)
27.06.2023 13:20 23,9 °C 22,3 °C 58 % 45 % 1016,8 hPa 0,0 l/m² 22,1 km/h (4 Bft) W-SW 241 ° 2 min 359 W/m² 9,8 °C 18,9 °C 29,0 km/h (5 Bft)
27.06.2023 13:22 23,9 °C 22,3 °C 58 % 45 % 1016,7 hPa 0,0 l/m² 22,0 km/h (4 Bft) W-SW 246 ° 2 min 471 W/m² 9,8 °C 18,9 °C 33,8 km/h (5 Bft)
27.06.2023 13:24 23,9 °C 22,8 °C 58 % 45 % 1016,7 hPa 0,0 l/m² 20,0 km/h (4 Bft) W-SW 242 ° 2 min 1202 W/m² 10,2 °C 19,8 °C 32,2 km/h (5 Bft)
27.06.2023 13:26 23,9 °C 23,3 °C 58 % 43 % 1016,8 hPa 0,0 l/m² 21,9 km/h (4 Bft) SW 234 ° 2 min 1202 W/m² 10,0 °C 20,2 °C 33,8 km/h (5 Bft)
27.06.2023 13:28 23,9 °C 23,2 °C 58 % 42 % 1016,8 hPa 0,0 l/m² 23,1 km/h (4 Bft) W-SW 254 ° 2 min 267 W/m² 9,6 °C 19,9 °C 38,6 km/h (6 Bft)
27.06.2023 13:30 23,9 °C 22,6 °C 58 % 42 % 1016,7 hPa 0,0 l/m² 21,0 km/h (4 Bft) W-SW 257 ° 2 min 255 W/m² 9,0 °C 19,4 °C 35,4 km/h (5 Bft)
27.06.2023 13:32 23,9 °C 22,2 °C 58 % 44 % 1016,8 hPa 0,0 l/m² 14,0 km/h (3 Bft) W-NW 282 ° 2 min 285 W/m² 9,4 °C 20,1 °C 24,1 km/h (4 Bft)
27.06.2023 13:34 23,9 °C 22,1 °C 58 % 44 % 1016,8 hPa 0,0 l/m² 21,6 km/h (4 Bft) W 266 ° 2 min 323 W/m² 9,3 °C 18,7 °C 33,8 km/h (5 Bft)
27.06.2023 13:36 24,0 °C 21,8 °C 58 % 44 % 1016,8 hPa 0,0 l/m² 17,6 km/h (3 Bft) W 261 ° 2 min 334 W/m² 9,0 °C 18,9 °C 30,6 km/h (5 Bft)
27.06.2023 13:38 23,9 °C 21,8 °C 58 % 46 % 1016,8 hPa 0,0 l/m² 15,8 km/h (3 Bft) W 267 ° 2 min 355 W/m² 9,7 °C 19,3 °C 24,1 km/h (4 Bft)
27.06.2023 13:40 23,9 °C 21,8 °C 58 % 46 % 1016,8 hPa 0,0 l/m² 10,8 km/h (2 Bft) W 264 ° 2 min 329 W/m² 9,7 °C 20,4 °C 27,4 km/h (5 Bft)
27.06.2023 13:42 23,9 °C 22,0 °C 58 % 44 % 1016,7 hPa 0,0 l/m² 15,9 km/h (3 Bft) W 264 ° 2 min 279 W/m² 9,2 °C 19,5 °C 35,4 km/h (5 Bft)
27.06.2023 13:43 23,9 °C 21,9 °C 58 % 44 % 1016,8 hPa 0,0 l/m² 17,6 km/h (3 Bft) W-SW 238 ° 1 min 244 W/m² 9,1 °C 19,1 °C 24,1 km/h (4 Bft)
27.06.2023 13:44 23,9 °C 21,8 °C 58 % 45 % 1016,9 hPa 0,0 l/m² 17,0 km/h (3 Bft) W 271 ° 1 min 234 W/m² 9,3 °C 19,0 °C 22,5 km/h (4 Bft)
27.06.2023 13:45 23,9 °C 21,7 °C 58 % 45 % 1016,9 hPa 0,0 l/m² 14,4 km/h (3 Bft) W-NW 294 ° 1 min 229 W/m² 9,2 °C 19,4 °C 17,7 km/h (3 Bft)
27.06.2023 13:47 24,0 °C 21,6 °C 58 % 47 % 1016,8 hPa 0,0 l/m² 17,0 km/h (3 Bft) W 279 ° 2 min 227 W/m² 9,8 °C 18,8 °C 32,2 km/h (5 Bft)
27.06.2023 13:49 23,9 °C 21,5 °C 58 % 47 % 1016,8 hPa 0,0 l/m² 20,8 km/h (4 Bft) W 280 ° 2 min 255 W/m² 9,7 °C 18,0 °C 30,6 km/h (5 Bft)
27.06.2023 13:51 23,9 °C 21,3 °C 58 % 48 % 1016,8 hPa 0,0 l/m² 19,7 km/h (3 Bft) W-SW 242 ° 2 min 313 W/m² 9,8 °C 17,9 °C 29,0 km/h (5 Bft)
27.06.2023 13:53 23,9 °C 21,4 °C 58 % 51 % 1016,8 hPa 0,0 l/m² 8,7 km/h (2 Bft) N-NW 338 ° 2 min 272 W/m² 10,8 °C 20,6 °C 19,3 km/h (3 Bft)
27.06.2023 13:55 23,9 °C 21,9 °C 58 % 49 % 1016,8 hPa 0,0 l/m² 12,2 km/h (2 Bft) NW 307 ° 2 min 1023 W/m² 10,7 °C 20,2 °C 20,9 km/h (4 Bft)
27.06.2023 13:57 24,0 °C 22,6 °C 58 % 50 % 1016,8 hPa 0,0 l/m² 10,5 km/h (2 Bft) NW 320 ° 2 min 1023 W/m² 11,6 °C 21,4 °C 17,7 km/h (3 Bft)
27.06.2023 13:59 24,0 °C 22,7 °C 58 % 50 % 1016,7 hPa 0,0 l/m² 11,3 km/h (2 Bft) W-NW 290 ° 2 min 1056 W/m² 11,7 °C 21,3 °C 22,5 km/h (4 Bft)
27.06.2023 14:01 23,9 °C 22,7 °C 58 % 50 % 1016,7 hPa 0,0 l/m² 12,1 km/h (2 Bft) W 277 ° 2 min 1102 W/m² 11,7 °C 21,1 °C 22,5 km/h (4 Bft)
27.06.2023 14:03 24,0 °C 22,5 °C 58 % 50 % 1016,7 hPa 0,0 l/m² 10,3 km/h (2 Bft) W-NW 287 ° 2 min 1102 W/m² 11,5 °C 21,3 °C 17,7 km/h (3 Bft)
27.06.2023 14:05 23,9 °C 22,2 °C 58 % 52 % 1016,7 hPa 0,0 l/m² 8,4 km/h (2 Bft) W-NW 292 ° 2 min 1102 W/m² 11,9 °C 21,5 °C 20,9 km/h (4 Bft)
27.06.2023 14:07 23,9 °C 21,9 °C 58 % 51 % 1016,7 hPa 0,0 l/m² 9,0 km/h (2 Bft) NW 311 ° 2 min 243 W/m² 11,3 °C 21,0 °C 16,1 km/h (3 Bft)
27.06.2023 14:09 23,9 °C 21,8 °C 58 % 51 % 1016,7 hPa 0,0 l/m² 9,8 km/h (2 Bft) W-NW 296 ° 2 min 278 W/m² 11,2 °C 20,7 °C 16,1 km/h (3 Bft)
27.06.2023 14:11 24,0 °C 21,8 °C 58 % 52 % 1016,7 hPa 0,0 l/m² 11,3 km/h (2 Bft) W-NW 291 ° 2 min 309 W/m² 11,5 °C 20,3 °C 24,1 km/h (4 Bft)
27.06.2023 14:13 23,9 °C 21,7 °C 58 % 50 % 1016,7 hPa 0,0 l/m² 7,6 km/h (2 Bft) W-NW 302 ° 2 min 330 W/m² 10,8 °C 21,3 °C 20,9 km/h (4 Bft)
27.06.2023 14:15 24,0 °C 21,8 °C 58 % 50 % 1016,7 hPa 0,0 l/m² 10,5 km/h (2 Bft) W-NW 298 ° 2 min 387 W/m² 10,9 °C 20,5 °C 20,9 km/h (4 Bft)
27.06.2023 14:17 24,0 °C 21,6 °C 58 % 49 % 1016,7 hPa 0,0 l/m² 10,1 km/h (2 Bft) NW 305 ° 2 min 401 W/m² 10,4 °C 20,4 °C 17,7 km/h (3 Bft)
27.06.2023 14:19 24,0 °C 21,7 °C 58 % 51 % 1016,6 hPa 0,0 l/m² 8,3 km/h (2 Bft) N-NW 348 ° 2 min 403 W/m² 11,1 °C 21,0 °C 14,5 km/h (3 Bft)
27.06.2023 14:21 24,0 °C 22,0 °C 58 % 51 % 1016,6 hPa 0,0 l/m² 10,2 km/h (2 Bft) W 262 ° 2 min 403 W/m² 11,4 °C 20,8 °C 17,7 km/h (3 Bft)
27.06.2023 14:23 24,0 °C 22,3 °C 58 % 50 % 1016,5 hPa 0,0 l/m² 9,3 km/h (2 Bft) W-SW 241 ° 2 min 403 W/m² 11,4 °C 21,4 °C 16,1 km/h (3 Bft)
27.06.2023 14:25 24,0 °C 22,6 °C 58 % 48 % 1016,5 hPa 0,0 l/m² 9,2 km/h (2 Bft) W 280 ° 2 min 403 W/m² 11,0 °C 21,7 °C 16,1 km/h (3 Bft)
27.06.2023 14:27 23,9 °C 22,6 °C 58 % 47 % 1016,4 hPa 0,0 l/m² 11,3 km/h (2 Bft) W 276 ° 2 min 925 W/m² 10,7 °C 21,2 °C 16,1 km/h (3 Bft)
27.06.2023 14:29 23,9 °C 22,8 °C 58 % 46 % 1016,3 hPa 0,0 l/m² 8,2 km/h (2 Bft) W-NW 298 ° 2 min 921 W/m² 10,6 °C 22,2 °C 16,1 km/h (3 Bft)
27.06.2023 14:31 23,9 °C 23,0 °C 58 % 46 % 1016,4 hPa 0,0 l/m² 12,9 km/h (3 Bft) W-SW 250 ° 2 min 914 W/m² 10,7 °C 21,3 °C 25,7 km/h (4 Bft)
27.06.2023 14:33 24,0 °C 23,3 °C 58 % 47 % 1016,2 hPa 0,0 l/m² 13,1 km/h (3 Bft) W 260 ° 2 min 918 W/m² 11,3 °C 21,6 °C 17,7 km/h (3 Bft)
27.06.2023 14:35 23,9 °C 23,4 °C 58 % 46 % 1016,3 hPa 0,0 l/m² 10,5 km/h (2 Bft) W-NW 302 ° 2 min 921 W/m² 11,1 °C 22,3 °C 17,7 km/h (3 Bft)
27.06.2023 14:37 24,0 °C 23,5 °C 58 % 46 % 1016,2 hPa 0,0 l/m² 11,1 km/h (2 Bft) SW 220 ° 2 min 926 W/m² 11,2 °C 22,3 °C 17,7 km/h (3 Bft)
27.06.2023 14:38 23,9 °C 23,8 °C 58 % 45 % 1016,2 hPa 0,0 l/m² 11,9 km/h (2 Bft) W-SW 253 ° 1 min 935 W/m² 11,1 °C 22,4 °C 22,5 km/h (4 Bft)
27.06.2023 14:39 23,9 °C 23,8 °C 58 % 44 % 1016,1 hPa 0,0 l/m² 13,1 km/h (3 Bft) W 279 ° 1 min 951 W/m² 10,8 °C 22,2 °C 22,5 km/h (4 Bft)
27.06.2023 14:40 23,9 °C 23,8 °C 58 % 42 % 1016,1 hPa 0,0 l/m² 15,3 km/h (3 Bft) W 261 ° 1 min 984 W/m² 10,1 °C 21,8 °C 22,5 km/h (4 Bft)
27.06.2023 14:42 24,0 °C 23,7 °C 58 % 42 % 1016,0 hPa 0,0 l/m² 23,2 km/h (4 Bft) W-SW 257 ° 2 min 984 W/m² 10,0 °C 20,6 °C 33,8 km/h (5 Bft)
27.06.2023 14:44 24,0 °C 23,5 °C 58 % 43 % 1016,2 hPa 0,0 l/m² 16,2 km/h (3 Bft) W 271 ° 2 min 984 W/m² 10,2 °C 21,3 °C 29,0 km/h (5 Bft)
27.06.2023 14:46 23,9 °C 23,1 °C 58 % 42 % 1016,2 hPa 0,0 l/m² 16,9 km/h (3 Bft) W-SW 248 ° 2 min 171 W/m² 9,5 °C 20,7 °C 24,1 km/h (4 Bft)
27.06.2023 14:48 24,0 °C 22,6 °C 58 % 44 % 1016,1 hPa 0,0 l/m² 14,6 km/h (3 Bft) W 262 ° 2 min 185 W/m² 9,7 °C 20,5 °C 22,5 km/h (4 Bft)
27.06.2023 14:50 24,0 °C 22,3 °C 58 % 44 % 1016,1 hPa 0,0 l/m² 13,9 km/h (3 Bft) SW 235 ° 2 min 172 W/m² 9,5 °C 20,3 °C 27,4 km/h (5 Bft)
27.06.2023 14:52 24,0 °C 22,2 °C 58 % 44 % 1016,2 hPa 0,0 l/m² 15,4 km/h (3 Bft) W-SW 250 ° 2 min 176 W/m² 9,4 °C 19,8 °C 25,7 km/h (4 Bft)
27.06.2023 14:54 24,0 °C 22,1 °C 58 % 46 % 1016,1 hPa 0,0 l/m² 10,7 km/h (2 Bft) N-NW 341 ° 2 min 246 W/m² 9,9 °C 20,8 °C 19,3 km/h (3 Bft)
27.06.2023 14:56 24,0 °C 22,4 °C 58 % 45 % 1016,1 hPa 0,0 l/m² 12,6 km/h (3 Bft) W 279 ° 2 min 1021 W/m² 9,9 °C 20,7 °C 22,5 km/h (4 Bft)
27.06.2023 14:58 24,0 °C 22,9 °C 58 % 45 % 1016,0 hPa 0,0 l/m² 14,6 km/h (3 Bft) NW 306 ° 2 min 251 W/m² 10,3 °C 20,8 °C 24,1 km/h (4 Bft)
27.06.2023 15:00 24,0 °C 22,8 °C 58 % 42 % 1016,1 hPa 0,0 l/m² 20,0 km/h (4 Bft) W 281 ° 2 min 230 W/m² 9,2 °C 19,8 °C 32,2 km/h (5 Bft)
27.06.2023 15:02 24,0 °C 22,4 °C 58 % 44 % 1016,1 hPa 0,0 l/m² 18,3 km/h (3 Bft) SW 216 ° 2 min 174 W/m² 9,5 °C 19,6 °C 37,0 km/h (5 Bft)
27.06.2023 15:04 24,0 °C 22,3 °C 58 % 45 % 1016,1 hPa 0,0 l/m² 14,4 km/h (3 Bft) W-NW 292 ° 2 min 158 W/m² 9,8 °C 20,2 °C 27,4 km/h (5 Bft)
27.06.2023 15:06 24,0 °C 22,1 °C 58 % 45 % 1016,1 hPa 0,0 l/m² 15,1 km/h (3 Bft) W-NW 293 ° 2 min 167 W/m² 9,6 °C 19,8 °C 22,5 km/h (4 Bft)
27.06.2023 15:08 24,0 °C 21,9 °C 58 % 46 % 1016,0 hPa 0,0 l/m² 13,0 km/h (3 Bft) NW 319 ° 2 min 237 W/m² 9,7 °C 20,0 °C 22,5 km/h (4 Bft)
27.06.2023 15:10 24,0 °C 21,9 °C 58 % 46 % 1016,1 hPa 0,0 l/m² 12,9 km/h (3 Bft) W 279 ° 2 min 264 W/m² 9,7 °C 20,0 °C 20,9 km/h (4 Bft)
27.06.2023 15:12 24,0 °C 22,4 °C 58 % 47 % 1016,1 hPa 0,0 l/m² 12,3 km/h (2 Bft) W 261 ° 2 min 937 W/m² 10,5 °C 20,7 °C 20,9 km/h (4 Bft)
27.06.2023 15:14 24,0 °C 23,1 °C 58 % 46 % 1016,0 hPa 0,0 l/m² 16,6 km/h (3 Bft) SW 219 ° 2 min 874 W/m² 10,8 °C 20,7 °C 24,1 km/h (4 Bft)
27.06.2023 15:16 24,0 °C 23,6 °C 58 % 45 % 1016,0 hPa 0,0 l/m² 18,8 km/h (3 Bft) W 259 ° 2 min 858 W/m² 11,0 °C 21,0 °C 25,7 km/h (4 Bft)
27.06.2023 15:18 24,0 °C 23,7 °C 58 % 44 % 1016,0 hPa 0,0 l/m² 16,8 km/h (3 Bft) W-SW 239 ° 2 min 858 W/m² 10,7 °C 21,4 °C 29,0 km/h (5 Bft)
27.06.2023 15:20 24,0 °C 23,7 °C 58 % 43 % 1015,9 hPa 0,0 l/m² 13,5 km/h (3 Bft) W-SW 256 ° 2 min 875 W/m² 10,4 °C 22,0 °C 20,9 km/h (4 Bft)
27.06.2023 15:22 24,0 °C 23,8 °C 58 % 45 % 1015,8 hPa 0,0 l/m² 11,2 km/h (2 Bft) NW 314 ° 2 min 895 W/m² 11,1 °C 22,6 °C 17,7 km/h (3 Bft)
27.06.2023 15:24 24,0 °C 23,5 °C 58 % 44 % 1015,8 hPa 0,0 l/m² 9,9 km/h (2 Bft) W-NW 301 ° 2 min 895 W/m² 10,5 °C 22,5 °C 20,9 km/h (4 Bft)
27.06.2023 15:26 24,0 °C 23,1 °C 58 % 44 % 1015,8 hPa 0,0 l/m² 12,4 km/h (2 Bft) W-SW 240 ° 2 min 199 W/m² 10,2 °C 21,5 °C 20,9 km/h (4 Bft)
27.06.2023 15:28 24,0 °C 22,8 °C 58 % 44 % 1016,0 hPa 0,0 l/m² 20,2 km/h (4 Bft) W-NW 282 ° 2 min 218 W/m² 9,9 °C 19,8 °C 32,2 km/h (5 Bft)
27.06.2023 15:30 24,1 °C 22,6 °C 58 % 45 % 1015,9 hPa 0,0 l/m² 18,3 km/h (3 Bft) W-NW 287 ° 2 min 288 W/m² 10,1 °C 19,8 °C 29,0 km/h (5 Bft)
27.06.2023 15:32 24,0 °C 22,6 °C 58 % 46 % 1015,9 hPa 0,0 l/m² 13,9 km/h (3 Bft) S-SW 195 ° 2 min 288 W/m² 10,4 °C 20,6 °C 24,1 km/h (4 Bft)
27.06.2023 15:34 24,1 °C 22,7 °C 58 % 44 % 1015,9 hPa 0,0 l/m² 15,9 km/h (3 Bft) W 261 ° 2 min 185 W/m² 9,8 °C 20,4 °C 24,1 km/h (4 Bft)
27.06.2023 15:36 24,1 °C 22,6 °C 58 % 45 % 1015,8 hPa 0,0 l/m² 12,4 km/h (2 Bft) W-SW 251 ° 2 min 176 W/m² 10,1 °C 20,9 °C 19,3 km/h (3 Bft)
27.06.2023 15:38 24,0 °C 22,9 °C 58 % 46 % 1015,8 hPa 0,0 l/m² 13,9 km/h (3 Bft) W 268 ° 2 min 870 W/m² 10,7 °C 21,0 °C 24,1 km/h (4 Bft)
27.06.2023 15:40 24,0 °C 23,4 °C 58 % 45 % 1015,8 hPa 0,0 l/m² 12,8 km/h (3 Bft) W 261 ° 2 min 851 W/m² 10,8 °C 21,8 °C 24,1 km/h (4 Bft)
27.06.2023 15:42 24,0 °C 23,7 °C 58 % 43 % 1015,8 hPa 0,0 l/m² 26,6 km/h (4 Bft) W-SW 239 ° 2 min 828 W/m² 10,4 °C 20,2 °C 37,0 km/h (5 Bft)
27.06.2023 15:44 24,0 °C 23,8 °C 58 % 43 % 1015,8 hPa 0,0 l/m² 24,0 km/h (4 Bft) W-SW 248 ° 2 min 819 W/m² 10,5 °C 20,6 °C 32,2 km/h (5 Bft)
27.06.2023 15:47 24,0 °C 23,8 °C 58 % 42 % 1015,8 hPa 0,0 l/m² 17,9 km/h (3 Bft) W-NW 288 ° 3 min 807 W/m² 10,1 °C 21,4 °C 27,4 km/h (5 Bft)
27.06.2023 15:49 24,0 °C 24,1 °C 58 % 42 % 1015,9 hPa 0,0 l/m² 18,1 km/h (3 Bft) S-SW 204 ° 2 min 828 W/m² 10,4 °C 21,8 °C 30,6 km/h (5 Bft)
27.06.2023 15:51 24,0 °C 24,3 °C 58 % 42 % 1015,9 hPa 0,0 l/m² 21,1 km/h (4 Bft) W 273 ° 2 min 837 W/m² 10,6 °C 21,6 °C 30,6 km/h (5 Bft)
27.06.2023 15:53 24,0 °C 24,3 °C 58 % 40 % 1015,8 hPa 0,0 l/m² 24,6 km/h (4 Bft) W 265 ° 2 min 809 W/m² 9,8 °C 21,3 °C 33,8 km/h (5 Bft)
27.06.2023 15:55 24,0 °C 24,3 °C 58 % 39 % 1015,8 hPa 0,0 l/m² 22,8 km/h (4 Bft) W 263 ° 2 min 795 W/m² 9,4 °C 21,4 °C 33,8 km/h (5 Bft)
27.06.2023 15:57 24,0 °C 24,2 °C 58 % 40 % 1015,9 hPa 0,0 l/m² 21,5 km/h (4 Bft) N-NW 331 ° 2 min 789 W/m² 9,7 °C 21,5 °C 33,8 km/h (5 Bft)
27.06.2023 15:59 24,0 °C 24,0 °C 58 % 41 % 1016,0 hPa 0,0 l/m² 18,1 km/h (3 Bft) W 277 ° 2 min 796 W/m² 9,9 °C 21,6 °C 30,6 km/h (5 Bft)
27.06.2023 16:01 24,0 °C 23,8 °C 58 % 40 % 1015,8 hPa 0,0 l/m² 17,1 km/h (3 Bft) W-NW 294 ° 2 min 796 W/m² 9,4 °C 21,5 °C 27,4 km/h (5 Bft)
27.06.2023 16:03 24,0 °C 23,4 °C 58 % 40 % 1015,9 hPa 0,0 l/m² 19,7 km/h (3 Bft) NW 313 ° 2 min 211 W/m² 9,0 °C 20,6 °C 32,2 km/h (5 Bft)
27.06.2023 16:05 24,0 °C 23,1 °C 58 % 41 % 1015,9 hPa 0,0 l/m² 17,4 km/h (3 Bft) W 281 ° 2 min 188 W/m² 9,1 °C 20,6 °C 32,2 km/h (5 Bft)
27.06.2023 16:07 24,0 °C 23,2 °C 58 % 43 % 1015,8 hPa 0,0 l/m² 17,1 km/h (3 Bft) W-SW 251 ° 2 min 851 W/m² 9,9 °C 20,8 °C 25,7 km/h (4 Bft)
27.06.2023 16:09 24,0 °C 23,2 °C 58 % 42 % 1015,8 hPa 0,0 l/m² 16,5 km/h (3 Bft) NW 307 ° 2 min 186 W/m² 9,6 °C 20,9 °C 32,2 km/h (5 Bft)
27.06.2023 16:11 24,0 °C 23,0 °C 58 % 43 % 1015,9 hPa 0,0 l/m² 12,8 km/h (3 Bft) NW 309 ° 2 min 221 W/m² 9,7 °C 21,3 °C 24,1 km/h (4 Bft)
27.06.2023 16:13 24,0 °C 22,9 °C 58 % 42 % 1015,9 hPa 0,0 l/m² 20,8 km/h (4 Bft) W 273 ° 2 min 216 W/m² 9,3 °C 19,8 °C 37,0 km/h (5 Bft)
27.06.2023 16:15 24,0 °C 22,7 °C 58 % 43 % 1015,9 hPa 0,0 l/m² 21,5 km/h (4 Bft) W-NW 284 ° 2 min 169 W/m² 9,5 °C 19,5 °C 35,4 km/h (5 Bft)
27.06.2023 16:17 24,0 °C 22,6 °C 58 % 44 % 1016,0 hPa 0,0 l/m² 17,5 km/h (3 Bft) W-SW 240 ° 2 min 132 W/m² 9,7 °C 20,0 °C 30,6 km/h (5 Bft)
27.06.2023 16:19 24,0 °C 22,4 °C 58 % 43 % 1015,9 hPa 0,0 l/m² 21,3 km/h (4 Bft) W 273 ° 2 min 128 W/m² 9,2 °C 19,1 °C 33,8 km/h (5 Bft)
27.06.2023 16:21 24,0 °C 22,3 °C 58 % 44 % 1016,1 hPa 0,0 l/m² 19,7 km/h (3 Bft) W 277 ° 2 min 116 W/m² 9,5 °C 19,2 °C 30,6 km/h (5 Bft)
27.06.2023 16:23 24,0 °C 22,1 °C 58 % 45 % 1016,3 hPa 0,0 l/m² 23,8 km/h (4 Bft) NW 322 ° 2 min 118 W/m² 9,6 °C 18,4 °C 43,5 km/h (6 Bft)
27.06.2023 16:25 24,0 °C 21,8 °C 58 % 45 % 1016,5 hPa 0,0 l/m² 19,3 km/h (3 Bft) W-NW 294 ° 2 min 165 W/m² 9,3 °C 18,6 °C 32,2 km/h (5 Bft)
27.06.2023 16:27 24,0 °C 21,4 °C 58 % 51 % 1016,6 hPa 0,0 l/m² 16,1 km/h (3 Bft) W-NW 286 ° 2 min 239 W/m² 10,8 °C 18,7 °C 27,4 km/h (5 Bft)
27.06.2023 16:29 24,0 °C 21,3 °C 58 % 53 % 1016,5 hPa 0,0 l/m² 8,7 km/h (2 Bft) SW 227 ° 2 min 868 W/m² 11,3 °C 20,5 °C 16,1 km/h (3 Bft)
27.06.2023 16:31 24,0 °C 21,6 °C 58 % 54 % 1016,4 hPa 0,0 l/m² 9,9 km/h (2 Bft) W-NW 296 ° 2 min 874 W/m² 11,9 °C 20,4 °C 20,9 km/h (4 Bft)
27.06.2023 16:33 24,0 °C 21,8 °C 58 % 54 % 1016,4 hPa 0,0 l/m² 13,9 km/h (3 Bft) W-NW 294 ° 2 min 858 W/m² 12,1 °C 19,7 °C 25,7 km/h (4 Bft)
27.06.2023 16:35 24,0 °C 22,0 °C 58 % 54 % 1016,4 hPa 0,0 l/m² 12,3 km/h (2 Bft) N-NW 335 ° 2 min 805 W/m² 12,3 °C 20,3 °C 27,4 km/h (5 Bft)
27.06.2023 16:37 24,0 °C 22,2 °C 58 % 54 % 1016,3 hPa 0,0 l/m² 14,2 km/h (3 Bft) NW 323 ° 2 min 766 W/m² 12,4 °C 20,1 °C 25,7 km/h (4 Bft)
27.06.2023 16:39 24,0 °C 21,9 °C 58 % 54 % 1016,3 hPa 0,0 l/m² 20,2 km/h (4 Bft) NW 304 ° 2 min 729 W/m² 12,2 °C 18,6 °C 29,0 km/h (5 Bft)
27.06.2023 16:41 24,0 °C 21,9 °C 58 % 53 % 1016,3 hPa 0,0 l/m² 20,8 km/h (4 Bft) NW 325 ° 2 min 701 W/m² 11,9 °C 18,5 °C 33,8 km/h (5 Bft)
27.06.2023 16:43 23,9 °C 21,8 °C 58 % 53 % 1016,2 hPa 0,0 l/m² 20,2 km/h (4 Bft) N 350 ° 2 min 601 W/m² 11,8 °C 18,5 °C 30,6 km/h (5 Bft)
27.06.2023 16:45 24,0 °C 21,7 °C 58 % 54 % 1016,1 hPa 0,0 l/m² 20,3 km/h (4 Bft) N-NW 340 ° 2 min 726 W/m² 12,0 °C 18,4 °C 27,4 km/h (5 Bft)
27.06.2023 16:47 24,0 °C 21,8 °C 58 % 54 % 1016,3 hPa 0,0 l/m² 17,2 km/h (3 Bft) N-NW 329 ° 2 min 707 W/m² 12,1 °C 19,0 °C 30,6 km/h (5 Bft)
27.06.2023 16:49 24,0 °C 21,6 °C 58 % 53 % 1016,4 hPa 0,0 l/m² 18,7 km/h (3 Bft) N-NW 338 ° 2 min 707 W/m² 11,6 °C 18,5 °C 27,4 km/h (5 Bft)
27.06.2023 16:51 24,0 °C 21,6 °C 58 % 54 % 1016,3 hPa 0,0 l/m² 16,8 km/h (3 Bft) N-NW 331 ° 2 min 754 W/m² 11,9 °C 18,8 °C 25,7 km/h (4 Bft)
27.06.2023 16:53 24,0 °C 21,7 °C 58 % 55 % 1016,3 hPa 0,0 l/m² 17,0 km/h (3 Bft) N-NW 340 ° 2 min 721 W/m² 12,3 °C 18,9 °C 25,7 km/h (4 Bft)
27.06.2023 16:55 23,9 °C 21,8 °C 58 % 54 % 1016,2 hPa 0,0 l/m² 14,8 km/h (3 Bft) NW 323 ° 2 min 721 W/m² 12,1 °C 19,5 °C 20,9 km/h (4 Bft)
27.06.2023 16:57 24,0 °C 21,8 °C 58 % 54 % 1016,2 hPa 0,0 l/m² 14,9 km/h (3 Bft) N 355 ° 2 min 721 W/m² 12,1 °C 19,5 °C 29,0 km/h (5 Bft)
27.06.2023 16:59 24,0 °C 21,6 °C 58 % 54 % 1016,2 hPa 0,0 l/m² 16,0 km/h (3 Bft) N-NW 329 ° 2 min 172 W/m² 11,9 °C 19,0 °C 24,1 km/h (4 Bft)
27.06.2023 17:01 24,0 °C 21,5 °C 58 % 55 % 1016,2 hPa 0,0 l/m² 19,4 km/h (3 Bft) N 355 ° 2 min 642 W/m² 12,1 °C 18,2 °C 27,4 km/h (5 Bft)
27.06.2023 17:03 24,0 °C 21,5 °C 58 % 54 % 1016,1 hPa 0,0 l/m² 17,9 km/h (3 Bft) N-NW 327 ° 2 min 645 W/m² 11,8 °C 18,5 °C 25,7 km/h (4 Bft)
27.06.2023 17:05 24,0 °C 21,3 °C 58 % 54 % 1016,2 hPa 0,0 l/m² 21,0 km/h (4 Bft) N-NW 347 ° 2 min 645 W/m² 11,6 °C 17,7 °C 27,4 km/h (5 Bft)
27.06.2023 17:07 24,0 °C 21,1 °C 58 % 54 % 1016,4 hPa 0,0 l/m² 15,1 km/h (3 Bft) N-NW 333 ° 2 min 199 W/m² 11,4 °C 18,6 °C 20,9 km/h (4 Bft)
27.06.2023 17:09 24,0 °C 20,8 °C 58 % 56 % 1016,2 hPa 0,0 l/m² 13,4 km/h (3 Bft) N 360 ° 2 min 192 W/m² 11,7 °C 18,6 °C 22,5 km/h (4 Bft)
27.06.2023 17:11 24,0 °C 20,7 °C 58 % 57 % 1016,1 hPa 0,0 l/m² 13,2 km/h (3 Bft) N 350 ° 2 min 167 W/m² 11,9 °C 18,5 °C 22,5 km/h (4 Bft)
27.06.2023 17:13 24,0 °C 20,8 °C 58 % 56 % 1016,1 hPa 0,0 l/m² 10,9 km/h (2 Bft) NO 38 ° 2 min 636 W/m² 11,7 °C 19,3 °C 17,7 km/h (3 Bft)
27.06.2023 17:15 24,0 °C 21,3 °C 58 % 55 % 1016,0 hPa 0,0 l/m² 11,3 km/h (2 Bft) N-NW 336 ° 2 min 640 W/m² 11,9 °C 19,7 °C 17,7 km/h (3 Bft)
27.06.2023 17:17 24,0 °C 21,7 °C 58 % 55 % 1015,9 hPa 0,0 l/m² 9,4 km/h (2 Bft) W 273 ° 2 min 649 W/m² 12,3 °C 20,7 °C 16,1 km/h (3 Bft)
27.06.2023 17:19 24,0 °C 22,2 °C 58 % 54 % 1015,9 hPa 0,0 l/m² 2,8 km/h (1 Bft) W 279 ° 2 min 649 W/m² 12,4 °C 22,2 °C 8,0 km/h (2 Bft)
27.06.2023 17:21 24,0 °C 22,3 °C 58 % 54 % 1015,8 hPa 0,0 l/m² 9,1 km/h (2 Bft) N-NW 334 ° 2 min 649 W/m² 12,5 °C 21,4 °C 19,3 km/h (3 Bft)
27.06.2023 17:23 24,0 °C 22,1 °C 58 % 54 % 1015,8 hPa 0,0 l/m² 10,6 km/h (2 Bft) W-NW 302 ° 2 min 214 W/m² 12,3 °C 20,8 °C 19,3 km/h (3 Bft)
27.06.2023 17:25 24,0 °C 21,7 °C 58 % 55 % 1015,8 hPa 0,0 l/m² 4,8 km/h (1 Bft) N-NW 333 ° 2 min 192 W/m² 12,3 °C 21,7 °C 11,3 km/h (2 Bft)
27.06.2023 17:27 24,0 °C 21,6 °C 58 % 55 % 1015,8 hPa 0,0 l/m² 7,5 km/h (2 Bft) N 355 ° 2 min 165 W/m² 12,2 °C 21,2 °C 14,5 km/h (3 Bft)
27.06.2023 17:29 24,0 °C 21,3 °C 58 % 55 % 1015,8 hPa 0,0 l/m² 5,3 km/h (1 Bft) NW 313 ° 2 min 123 W/m² 11,9 °C 21,3 °C 9,7 km/h (2 Bft)
27.06.2023 17:31 24,0 °C 21,2 °C 58 % 55 % 1015,8 hPa 0,0 l/m² 3,8 km/h (1 Bft) W 261 ° 2 min 102 W/m² 11,8 °C 21,2 °C 8,0 km/h (2 Bft)
27.06.2023 17:33 24,0 °C 21,2 °C 58 % 56 % 1015,9 hPa 0,0 l/m² 3,5 km/h (1 Bft) NW 326 ° 2 min 97 W/m² 12,1 °C 21,2 °C 6,4 km/h (2 Bft)
27.06.2023 17:35 24,0 °C 21,1 °C 58 % 56 % 1016,0 hPa 0,0 l/m² 4,1 km/h (1 Bft) NW 318 ° 2 min 102 W/m² 12,0 °C 21,1 °C 6,4 km/h (2 Bft)
27.06.2023 17:37 24,0 °C 21,1 °C 58 % 57 % 1015,9 hPa 0,0 l/m² 4,7 km/h (1 Bft) W-NW 287 ° 2 min 105 W/m² 12,2 °C 21,1 °C 12,9 km/h (3 Bft)
27.06.2023 17:39 24,0 °C 20,9 °C 58 % 55 % 1015,9 hPa 0,0 l/m² 5,6 km/h (2 Bft) W-NW 298 ° 2 min 111 W/m² 11,5 °C 20,9 °C 11,3 km/h (2 Bft)
27.06.2023 17:41 24,0 °C 20,9 °C 58 % 56 % 1016,0 hPa 0,0 l/m² 5,1 km/h (1 Bft) NW 321 ° 2 min 123 W/m² 11,8 °C 20,9 °C 12,9 km/h (3 Bft)
27.06.2023 17:43 24,0 °C 20,9 °C 58 % 56 % 1016,1 hPa 0,0 l/m² 4,4 km/h (1 Bft) W-NW 284 ° 2 min 165 W/m² 11,8 °C 20,9 °C 12,9 km/h (3 Bft)
27.06.2023 17:45 24,0 °C 20,9 °C 57 % 56 % 1016,0 hPa 0,0 l/m² 10,7 km/h (2 Bft) W-SW 248 ° 2 min 199 W/m² 11,8 °C 19,4 °C 20,9 km/h (4 Bft)
27.06.2023 17:47 24,0 °C 20,9 °C 57 % 56 % 1015,9 hPa 0,0 l/m² 13,1 km/h (3 Bft) W 267 ° 2 min 204 W/m² 11,8 °C 18,8 °C 17,7 km/h (3 Bft)
27.06.2023 17:49 24,0 °C 20,8 °C 57 % 58 % 1015,9 hPa 0,0 l/m² 8,2 km/h (2 Bft) W-SW 239 ° 2 min 192 W/m² 12,2 °C 20,1 °C 12,9 km/h (3 Bft)
27.06.2023 17:51 24,0 °C 20,8 °C 57 % 58 % 1015,9 hPa 0,0 l/m² 5,0 km/h (1 Bft) W 262 ° 2 min 163 W/m² 12,2 °C 20,8 °C 12,9 km/h (3 Bft)
27.06.2023 17:53 24,0 °C 20,7 °C 57 % 53 % 1015,9 hPa 0,0 l/m² 7,9 km/h (2 Bft) W-SW 242 ° 2 min 163 W/m² 10,8 °C 20,1 °C 12,9 km/h (3 Bft)
27.06.2023 17:55 24,0 °C 20,6 °C 57 % 52 % 1015,9 hPa 0,0 l/m² 4,4 km/h (1 Bft) W-NW 282 ° 2 min 171 W/m² 10,4 °C 20,6 °C 9,7 km/h (2 Bft)
27.06.2023 17:57 24,0 °C 20,6 °C 57 % 51 % 1015,9 hPa 0,0 l/m² 1,9 km/h (1 Bft) W-SW 253 ° 2 min 204 W/m² 10,1 °C 20,6 °C 8,0 km/h (2 Bft)
27.06.2023 17:59 24,0 °C 20,7 °C 57 % 52 % 1015,8 hPa 0,0 l/m² 3,3 km/h (1 Bft) NW 306 ° 2 min 225 W/m² 10,5 °C 20,7 °C 11,3 km/h (2 Bft)
27.06.2023 18:01 24,0 °C 20,9 °C 58 % 50 % 1015,8 hPa 0,0 l/m² 6,4 km/h (2 Bft) N-NW 348 ° 2 min 411 W/m² 10,1 °C 20,9 °C 11,3 km/h (2 Bft)
27.06.2023 18:03 24,0 °C 21,1 °C 57 % 50 % 1015,9 hPa 0,0 l/m² 8,1 km/h (2 Bft) NW 310 ° 2 min 390 W/m² 10,3 °C 20,5 °C 14,5 km/h (3 Bft)
27.06.2023 18:05 24,0 °C 21,2 °C 57 % 54 % 1015,9 hPa 0,0 l/m² 6,3 km/h (2 Bft) W-NW 298 ° 2 min 406 W/m² 11,5 °C 21,2 °C 12,9 km/h (3 Bft)
27.06.2023 18:07 24,0 °C 21,4 °C 57 % 54 % 1015,9 hPa 0,0 l/m² 6,4 km/h (2 Bft) W-NW 298 ° 2 min 209 W/m² 11,7 °C 21,4 °C 12,9 km/h (3 Bft)
27.06.2023 18:09 24,0 °C 21,3 °C 57 % 55 % 1015,9 hPa 0,0 l/m² 7,4 km/h (2 Bft) NW 306 ° 2 min 185 W/m² 11,9 °C 20,9 °C 16,1 km/h (3 Bft)
27.06.2023 18:11 24,0 °C 21,2 °C 56 % 55 % 1015,9 hPa 0,0 l/m² 5,8 km/h (2 Bft) W-NW 294 ° 2 min 174 W/m² 11,8 °C 21,2 °C 14,5 km/h (3 Bft)
27.06.2023 18:13 24,0 °C 21,1 °C 57 % 54 % 1015,8 hPa 0,0 l/m² 4,8 km/h (1 Bft) NW 306 ° 2 min 171 W/m² 11,4 °C 21,1 °C 9,7 km/h (2 Bft)
27.06.2023 18:15 24,0 °C 21,1 °C 56 % 56 % 1015,9 hPa 0,0 l/m² 1,6 km/h (1 Bft) NW 310 ° 2 min 160 W/m² 12,0 °C 21,1 °C 6,4 km/h (2 Bft)
27.06.2023 18:17 23,9 °C 21,1 °C 56 % 56 % 1015,8 hPa 0,0 l/m² 1,4 km/h (1 Bft) W-NW 288 ° 2 min 156 W/m² 12,0 °C 21,1 °C 8,0 km/h (2 Bft)
27.06.2023 18:19 23,9 °C 21,2 °C 56 % 57 % 1015,7 hPa 0,0 l/m² 1,9 km/h (1 Bft) W 276 ° 2 min 156 W/m² 12,3 °C 21,2 °C 8,0 km/h (2 Bft)
27.06.2023 18:21 24,0 °C 21,2 °C 56 % 56 % 1015,6 hPa 0,0 l/m² 2,2 km/h (1 Bft) W-NW 302 ° 2 min 146 W/m² 12,1 °C 21,2 °C 6,4 km/h (2 Bft)
27.06.2023 18:23 24,0 °C 21,1 °C 56 % 56 % 1015,6 hPa 0,0 l/m² 1,6 km/h (1 Bft) S-SW 203 ° 2 min 121 W/m² 12,0 °C 21,1 °C 6,4 km/h (2 Bft)
27.06.2023 18:25 24,0 °C 20,9 °C 56 % 56 % 1015,7 hPa 0,0 l/m² 3,6 km/h (1 Bft) W-SW 257 ° 2 min 91 W/m² 11,8 °C 20,9 °C 11,3 km/h (2 Bft)
27.06.2023 18:27 24,0 °C 20,9 °C 55 % 56 % 1015,7 hPa 0,0 l/m² 4,1 km/h (1 Bft) W-NW 300 ° 2 min 65 W/m² 11,8 °C 20,9 °C 6,4 km/h (2 Bft)
27.06.2023 18:29 24,0 °C 20,8 °C 55 % 56 % 1015,7 hPa 0,0 l/m² 1,5 km/h (1 Bft) NW 312 ° 2 min 53 W/m² 11,7 °C 20,8 °C 4,8 km/h (1 Bft)
27.06.2023 18:31 23,9 °C 20,8 °C 55 % 56 % 1015,8 hPa 0,0 l/m² 4,0 km/h (1 Bft) W-NW 285 ° 0 min 40 W/m² 11,7 °C 20,8 °C 6,4 km/h (2 Bft)
27.06.2023 18:33 24,0 °C 20,7 °C 55 % 56 % 1015,9 hPa 0,0 l/m² 4,3 km/h (1 Bft) W-NW 296 ° 0 min 28 W/m² 11,6 °C 20,7 °C 14,5 km/h (3 Bft)
27.06.2023 18:35 24,0 °C 20,7 °C 55 % 56 % 1015,9 hPa 0,0 l/m² 6,6 km/h (2 Bft) W 267 ° 0 min 23 W/m² 11,6 °C 20,6 °C 12,9 km/h (3 Bft)
27.06.2023 18:37 24,0 °C 20,6 °C 55 % 57 % 1016,1 hPa 0,0 l/m² 9,2 km/h (2 Bft) W-SW 247 ° 0 min 18 W/m² 11,8 °C 19,6 °C 14,5 km/h (3 Bft)
27.06.2023 18:39 23,9 °C 20,4 °C 55 % 59 % 1016,3 hPa 0,0 l/m² 7,1 km/h (2 Bft) W 273 ° 0 min 14 W/m² 12,1 °C 20,1 °C 12,9 km/h (3 Bft)
27.06.2023 18:41 23,9 °C 20,3 °C 55 % 60 % 1016,6 hPa 0,0 l/m² 7,7 km/h (2 Bft) W 280 ° 0 min 16 W/m² 12,3 °C 19,8 °C 14,5 km/h (3 Bft)
27.06.2023 18:43 23,9 °C 20,2 °C 54 % 60 % 1016,7 hPa 0,0 l/m² 8,8 km/h (2 Bft) W 275 ° 0 min 16 W/m² 12,2 °C 19,3 °C 14,5 km/h (3 Bft)
27.06.2023 18:45 23,9 °C 19,9 °C 54 % 63 % 1016,9 hPa 0,2 l/m² 18,2 km/h (3 Bft) W 278 ° 0 min 11 W/m² 12,6 °C 16,4 °C 29,0 km/h (5 Bft)
27.06.2023 18:46 23,9 °C 19,6 °C 54 % 65 % 1016,9 hPa 0,0 l/m² 22,3 km/h (4 Bft) W 280 ° 0 min 9 W/m² 12,8 °C 15,3 °C 37,0 km/h (5 Bft)
27.06.2023 18:48 23,9 °C 18,6 °C 53 % 70 % 1017,0 hPa 0,4 l/m² 16,4 km/h (3 Bft) W 279 ° 0 min 9 W/m² 13,0 °C 15,2 °C 32,2 km/h (5 Bft)
27.06.2023 18:50 23,9 °C 17,4 °C 53 % 72 % 1016,9 hPa 0,4 l/m² 14,0 km/h (3 Bft) W-SW 246 ° 0 min 12 W/m² 12,3 °C 14,4 °C 19,3 km/h (3 Bft)
27.06.2023 18:52 23,9 °C 16,6 °C 53 % 75 % 1016,9 hPa 0,4 l/m² 12,7 km/h (3 Bft) W-SW 239 ° 0 min 16 W/m² 12,1 °C 13,9 °C 19,3 km/h (3 Bft)
27.06.2023 18:54 23,9 °C 15,9 °C 53 % 78 % 1016,8 hPa 0,6 l/m² 7,7 km/h (2 Bft) SW 217 ° 0 min 19 W/m² 12,1 °C 15,2 °C 11,3 km/h (2 Bft)
27.06.2023 18:56 23,9 °C 15,2 °C 53 % 80 % 1016,7 hPa 0,2 l/m² 1,8 km/h (1 Bft) SW 217 ° 0 min 25 W/m² 11,8 °C 15,2 °C 4,8 km/h (1 Bft)
27.06.2023 18:58 23,9 °C 14,8 °C 54 % 83 % 1016,6 hPa 0,0 l/m² 0,0 km/h (0 Bft) SW 217 ° 0 min 26 W/m² 11,9 °C 14,8 °C 0,0 km/h (0 Bft)
27.06.2023 19:00 23,9 °C 14,6 °C 54 % 85 % 1016,7 hPa 0,0 l/m² 0,3 km/h (0 Bft) SW 217 ° 0 min 30 W/m² 12,1 °C 14,6 °C 3,2 km/h (1 Bft)
27.06.2023 19:02 23,8 °C 14,6 °C 54 % 86 % 1016,8 hPa 0,0 l/m² 2,8 km/h (1 Bft) W 276 ° 0 min 39 W/m² 12,3 °C 14,6 °C 6,4 km/h (2 Bft)
27.06.2023 19:04 23,9 °C 14,8 °C 54 % 87 % 1016,8 hPa 0,0 l/m² 4,1 km/h (1 Bft) NW 317 ° 0 min 47 W/m² 12,7 °C 14,8 °C 9,7 km/h (2 Bft)
27.06.2023 19:06 23,9 °C 15,0 °C 54 % 87 % 1016,8 hPa 0,0 l/m² 5,9 km/h (2 Bft) W-SW 253 ° 2 min 54 W/m² 12,9 °C 15,0 °C 11,3 km/h (2 Bft)
27.06.2023 19:08 23,9 °C 15,2 °C 54 % 85 % 1016,8 hPa 0,0 l/m² 6,7 km/h (2 Bft) N 355 ° 2 min 54 W/m² 12,7 °C 15,0 °C 16,1 km/h (3 Bft)
27.06.2023 19:10 23,9 °C 15,2 °C 55 % 85 % 1016,7 hPa 0,2 l/m² 7,8 km/h (2 Bft) W-NW 288 ° 0 min 51 W/m² 12,7 °C 14,4 °C 16,1 km/h (3 Bft)
27.06.2023 19:12 23,9 °C 15,2 °C 55 % 84 % 1016,7 hPa 0,2 l/m² 4,9 km/h (1 Bft) W-NW 301 ° 0 min 49 W/m² 12,5 °C 15,2 °C 9,7 km/h (2 Bft)
27.06.2023 19:14 23,9 °C 15,2 °C 55 % 85 % 1016,7 hPa 0,2 l/m² 6,4 km/h (2 Bft) W-NW 289 ° 0 min 51 W/m² 12,7 °C 15,2 °C 11,3 km/h (2 Bft)
27.06.2023 19:16 23,9 °C 15,2 °C 55 % 85 % 1016,7 hPa 0,0 l/m² 5,3 km/h (1 Bft) N-NW 333 ° 2 min 58 W/m² 12,7 °C 15,2 °C 9,7 km/h (2 Bft)
27.06.2023 19:18 23,9 °C 15,2 °C 55 % 86 % 1016,6 hPa 0,2 l/m² 4,1 km/h (1 Bft) NW 325 ° 2 min 67 W/m² 12,9 °C 15,2 °C 9,7 km/h (2 Bft)
27.06.2023 19:20 23,9 °C 15,2 °C 55 % 86 % 1016,7 hPa 0,0 l/m² 6,3 km/h (2 Bft) N 350 ° 2 min 79 W/m² 12,9 °C 15,2 °C 14,5 km/h (3 Bft)
27.06.2023 19:22 23,9 °C 15,2 °C 55 % 86 % 1016,8 hPa 0,0 l/m² 5,0 km/h (1 Bft) NW 321 ° 2 min 88 W/m² 12,9 °C 15,2 °C 9,7 km/h (2 Bft)
27.06.2023 19:24 23,9 °C 15,3 °C 55 % 86 % 1016,6 hPa 0,0 l/m² 3,6 km/h (1 Bft) NW 320 ° 2 min 102 W/m² 13,0 °C 15,3 °C 8,0 km/h (2 Bft)
27.06.2023 19:26 23,9 °C 15,3 °C 55 % 87 % 1016,6 hPa 0,0 l/m² 6,2 km/h (2 Bft) N-NW 330 ° 2 min 118 W/m² 13,1 °C 15,3 °C 8,0 km/h (2 Bft)
27.06.2023 19:27 23,9 °C 15,4 °C 55 % 86 % 1016,5 hPa 0,0 l/m² 7,3 km/h (2 Bft) N-NW 337 ° 1 min 116 W/m² 13,1 °C 14,9 °C 9,7 km/h (2 Bft)
27.06.2023 19:28 23,9 °C 15,5 °C 55 % 86 % 1016,5 hPa 0,0 l/m² 6,2 km/h (2 Bft) NW 323 ° 1 min 114 W/m² 13,2 °C 15,5 °C 9,7 km/h (2 Bft)
27.06.2023 19:29 23,9 °C 15,6 °C 55 % 86 % 1016,5 hPa 0,0 l/m² 6,7 km/h (2 Bft) N-NW 333 ° 1 min 113 W/m² 13,3 °C 15,4 °C 8,0 km/h (2 Bft)
27.06.2023 19:31 23,9 °C 15,7 °C 56 % 86 % 1016,6 hPa 0,0 l/m² 4,6 km/h (1 Bft) W-NW 284 ° 2 min 104 W/m² 13,4 °C 15,7 °C 8,0 km/h (2 Bft)
27.06.2023 19:33 23,9 °C 15,8 °C 56 % 86 % 1016,5 hPa 0,0 l/m² 3,6 km/h (1 Bft) NW 319 ° 2 min 74 W/m² 13,5 °C 15,8 °C 8,0 km/h (2 Bft)
27.06.2023 19:35 23,9 °C 15,8 °C 56 % 86 % 1016,4 hPa 0,0 l/m² 5,0 km/h (1 Bft) N-NW 340 ° 2 min 77 W/m² 13,5 °C 15,8 °C 8,0 km/h (2 Bft)
27.06.2023 19:37 24,0 °C 15,9 °C 56 % 86 % 1016,4 hPa 0,0 l/m² 4,1 km/h (1 Bft) N 355 ° 2 min 65 W/m² 13,6 °C 15,9 °C 8,0 km/h (2 Bft)
27.06.2023 19:39 23,9 °C 15,9 °C 56 % 86 % 1016,5 hPa 0,0 l/m² 4,8 km/h (1 Bft) N-NW 332 ° 2 min 62 W/m² 13,6 °C 15,9 °C 9,7 km/h (2 Bft)
27.06.2023 19:41 24,0 °C 16,0 °C 56 % 85 % 1016,5 hPa 0,0 l/m² 4,3 km/h (1 Bft) N-NW 348 ° 2 min 56 W/m² 13,5 °C 16,0 °C 8,0 km/h (2 Bft)
27.06.2023 19:43 24,0 °C 16,0 °C 56 % 85 % 1016,5 hPa 0,0 l/m² 3,8 km/h (1 Bft) NW 317 ° 2 min 54 W/m² 13,5 °C 16,0 °C 6,4 km/h (2 Bft)
27.06.2023 19:45 24,0 °C 16,1 °C 56 % 86 % 1016,5 hPa 0,0 l/m² 3,4 km/h (1 Bft) NW 311 ° 2 min 54 W/m² 13,8 °C 16,1 °C 4,8 km/h (1 Bft)
27.06.2023 19:47 24,0 °C 16,1 °C 56 % 87 % 1016,6 hPa 0,0 l/m² 1,2 km/h (1 Bft) NW 306 ° 2 min 58 W/m² 13,9 °C 16,1 °C 3,2 km/h (1 Bft)
27.06.2023 19:49 24,1 °C 16,2 °C 56 % 87 % 1016,5 hPa 0,0 l/m² 0,0 km/h (0 Bft) NW 306 ° 2 min 62 W/m² 14,0 °C 16,2 °C 0,0 km/h (0 Bft)
27.06.2023 19:51 24,0 °C 16,3 °C 56 % 88 % 1016,4 hPa 0,0 l/m² 0,7 km/h (0 Bft) N-NW 347 ° 2 min 65 W/m² 14,3 °C 16,3 °C 4,8 km/h (1 Bft)
27.06.2023 19:53 24,0 °C 16,3 °C 56 % 88 % 1016,5 hPa 0,0 l/m² 0,7 km/h (0 Bft) W-NW 290 ° 2 min 69 W/m² 14,3 °C 16,3 °C 3,2 km/h (1 Bft)
27.06.2023 19:55 24,1 °C 16,3 °C 56 % 88 % 1016,5 hPa 0,0 l/m² 0,6 km/h (0 Bft) W-NW 295 ° 2 min 76 W/m² 14,3 °C 16,3 °C 3,2 km/h (1 Bft)
27.06.2023 19:57 24,1 °C 16,3 °C 56 % 87 % 1016,5 hPa 0,0 l/m² 0,0 km/h (0 Bft) W-NW 296 ° 2 min 81 W/m² 14,1 °C 16,3 °C 1,6 km/h (1 Bft)
27.06.2023 19:59 24,1 °C 16,3 °C 56 % 88 % 1016,5 hPa 0,0 l/m² 0,0 km/h (0 Bft) W-NW 303 ° 2 min 84 W/m² 14,3 °C 16,3 °C 1,6 km/h (1 Bft)
27.06.2023 20:01 24,1 °C 16,3 °C 56 % 88 % 1016,6 hPa 0,0 l/m² 1,2 km/h (1 Bft) N-NW 333 ° 2 min 84 W/m² 14,3 °C 16,3 °C 4,8 km/h (1 Bft)
27.06.2023 20:03 24,1 °C 16,4 °C 56 % 88 % 1016,6 hPa 0,0 l/m² 0,1 km/h (0 Bft) N-NW 333 ° 2 min 84 W/m² 14,4 °C 16,4 °C 1,6 km/h (1 Bft)
27.06.2023 20:05 24,1 °C 16,4 °C 56 % 87 % 1016,6 hPa 0,0 l/m² 2,0 km/h (1 Bft) NW 309 ° 2 min 84 W/m² 14,2 °C 16,4 °C 4,8 km/h (1 Bft)
27.06.2023 20:07 24,1 °C 16,3 °C 56 % 86 % 1016,6 hPa 0,0 l/m² 1,7 km/h (1 Bft) N-NW 336 ° 2 min 86 W/m² 14,0 °C 16,3 °C 4,8 km/h (1 Bft)
27.06.2023 20:09 24,1 °C 16,4 °C 56 % 85 % 1016,5 hPa 0,0 l/m² 0,3 km/h (0 Bft) N-NW 338 ° 2 min 90 W/m² 13,9 °C 16,4 °C 1,6 km/h (1 Bft)
27.06.2023 20:11 24,1 °C 16,4 °C 56 % 86 % 1016,5 hPa 0,0 l/m² 0,8 km/h (0 Bft) N-NW 335 ° 2 min 84 W/m² 14,1 °C 16,4 °C 3,2 km/h (1 Bft)
27.06.2023 20:13 24,1 °C 16,4 °C 56 % 84 % 1016,6 hPa 0,0 l/m² 0,2 km/h (0 Bft) N-NW 334 ° 2 min 62 W/m² 13,7 °C 16,4 °C 1,6 km/h (1 Bft)
27.06.2023 20:15 24,1 °C 16,4 °C 57 % 84 % 1016,5 hPa 0,0 l/m² 0,0 km/h (0 Bft) N-NW 334 ° 0 min 47 W/m² 13,7 °C 16,4 °C 0,0 km/h (0 Bft)
27.06.2023 20:17 24,1 °C 16,4 °C 57 % 85 % 1016,5 hPa 0,0 l/m² 1,1 km/h (1 Bft) W 261 ° 0 min 37 W/m² 13,9 °C 16,4 °C 3,2 km/h (1 Bft)
27.06.2023 20:19 24,1 °C 16,3 °C 57 % 86 % 1016,5 hPa 0,0 l/m² 2,5 km/h (1 Bft) W 260 ° 0 min 28 W/m² 14,0 °C 16,3 °C 4,8 km/h (1 Bft)
27.06.2023 20:21 24,1 °C 16,2 °C 57 % 86 % 1016,6 hPa 0,0 l/m² 2,2 km/h (1 Bft) W 260 ° 0 min 28 W/m² 13,9 °C 16,2 °C 3,2 km/h (1 Bft)
27.06.2023 20:23 24,1 °C 16,1 °C 57 % 87 % 1016,6 hPa 0,0 l/m² 0,4 km/h (0 Bft) W 260 ° 0 min 25 W/m² 13,9 °C 16,1 °C 1,6 km/h (1 Bft)
27.06.2023 20:25 24,1 °C 15,9 °C 57 % 87 % 1016,6 hPa 0,0 l/m² 0,0 km/h (0 Bft) W 260 ° 0 min 23 W/m² 13,7 °C 15,9 °C 0,0 km/h (0 Bft)
27.06.2023 20:27 24,1 °C 15,9 °C 57 % 88 % 1016,6 hPa 0,0 l/m² 0,0 km/h (0 Bft) W 260 ° 0 min 23 W/m² 13,9 °C 15,9 °C 1,6 km/h (1 Bft)
27.06.2023 20:29 24,1 °C 15,9 °C 57 % 88 % 1016,7 hPa 0,0 l/m² 0,0 km/h (0 Bft) W 260 ° 0 min 21 W/m² 13,9 °C 15,9 °C 0,0 km/h (0 Bft)
27.06.2023 20:31 24,1 °C 15,8 °C 57 % 89 % 1016,7 hPa 0,0 l/m² 0,0 km/h (0 Bft) W 260 ° 0 min 21 W/m² 14,0 °C 15,8 °C 0,0 km/h (0 Bft)
27.06.2023 20:33 24,1 °C 15,8 °C 57 % 89 % 1016,8 hPa 0,0 l/m² 0,0 km/h (0 Bft) W 260 ° 0 min 21 W/m² 14,0 °C 15,8 °C 0,0 km/h (0 Bft)
27.06.2023 20:35 24,1 °C 15,8 °C 57 % 90 % 1016,7 hPa 0,0 l/m² 0,0 km/h (0 Bft) W 260 ° 0 min 21 W/m² 14,2 °C 15,8 °C 0,0 km/h (0 Bft)
27.06.2023 20:37 24,1 °C 15,8 °C 57 % 90 % 1016,8 hPa 0,0 l/m² 0,0 km/h (0 Bft) W 260 ° 0 min 21 W/m² 14,2 °C 15,8 °C 0,0 km/h (0 Bft)
27.06.2023 20:39 24,1 °C 15,7 °C 57 % 90 % 1016,7 hPa 0,0 l/m² 0,0 km/h (0 Bft) W 260 ° 0 min 21 W/m² 14,1 °C 15,7 °C 0,0 km/h (0 Bft)
27.06.2023 20:41 24,1 °C 15,7 °C 57 % 90 % 1016,7 hPa 0,0 l/m² 0,0 km/h (0 Bft) W 260 ° 0 min 25 W/m² 14,1 °C 15,7 °C 0,0 km/h (0 Bft)
27.06.2023 20:43 24,2 °C 15,7 °C 57 % 90 % 1016,7 hPa 0,0 l/m² 0,0 km/h (0 Bft) W 260 ° 0 min 25 W/m² 14,1 °C 15,7 °C 0,0 km/h (0 Bft)
27.06.2023 20:45 24,1 °C 15,6 °C 57 % 90 % 1016,8 hPa 0,0 l/m² 0,0 km/h (0 Bft) W 260 ° 0 min 26 W/m² 14,0 °C 15,6 °C 0,0 km/h (0 Bft)
27.06.2023 20:47 24,1 °C 15,6 °C 57 % 90 % 1016,8 hPa 0,0 l/m² 0,0 km/h (0 Bft) W 260 ° 0 min 23 W/m² 14,0 °C 15,6 °C 0,0 km/h (0 Bft)
27.06.2023 20:49 24,2 °C 15,5 °C 57 % 90 % 1016,9 hPa 0,0 l/m² 0,0 km/h (0 Bft) W 260 ° 0 min 21 W/m² 13,9 °C 15,5 °C 0,0 km/h (0 Bft)
27.06.2023 20:51 24,2 °C 15,4 °C 57 % 90 % 1016,8 hPa 0,0 l/m² 0,0 km/h (0 Bft) W 260 ° 0 min 21 W/m² 13,8 °C 15,4 °C 0,0 km/h (0 Bft)
27.06.2023 20:53 24,2 °C 15,4 °C 57 % 90 % 1016,7 hPa 0,0 l/m² 0,0 km/h (0 Bft) W 260 ° 0 min 21 W/m² 13,8 °C 15,4 °C 0,0 km/h (0 Bft)
27.06.2023 20:55 24,2 °C 15,4 °C 57 % 90 % 1016,8 hPa 0,0 l/m² 0,0 km/h (0 Bft) W 260 ° 0 min 23 W/m² 13,8 °C 15,4 °C 0,0 km/h (0 Bft)
27.06.2023 20:57 24,2 °C 15,6 °C 57 % 91 % 1016,8 hPa 0,0 l/m² 0,0 km/h (0 Bft) W 260 ° 0 min 23 W/m² 14,1 °C 15,6 °C 0,0 km/h (0 Bft)
27.06.2023 20:59 24,2 °C 15,6 °C 57 % 91 % 1016,8 hPa 0,0 l/m² 0,0 km/h (0 Bft) W 260 ° 0 min 19 W/m² 14,1 °C 15,6 °C 0,0 km/h (0 Bft)
27.06.2023 21:01 24,1 °C 15,6 °C 57 % 91 % 1016,7 hPa 0,0 l/m² 0,0 km/h (0 Bft) W 260 ° 0 min 16 W/m² 14,1 °C 15,6 °C 0,0 km/h (0 Bft)
27.06.2023 21:03 24,1 °C 15,5 °C 57 % 91 % 1016,6 hPa 0,0 l/m² 0,0 km/h (0 Bft) W 260 ° 0 min 14 W/m² 14,0 °C 15,5 °C 0,0 km/h (0 Bft)
27.06.2023 21:05 24,1 °C 15,4 °C 57 % 90 % 1016,7 hPa 0,0 l/m² 2,6 km/h (1 Bft) W-SW 248 ° 0 min 12 W/m² 13,8 °C 15,4 °C 4,8 km/h (1 Bft)
27.06.2023 21:07 24,1 °C 15,2 °C 57 % 90 % 1016,6 hPa 0,0 l/m² 2,9 km/h (1 Bft) W-SW 248 ° 0 min 11 W/m² 13,6 °C 15,2 °C 4,8 km/h (1 Bft)
27.06.2023 21:09 24,1 °C 15,1 °C 57 % 91 % 1016,6 hPa 0,0 l/m² 1,6 km/h (1 Bft) W-SW 248 ° 0 min 11 W/m² 13,6 °C 15,1 °C 3,2 km/h (1 Bft)
27.06.2023 21:11 24,1 °C 15,0 °C 57 % 91 % 1016,5 hPa 0,0 l/m² 0,0 km/h (0 Bft) W-SW 248 ° 0 min 11 W/m² 13,5 °C 15,0 °C 0,0 km/h (0 Bft)
27.06.2023 21:13 24,1 °C 15,0 °C 57 % 91 % 1016,5 hPa 0,0 l/m² 0,0 km/h (0 Bft) W-SW 248 ° 0 min 11 W/m² 13,5 °C 15,0 °C 0,0 km/h (0 Bft)
27.06.2023 21:15 24,1 °C 15,1 °C 57 % 92 % 1016,5 hPa 0,0 l/m² 0,0 km/h (0 Bft) W-SW 248 ° 0 min 9 W/m² 13,8 °C 15,1 °C 0,0 km/h (0 Bft)
27.06.2023 21:17 24,1 °C 15,1 °C 57 % 92 % 1016,4 hPa 0,0 l/m² 0,5 km/h (0 Bft) W-SW 248 ° 0 min 9 W/m² 13,8 °C 15,1 °C 3,2 km/h (1 Bft)
27.06.2023 21:19 24,1 °C 15,0 °C 57 % 91 % 1016,3 hPa 0,0 l/m² 1,5 km/h (1 Bft) W-SW 248 ° 0 min 7 W/m² 13,5 °C 15,0 °C 3,2 km/h (1 Bft)
27.06.2023 21:21 24,1 °C 15,0 °C 57 % 92 % 1016,3 hPa 0,0 l/m² 0,0 km/h (0 Bft) W-SW 248 ° 0 min 7 W/m² 13,7 °C 15,0 °C 0,0 km/h (0 Bft)
27.06.2023 21:23 24,1 °C 14,9 °C 57 % 92 % 1016,3 hPa 0,0 l/m² 0,0 km/h (0 Bft) W-SW 248 ° 0 min 7 W/m² 13,6 °C 14,9 °C 0,0 km/h (0 Bft)
27.06.2023 21:25 24,1 °C 14,9 °C 57 % 92 % 1016,3 hPa 0,0 l/m² 0,0 km/h (0 Bft) W-SW 248 ° 0 min 5 W/m² 13,6 °C 14,9 °C 0,0 km/h (0 Bft)
27.06.2023 21:27 24,0 °C 15,0 °C 57 % 92 % 1016,3 hPa 0,0 l/m² 0,0 km/h (0 Bft) W-SW 248 ° 0 min 5 W/m² 13,7 °C 15,0 °C 0,0 km/h (0 Bft)
27.06.2023 21:28 24,0 °C 15,0 °C 57 % 92 % 1016,3 hPa 0,0 l/m² 0,0 km/h (0 Bft) W-SW 248 ° 0 min 5 W/m² 13,7 °C 15,0 °C 0,0 km/h (0 Bft)
27.06.2023 21:29 24,0 °C 15,0 °C 57 % 92 % 1016,3 hPa 0,0 l/m² 0,0 km/h (0 Bft) W-SW 248 ° 0 min 5 W/m² 13,7 °C 15,0 °C 0,0 km/h (0 Bft)
27.06.2023 21:31 24,0 °C 15,0 °C 57 % 92 % 1016,2 hPa 0,0 l/m² 0,3 km/h (0 Bft) W-SW 248 ° 0 min 0 W/m² 13,7 °C 15,0 °C 3,2 km/h (1 Bft)
27.06.2023 21:33 24,0 °C 14,9 °C 57 % 92 % 1016,2 hPa 0,0 l/m² 2,9 km/h (1 Bft) W-SW 246 ° 0 min 0 W/m² 13,6 °C 14,9 °C 4,8 km/h (1 Bft)
27.06.2023 21:35 24,0 °C 14,8 °C 57 % 92 % 1016,2 hPa 0,0 l/m² 5,0 km/h (1 Bft) SW 232 ° 0 min 0 W/m² 13,5 °C 14,8 °C 6,4 km/h (2 Bft)
27.06.2023 21:37 24,0 °C 14,7 °C 57 % 92 % 1016,2 hPa 0,0 l/m² 6,5 km/h (2 Bft) SW 223 ° 0 min 0 W/m² 13,4 °C 14,7 °C 8,0 km/h (2 Bft)
27.06.2023 21:39 24,0 °C 14,7 °C 57 % 92 % 1016,2 hPa 0,0 l/m² 6,6 km/h (2 Bft) SW 218 ° 0 min 0 W/m² 13,4 °C 14,6 °C 8,0 km/h (2 Bft)
27.06.2023 21:41 24,0 °C 14,6 °C 57 % 92 % 1016,2 hPa 0,0 l/m² 5,1 km/h (1 Bft) SW 218 ° 0 min 0 W/m² 13,3 °C 14,6 °C 6,4 km/h (2 Bft)
27.06.2023 21:43 24,0 °C 14,6 °C 57 % 92 % 1016,2 hPa 0,0 l/m² 3,3 km/h (1 Bft) SW 218 ° 0 min 0 W/m² 13,3 °C 14,6 °C 4,8 km/h (1 Bft)
27.06.2023 21:45 24,0 °C 14,6 °C 57 % 92 % 1016,4 hPa 0,0 l/m² 1,6 km/h (1 Bft) SW 218 ° 0 min 0 W/m² 13,3 °C 14,6 °C 3,2 km/h (1 Bft)
27.06.2023 21:46 24,0 °C 14,6 °C 57 % 92 % 1016,4 hPa 0,0 l/m² 0,7 km/h (0 Bft) SW 218 ° 0 min 0 W/m² 13,3 °C 14,6 °C 1,6 km/h (1 Bft)
27.06.2023 21:48 24,0 °C 14,7 °C 57 % 92 % 1016,4 hPa 0,0 l/m² 0,0 km/h (0 Bft) SW 218 ° 0 min 0 W/m² 13,4 °C 14,7 °C 0,0 km/h (0 Bft)
27.06.2023 21:50 24,0 °C 14,7 °C 57 % 92 % 1016,4 hPa 0,0 l/m² 0,0 km/h (0 Bft) SW 218 ° 0 min 0 W/m² 13,4 °C 14,7 °C 0,0 km/h (0 Bft)
27.06.2023 21:52 23,9 °C 14,7 °C 57 % 92 % 1016,5 hPa 0,0 l/m² 0,0 km/h (0 Bft) SW 218 ° 0 min 0 W/m² 13,4 °C 14,7 °C 1,6 km/h (1 Bft)
27.06.2023 21:54 24,0 °C 14,7 °C 57 % 92 % 1016,5 hPa 0,0 l/m² 0,8 km/h (0 Bft) SW 218 ° 0 min 0 W/m² 13,4 °C 14,7 °C 4,8 km/h (1 Bft)
27.06.2023 21:56 24,0 °C 14,6 °C 57 % 92 % 1016,6 hPa 0,0 l/m² 0,4 km/h (0 Bft) SW 218 ° 0 min 0 W/m² 13,3 °C 14,6 °C 1,6 km/h (1 Bft)
27.06.2023 21:58 24,0 °C 14,5 °C 57 % 92 % 1016,6 hPa 0,0 l/m² 0,3 km/h (0 Bft) SW 218 ° 0 min 0 W/m² 13,2 °C 14,5 °C 1,6 km/h (1 Bft)
27.06.2023 22:00 24,0 °C 14,4 °C 57 % 92 % 1016,6 hPa 0,0 l/m² 0,0 km/h (0 Bft) SW 218 ° 0 min 0 W/m² 13,1 °C 14,4 °C 0,0 km/h (0 Bft)
27.06.2023 22:02 24,0 °C 14,4 °C 57 % 92 % 1016,7 hPa 0,0 l/m² 0,0 km/h (0 Bft) SW 218 ° 0 min 0 W/m² 13,1 °C 14,4 °C 0,0 km/h (0 Bft)
27.06.2023 22:04 23,9 °C 14,3 °C 57 % 92 % 1016,7 hPa 0,0 l/m² 0,0 km/h (0 Bft) SW 218 ° 0 min 0 W/m² 13,0 °C 14,3 °C 1,6 km/h (1 Bft)
27.06.2023 22:06 23,9 °C 14,3 °C 57 % 92 % 1016,7 hPa 0,0 l/m² 0,0 km/h (0 Bft) SW 218 ° 0 min 0 W/m² 13,0 °C 14,3 °C 0,0 km/h (0 Bft)
27.06.2023 22:08 24,0 °C 14,3 °C 57 % 92 % 1016,8 hPa 0,0 l/m² 0,9 km/h (0 Bft) SW 218 ° 0 min 0 W/m² 13,0 °C 14,3 °C 3,2 km/h (1 Bft)
27.06.2023 22:10 23,9 °C 14,3 °C 57 % 92 % 1016,8 hPa 0,0 l/m² 1,5 km/h (1 Bft) SW 219 ° 0 min 0 W/m² 13,0 °C 14,3 °C 3,2 km/h (1 Bft)
27.06.2023 22:12 23,9 °C 14,2 °C 57 % 92 % 1016,8 hPa 0,0 l/m² 0,7 km/h (0 Bft) SW 219 ° 0 min 0 W/m² 12,9 °C 14,2 °C 3,2 km/h (1 Bft)
27.06.2023 22:14 23,9 °C 14,2 °C 57 % 92 % 1016,8 hPa 0,0 l/m² 0,2 km/h (0 Bft) SW 219 ° 0 min 0 W/m² 12,9 °C 14,2 °C 3,2 km/h (1 Bft)
27.06.2023 22:16 23,9 °C 14,2 °C 57 % 92 % 1016,8 hPa 0,0 l/m² 3,0 km/h (1 Bft) SW 219 ° 0 min 0 W/m² 12,9 °C 14,2 °C 4,8 km/h (1 Bft)
27.06.2023 22:18 23,9 °C 14,2 °C 57 % 92 % 1016,7 hPa 0,0 l/m² 3,0 km/h (1 Bft) SW 219 ° 0 min 0 W/m² 12,9 °C 14,2 °C 4,8 km/h (1 Bft)
27.06.2023 22:20 23,9 °C 14,2 °C 57 % 91 % 1016,7 hPa 0,0 l/m² 4,2 km/h (1 Bft) W-SW 241 ° 0 min 0 W/m² 12,8 °C 14,2 °C 6,4 km/h (2 Bft)
27.06.2023 22:22 24,0 °C 14,1 °C 57 % 91 % 1016,8 hPa 0,0 l/m² 2,0 km/h (1 Bft) W-SW 242 ° 0 min 0 W/m² 12,7 °C 14,1 °C 4,8 km/h (1 Bft)
27.06.2023 22:24 23,9 °C 14,1 °C 57 % 91 % 1016,8 hPa 0,0 l/m² 2,7 km/h (1 Bft) W-SW 245 ° 0 min 0 W/m² 12,7 °C 14,1 °C 4,8 km/h (1 Bft)
27.06.2023 22:26 23,9 °C 14,1 °C 57 % 90 % 1016,7 hPa 0,0 l/m² 0,9 km/h (0 Bft) W-SW 245 ° 0 min 0 W/m² 12,5 °C 14,1 °C 3,2 km/h (1 Bft)
27.06.2023 22:28 23,9 °C 13,9 °C 57 % 90 % 1016,8 hPa 0,0 l/m² 3,2 km/h (1 Bft) W-SW 248 ° 0 min 0 W/m² 12,3 °C 13,9 °C 4,8 km/h (1 Bft)
27.06.2023 22:30 23,9 °C 13,8 °C 57 % 90 % 1016,7 hPa 0,0 l/m² 0,5 km/h (0 Bft) W-SW 248 ° 0 min 0 W/m² 12,2 °C 13,8 °C 3,2 km/h (1 Bft)
27.06.2023 22:32 23,9 °C 13,8 °C 57 % 90 % 1016,8 hPa 0,0 l/m² 0,5 km/h (0 Bft) W-SW 248 ° 0 min 0 W/m² 12,2 °C 13,8 °C 3,2 km/h (1 Bft)
27.06.2023 22:34 23,9 °C 13,7 °C 57 % 90 % 1016,8 hPa 0,0 l/m² 0,2 km/h (0 Bft) W-SW 248 ° 0 min 0 W/m² 12,1 °C 13,7 °C 1,6 km/h (1 Bft)
27.06.2023 22:36 23,9 °C 13,7 °C 57 % 90 % 1016,8 hPa 0,0 l/m² 0,0 km/h (0 Bft) W-SW 248 ° 0 min 0 W/m² 12,1 °C 13,7 °C 1,6 km/h (1 Bft)
27.06.2023 22:38 23,9 °C 13,6 °C 57 % 90 % 1016,7 hPa 0,0 l/m² 1,0 km/h (0 Bft) W-SW 248 ° 0 min 0 W/m² 12,0 °C 13,6 °C 3,2 km/h (1 Bft)
27.06.2023 22:40 23,9 °C 13,6 °C 57 % 90 % 1016,8 hPa 0,0 l/m² 1,9 km/h (1 Bft) W-SW 256 ° 0 min 0 W/m² 12,0 °C 13,6 °C 4,8 km/h (1 Bft)
27.06.2023 22:42 23,9 °C 13,6 °C 57 % 89 % 1016,8 hPa 0,0 l/m² 0,8 km/h (0 Bft) W-SW 256 ° 0 min 0 W/m² 11,8 °C 13,6 °C 3,2 km/h (1 Bft)
27.06.2023 22:44 23,9 °C 13,6 °C 57 % 89 % 1016,8 hPa 0,0 l/m² 2,7 km/h (1 Bft) W-SW 256 ° 0 min 0 W/m² 11,8 °C 13,6 °C 4,8 km/h (1 Bft)
27.06.2023 22:46 23,9 °C 13,5 °C 57 % 89 % 1016,9 hPa 0,0 l/m² 1,1 km/h (1 Bft) W-SW 256 ° 0 min 0 W/m² 11,7 °C 13,5 °C 3,2 km/h (1 Bft)
27.06.2023 22:48 23,9 °C 13,4 °C 57 % 89 % 1016,9 hPa 0,0 l/m² 0,5 km/h (0 Bft) W-SW 256 ° 0 min 0 W/m² 11,6 °C 13,4 °C 4,8 km/h (1 Bft)
27.06.2023 22:50 23,9 °C 13,4 °C 57 % 89 % 1016,9 hPa 0,0 l/m² 2,0 km/h (1 Bft) W 265 ° 0 min 0 W/m² 11,6 °C 13,4 °C 4,8 km/h (1 Bft)
27.06.2023 22:52 23,9 °C 13,3 °C 57 % 89 % 1016,8 hPa 0,0 l/m² 1,1 km/h (1 Bft) W 267 ° 0 min 0 W/m² 11,5 °C 13,3 °C 3,2 km/h (1 Bft)
27.06.2023 22:54 23,9 °C 13,3 °C 57 % 89 % 1016,9 hPa 0,0 l/m² 1,0 km/h (0 Bft) W 267 ° 0 min 0 W/m² 11,5 °C 13,3 °C 3,2 km/h (1 Bft)
27.06.2023 22:56 23,9 °C 13,3 °C 57 % 89 % 1016,9 hPa 0,0 l/m² 2,1 km/h (1 Bft) W 278 ° 0 min 0 W/m² 11,5 °C 13,3 °C 4,8 km/h (1 Bft)
27.06.2023 22:58 23,9 °C 13,2 °C 57 % 88 % 1016,9 hPa 0,0 l/m² 2,2 km/h (1 Bft) NW 313 ° 0 min 0 W/m² 11,3 °C 13,2 °C 6,4 km/h (2 Bft)
27.06.2023 23:00 23,9 °C 13,2 °C 57 % 88 % 1016,9 hPa 0,0 l/m² 3,1 km/h (1 Bft) W-NW 286 ° 0 min 0 W/m² 11,3 °C 13,2 °C 6,4 km/h (2 Bft)
27.06.2023 23:02 23,9 °C 13,2 °C 57 % 89 % 1016,9 hPa 0,0 l/m² 2,6 km/h (1 Bft) W-NW 290 ° 0 min 0 W/m² 11,4 °C 13,2 °C 8,0 km/h (2 Bft)
27.06.2023 23:04 23,9 °C 13,2 °C 57 % 88 % 1016,8 hPa 0,0 l/m² 2,1 km/h (1 Bft) NW 315 ° 0 min 0 W/m² 11,3 °C 13,2 °C 6,4 km/h (2 Bft)
27.06.2023 23:06 23,9 °C 13,2 °C 57 % 88 % 1016,8 hPa 0,0 l/m² 3,7 km/h (1 Bft) W 280 ° 0 min 0 W/m² 11,3 °C 13,2 °C 6,4 km/h (2 Bft)
27.06.2023 23:08 23,9 °C 13,3 °C 57 % 88 % 1016,8 hPa 0,0 l/m² 1,1 km/h (1 Bft) W 277 ° 0 min 0 W/m² 11,4 °C 13,3 °C 3,2 km/h (1 Bft)
27.06.2023 23:10 23,9 °C 13,3 °C 57 % 88 % 1016,8 hPa 0,0 l/m² 1,6 km/h (1 Bft) W 271 ° 0 min 0 W/m² 11,4 °C 13,3 °C 4,8 km/h (1 Bft)
27.06.2023 23:12 23,9 °C 13,1 °C 57 % 88 % 1016,7 hPa 0,0 l/m² 3,0 km/h (1 Bft) W 259 ° 0 min 0 W/m² 11,2 °C 13,1 °C 4,8 km/h (1 Bft)
27.06.2023 23:14 23,9 °C 12,9 °C 57 % 88 % 1016,8 hPa 0,0 l/m² 1,7 km/h (1 Bft) W 259 ° 0 min 0 W/m² 11,0 °C 12,9 °C 3,2 km/h (1 Bft)
27.06.2023 23:15 23,9 °C 12,8 °C 57 % 88 % 1016,8 hPa 0,0 l/m² 3,2 km/h (1 Bft) W 270 ° 0 min 0 W/m² 10,9 °C 12,8 °C 3,2 km/h (1 Bft)
27.06.2023 23:16 23,9 °C 12,7 °C 58 % 88 % 1016,8 hPa 0,0 l/m² 3,2 km/h (1 Bft) W 270 ° 0 min 0 W/m² 10,8 °C 12,7 °C 3,2 km/h (1 Bft)
27.06.2023 23:22 23,8 °C 12,6 °C 58 % 90 % 1016,9 hPa 0,0 l/m² 1,8 km/h (1 Bft) W 259 ° 0 min 0 W/m² 11,0 °C 12,6 °C 3,2 km/h (1 Bft)
27.06.2023 23:24 23,8 °C 12,6 °C 58 % 90 % 1016,9 hPa 0,0 l/m² 1,6 km/h (1 Bft) W 259 ° 0 min 0 W/m² 11,0 °C 12,6 °C 3,2 km/h (1 Bft)
27.06.2023 23:25 23,8 °C 12,6 °C 58 % 90 % 1016,9 hPa 0,0 l/m² 1,0 km/h (0 Bft) W 259 ° 0 min 0 W/m² 11,0 °C 12,6 °C 1,6 km/h (1 Bft)
27.06.2023 23:26 23,9 °C 12,6 °C 58 % 90 % 1016,9 hPa 0,0 l/m² 0,2 km/h (0 Bft) W 259 ° 0 min 0 W/m² 11,0 °C 12,6 °C 1,6 km/h (1 Bft)
27.06.2023 23:28 23,9 °C 12,7 °C 58 % 90 % 1016,9 hPa 0,0 l/m² 2,8 km/h (1 Bft) W 259 ° 0 min 0 W/m² 11,1 °C 12,7 °C 4,8 km/h (1 Bft)
27.06.2023 23:30 23,9 °C 12,7 °C 58 % 91 % 1016,9 hPa 0,0 l/m² 3,1 km/h (1 Bft) W 259 ° 0 min 0 W/m² 11,3 °C 12,7 °C 4,8 km/h (1 Bft)
27.06.2023 23:31 23,9 °C 12,7 °C 58 % 91 % 1016,9 hPa 0,0 l/m² 1,4 km/h (1 Bft) W 259 ° 0 min 0 W/m² 11,3 °C 12,7 °C 3,2 km/h (1 Bft)
27.06.2023 23:32 23,9 °C 12,7 °C 58 % 91 % 1016,9 hPa 0,0 l/m² 0,4 km/h (0 Bft) W 259 ° 0 min 0 W/m² 11,3 °C 12,7 °C 3,2 km/h (1 Bft)
27.06.2023 23:34 23,8 °C 12,7 °C 58 % 90 % 1017,0 hPa 0,0 l/m² 0,1 km/h (0 Bft) W 259 ° 0 min 0 W/m² 11,1 °C 12,7 °C 1,6 km/h (1 Bft)
27.06.2023 23:35 23,9 °C 12,7 °C 58 % 90 % 1016,9 hPa 0,0 l/m² 2,2 km/h (1 Bft) W 259 ° 0 min 0 W/m² 11,1 °C 12,7 °C 3,2 km/h (1 Bft)
27.06.2023 23:37 23,8 °C 12,7 °C 58 % 90 % 1016,9 hPa 0,0 l/m² 1,4 km/h (1 Bft) W 259 ° 0 min 0 W/m² 11,1 °C 12,7 °C 3,2 km/h (1 Bft)
27.06.2023 23:39 23,9 °C 12,7 °C 58 % 91 % 1016,9 hPa 0,0 l/m² 0,0 km/h (0 Bft) W 259 ° 0 min 0 W/m² 11,3 °C 12,7 °C 0,0 km/h (0 Bft)
27.06.2023 23:40 23,9 °C 12,7 °C 58 % 91 % 1016,9 hPa 0,0 l/m² 0,0 km/h (0 Bft) W 259 ° 0 min 0 W/m² 11,3 °C 12,7 °C 0,0 km/h (0 Bft)
27.06.2023 23:42 23,8 °C 12,7 °C 58 % 91 % 1016,9 hPa 0,0 l/m² 0,0 km/h (0 Bft) W 259 ° 0 min 0 W/m² 11,3 °C 12,7 °C 0,0 km/h (0 Bft)
27.06.2023 23:44 23,9 °C 12,8 °C 58 % 91 % 1016,9 hPa 0,0 l/m² 0,0 km/h (0 Bft) W 259 ° 0 min 0 W/m² 11,4 °C 12,8 °C 0,0 km/h (0 Bft)
27.06.2023 23:46 23,8 °C 12,7 °C 58 % 90 % 1016,9 hPa 0,0 l/m² 0,0 km/h (0 Bft) W 259 ° 0 min 0 W/m² 11,1 °C 12,7 °C 0,0 km/h (0 Bft)
27.06.2023 23:48 23,8 °C 12,6 °C 58 % 90 % 1016,9 hPa 0,0 l/m² 0,0 km/h (0 Bft) W 259 ° 0 min 0 W/m² 11,0 °C 12,6 °C 0,0 km/h (0 Bft)
27.06.2023 23:50 23,8 °C 12,5 °C 58 % 90 % 1016,9 hPa 0,0 l/m² 0,0 km/h (0 Bft) W 259 ° 0 min 0 W/m² 10,9 °C 12,5 °C 0,0 km/h (0 Bft)
27.06.2023 23:51 23,8 °C 12,5 °C 58 % 90 % 1016,8 hPa 0,0 l/m² 0,0 km/h (0 Bft) W 259 ° 0 min 0 W/m² 10,9 °C 12,5 °C 0,0 km/h (0 Bft)
27.06.2023 23:52 23,8 °C 12,4 °C 58 % 90 % 1016,8 hPa 0,0 l/m² 0,0 km/h (0 Bft) W 259 ° 0 min 0 W/m² 10,8 °C 12,4 °C 0,0 km/h (0 Bft)
27.06.2023 23:53 23,8 °C 12,4 °C 58 % 90 % 1016,8 hPa 0,0 l/m² 0,0 km/h (0 Bft) W 259 ° 0 min 0 W/m² 10,8 °C 12,4 °C 0,0 km/h (0 Bft)
27.06.2023 23:55 23,9 °C 12,5 °C 58 % 91 % 1016,9 hPa 0,0 l/m² 0,0 km/h (0 Bft) W 259 ° 0 min 0 W/m² 11,1 °C 12,5 °C 0,0 km/h (0 Bft)
27.06.2023 23:57 23,8 °C 12,4 °C 58 % 91 % 1016,8 hPa 0,0 l/m² 2,4 km/h (1 Bft) W 259 ° 0 min 0 W/m² 11,0 °C 12,4 °C 4,8 km/h (1 Bft)
27.06.2023 23:59 23,8 °C 12,3 °C 58 % 91 % 1016,9 hPa 0,0 l/m² 4,0 km/h (1 Bft) SW 228 ° 0 min 0 W/m² 10,9 °C 12,3 °C 4,8 km/h (1 Bft)
_ Min-Zeit 23:59 23:59 18:56 15:55 18:23 - 23:55 - - - - 13:36 04:51 23:55
Minimum _ 23,8 °C 12,3 °C 53 % 39 % 1015,6 hPa - 0,0 km/h (0 Bft) - - - - 9,0 °C 11,5 °C 0,0 km/h (0 Bft)
_ Max-Zeit 02:49 15:55 06:27 22:18 08:43 18:54 15:42 - - 15:47 13:26 20:03 15:22 16:23
Maximum _ 24,4 °C 24,3 °C 60 % 92 % 1018,6 hPa 0,6 l/m² 26,6 km/h
W-SW (4 Bft)
- - 3 min 1202 W/m² 14,4 °C 22,6 °C 43,5 km/h
W-SW (6 Bft)
Durchschnitt _ 24,1 °C 17,9 °C 58 % 69 % 1017,1 hPa #3,0 l/m² 7,9 km/h (2 Bft) W - #13:37 h 254 W/m² 11,7 °C 16,8 °C 13,8 km/h (3 Bft)
© 2009 Mathias Hoßbach